GFSSW_850_temp_000.txt.gz
Temp
18 18 18 19 19 19 20 20 20 20 21 22 22 22 23 23 23 24 24 24 25 26 27 25 23 24 25 27 27 28 32 32 32 31 31 29 29 27 26 25 25 25 25 23 21
17 17 18 18 19 19 19 20 20 20 21 21 22 22 22 23 23 24 24 26 26 26 25 24 25 25 28 29 29 31 33 32 33 33 32 29 30 28 27 26 26 24 24 22 20
17 17 17 18 18 19 19 20 20 20 21 21 21 22 22 22 23 26 25 26 26 26 25 26 27 27 29 30 31 32 32 33 32 32 32 30 29 28 28 28 27 25 23 21 21
17 17 17 17 17 18 19 19 20 20 21 21 21 22 22 22 26 25 25 25 24 24 24 25 27 28 30 32 32 32 33 32 33 31 31 31 30 29 28 29 27 26 23 22 21
16 16 17 17 18 18 18 19 20 20 21 21 22 22 22 21 24 25 25 24 25 25 24 26 27 29 31 33 32 32 33 33 32 31 31 31 30 30 28 27 27 25 23 22 22
15 16 16 17 18 18 18 19 20 20 21 21 22 21 21 23 25 25 25 25 23 23 25 26 28 29 31 32 33 33 33 33 33 32 31 31 30 29 29 27 26 24 23 23 22
15 16 16 17 18 18 18 19 20 20 21 21 22 21 20 24 24 24 24 23 23 24 26 26 28 29 30 32 32 32 32 32 32 32 31 30 29 29 29 27 26 25 24 23 23
15 15 16 16 17 18 18 19 20 20 21 21 21 20 21 23 24 24 23 23 24 23 25 26 26 28 30 31 32 32 33 33 32 31 30 31 31 30 28 27 26 25 24 24 23
14 15 16 16 17 18 18 19 20 21 21 21 19 19 24 23 23 24 23 25 24 24 24 25 26 28 30 31 32 33 32 33 31 31 30 31 32 31 28 28 28 26 25 24 23
13 13 15 16 16 18 19 20 20 20 20 18 17 17 23 26 24 24 24 24 25 24 25 25 27 30 31 32 31 32 32 33 33 31 31 31 32 30 29 29 29 27 26 25 24
12 13 15 15 16 17 19 19 18 18 17 22 25 25 25 25 24 25 24 25 26 26 28 28 29 29 31 33 33 34 33 33 34 33 32 32 32 32 29 29 29 28 26 26 25
12 12 14 15 16 17 17 16 16 17 19 22 22 22 23 23 23 25 25 26 27 28 29 29 28 31 32 32 32 33 33 33 34 33 32 33 32 32 31 29 29 28 27 26 26
12 12 13 15 16 17 17 14 16 16 20 24 23 23 23 22 23 25 25 26 28 28 29 29 30 31 31 32 32 33 33 33 33 32 32 33 32 32 33 30 29 28 28 27 26
11 12 12 15 15 16 15 16 16 16 22 27 25 24 22 24 25 25 26 26 28 28 29 29 31 30 29 30 32 32 34 34 33 32 31 32 31 33 34 31 30 28 28 28 27
10 12 11 12 13 14 14 16 16 15 23 27 26 24 24 25 27 26 26 27 28 28 29 29 30 29 29 30 32 32 34 33 33 33 32 32 31 33 33 33 32 31 29 28 28
10 11 11 12 14 15 15 16 15 21 23 27 27 26 26 26 27 25 25 26 28 29 29 30 30 30 30 32 32 33 32 32 33 33 31 32 32 32 34 33 34 34 31 29 28
10 11 11 12 12 14 15 15 21 23 25 26 27 28 28 28 28 27 26 26 27 26 27 28 29 30 31 30 32 32 31 30 29 30 30 33 32 32 35 35 35 36 34 30 29
10 11 12 13 14 14 13 19 20 24 25 27 27 27 27 28 28 28 27 27 28 28 29 27 27 29 30 31 31 31 32 31 28 30 31 32 31 33 34 35 35 35 34 32 30
9 11 11 13 13 13 14 19 22 24 25 26 27 26 27 28 27 27 28 28 29 29 28 28 28 31 31 31 32 31 31 33 32 33 32 33 32 34 35 34 35 34 33 33 31
7 7 10 10 12 11 16 19 23 24 25 26 25 27 27 28 27 28 28 29 29 30 30 29 27 30 31 31 32 32 33 31 32 30 29 31 32 32 33 34 35 35 33 33 31
5 9 11 11 10 12 17 20 22 22 23 24 25 26 26 26 26 28 28 29 29 30 29 29 28 29 30 29 30 31 31 31 32 32 30 30 32 34 33 34 35 36 34 34 32
5 12 10 8 13 17 18 20 20 22 22 23 24 25 25 26 26 26 26 28 29 30 28 29 29 27 29 31 32 32 31 32 31 29 31 32 32 36 35 35 35 35 36 36 33
6 8 10 9 14 16 18 18 19 19 22 23 23 24 25 25 24 25 27 28 27 28 29 30 28 27 28 30 31 30 31 32 32 32 31 30 31 35 35 34 34 34 34 34 31
5 11 12 10 12 14 15 15 16 18 20 22 23 24 24 24 25 24 25 27 27 28 23 27 29 27 28 28 30 29 30 31 32 32 31 32 32 33 34 34 34 34 33 32 30
5 10 8 12 14 12 12 13 14 16 18 20 20 22 23 23 23 24 25 26 26 26 26 27 26 28 29 30 30 30 30 30 30 31 31 32 32 33 33 34 34 34 35 33 30
4 7 6 7 8 10 11 13 14 15 16 17 19 21 22 22 23 23 24 25 25 27 27 27 25 27 27 29 30 29 30 30 31 31 31 32 32 34 34 33 34 34 35 33 30
3 3 3 7 8 9 11 13 13 13 14 16 16 16 17 20 20 21 22 22 24 25 25 26 26 25 26 29 29 28 30 30 30 31 31 30 32 33 34 34 34 34 33 32 31

GFSSW_850_temp_003.txt.gz
Temp
17 18 18 18 19 19 19 20 20 21 21 21 21 22 22 22 23 23 23 25 26 26 27 25 25 27 28 29 31 31 31 33 33 30 33 32 32 31 30 29 29 28 27 25 23
17 17 18 18 18 18 19 20 20 20 21 21 21 22 22 22 23 23 25 25 25 26 26 27 28 28 30 31 32 33 25 33 35 33 34 33 32 31 30 29 29 28 27 24 23
17 17 17 18 18 18 19 19 20 20 21 21 21 22 22 22 22 27 25 25 26 26 27 28 29 29 30 32 33 34 29 33 35 34 34 33 32 31 31 30 29 28 26 24 23
16 16 17 17 18 18 19 19 19 20 20 21 21 22 22 22 27 26 25 25 25 26 26 28 29 30 32 33 33 34 33 34 35 33 34 34 33 32 31 31 29 28 26 24 24
15 16 16 17 18 18 18 19 19 20 20 20 21 21 21 22 26 26 26 25 25 24 26 28 29 31 32 34 34 34 35 34 34 33 34 33 33 33 32 31 29 28 26 25 24
15 16 16 17 18 18 18 19 20 20 20 21 21 21 21 25 27 25 25 24 25 25 26 28 29 31 32 33 35 35 35 35 34 34 33 34 33 32 31 30 29 28 26 25 25
15 16 16 16 17 18 18 19 20 20 21 21 21 21 19 24 26 25 25 25 26 26 27 28 29 31 32 34 34 34 34 35 35 35 34 33 33 32 32 30 29 28 27 26 26
14 15 16 16 17 18 18 19 20 21 21 21 21 20 22 26 25 26 25 25 26 26 27 29 29 30 32 33 34 34 35 34 35 35 34 33 32 33 32 31 30 29 27 27 26
13 14 15 16 17 18 18 19 20 21 21 21 20 18 25 26 25 25 26 26 27 27 27 28 28 29 31 32 33 34 33 34 34 35 35 34 32 34 32 31 31 30 29 27 26
11 13 14 15 16 17 18 19 20 21 20 19 17 20 23 27 27 27 27 27 27 27 27 28 29 31 32 33 31 33 33 35 34 35 35 33 32 34 32 32 32 30 30 28 27
11 13 14 15 16 17 19 18 18 17 16 24 26 27 28 28 27 27 27 27 28 28 29 29 30 31 32 33 34 35 35 35 36 36 34 34 34 34 33 32 32 31 30 29 28
10 11 13 14 16 17 17 19 20 18 21 23 25 25 27 27 28 27 27 28 29 29 30 31 30 33 33 34 34 34 35 35 36 35 35 35 34 35 34 33 32 32 31 30 29
10 10 12 14 16 15 15 17 17 18 22 25 27 27 27 27 27 28 28 28 30 30 31 31 32 33 33 33 33 34 34 35 35 35 35 35 34 35 35 33 32 32 32 31 30
10 10 11 14 14 14 17 16 16 17 23 29 28 28 27 27 28 27 29 29 30 30 31 32 34 33 33 33 34 33 35 35 36 33 32 35 33 34 35 35 34 32 32 31 30
10 10 10 10 13 14 16 16 16 18 24 31 29 28 28 28 30 29 29 29 30 31 31 31 32 33 32 33 34 33 35 35 35 35 30 34 34 34 36 35 35 34 32 32 31
9 10 10 11 10 14 14 14 17 22 24 29 29 28 29 29 30 29 29 29 30 31 31 32 33 33 33 34 34 34 34 35 35 35 33 34 33 34 33 36 36 36 33 32 32
9 10 11 10 13 14 14 16 22 23 29 30 30 30 30 30 30 30 29 29 29 28 29 31 32 33 34 32 34 33 33 31 32 32 32 35 34 30 37 37 37 37 36 34 32
9 10 12 11 12 12 13 19 20 26 27 31 31 31 30 32 31 30 30 29 30 31 31 30 29 32 33 33 32 33 33 32 29 31 33 35 33 35 37 37 37 37 36 36 33
9 9 11 13 12 11 15 19 22 25 29 29 30 30 30 31 31 31 30 30 31 31 30 31 30 33 33 33 33 33 33 35 33 34 34 35 35 36 37 37 37 36 36 36 34
5 8 12 13 11 11 16 18 23 26 28 28 28 30 29 30 30 30 31 32 31 32 32 31 30 33 33 33 33 33 35 33 34 31 31 34 34 35 35 35 36 36 36 36 35
6 12 13 12 11 13 17 19 21 22 25 26 27 28 29 30 31 30 30 31 32 32 32 32 31 31 33 32 31 32 33 34 34 34 32 32 34 37 36 35 35 36 36 36 35
7 13 13 12 14 16 18 19 20 23 24 25 26 26 27 29 29 29 30 31 32 32 31 32 31 30 31 33 33 33 32 33 33 31 33 34 34 38 37 36 36 36 36 36 35
7 10 12 13 14 17 18 20 21 22 23 24 24 25 26 26 26 28 29 31 31 31 31 32 30 29 30 32 33 32 32 33 34 34 32 32 33 37 37 36 36 36 36 36 35
5 12 14 13 14 16 17 18 19 20 21 21 22 24 24 25 27 26 28 30 30 30 26 29 31 29 30 30 32 31 31 32 33 33 32 33 33 35 36 35 35 35 35 35 35
5 10 12 13 15 12 12 12 15 14 18 19 20 21 23 23 24 25 27 29 29 29 27 29 28 30 31 32 32 32 32 32 32 33 32 33 33 35 35 36 36 35 35 35 35
3 7 8 9 10 11 10 12 13 14 15 14 17 20 22 22 24 24 26 27 28 29 28 29 28 29 29 31 31 31 32 32 32 32 33 33 33 36 36 35 35 35 35 35 35
2 3 5 8 10 12 13 12 13 15 14 13 15 13 17 21 19 19 21 26 27 27 27 28 28 27 27 30 30 29 31 31 32 33 32 31 33 34 35 35 36 35 34 34 34

GFSSW_850_temp_006.txt.gz
Temp
18 18 18 18 18 19 19 20 20 20 20 21 21 21 21 22 22 23 23 25 26 26 27 25 25 27 29 29 31 32 31 31 31 33 33 33 33 32 31 30 28 27 26 25 24
17 17 18 18 18 19 19 19 20 20 20 21 21 21 21 22 22 23 26 25 25 26 26 27 28 28 30 31 32 33 30 30 30 33 34 34 33 32 31 30 30 28 27 26 24
16 17 17 18 18 18 19 19 20 20 20 21 21 21 21 21 22 26 27 25 26 26 26 28 29 30 31 32 33 32 29 32 33 32 33 34 33 32 31 30 30 27 26 25 25
15 16 17 17 18 18 19 19 19 20 20 21 21 21 21 21 25 26 26 26 26 26 25 27 30 31 32 32 33 34 33 32 34 34 33 34 33 33 32 31 30 28 26 25 26
15 15 16 17 17 18 18 19 20 20 20 21 21 21 21 21 24 26 26 26 26 26 25 28 30 31 32 33 34 35 34 34 35 35 34 34 34 33 33 31 30 28 26 25 26
14 15 16 16 17 17 18 19 20 20 21 21 21 21 21 23 26 27 26 26 25 25 26 28 30 31 32 33 34 35 36 36 36 35 35 34 34 33 32 31 30 28 27 26 26
13 14 15 16 17 17 18 18 19 20 21 21 21 20 19 23 27 27 26 26 26 26 27 28 30 31 32 33 34 35 35 36 36 35 35 35 34 33 32 32 30 29 27 27 26
13 14 15 15 16 17 18 18 19 20 21 21 21 20 20 26 27 26 27 27 27 28 28 29 29 30 31 32 33 34 35 34 36 36 35 34 32 34 32 32 31 29 28 27 27
12 13 14 15 16 17 18 19 20 20 20 21 20 19 24 26 26 27 28 27 28 28 28 29 30 30 31 32 32 33 33 33 35 36 35 34 31 33 33 32 31 30 29 28 27
10 11 13 14 15 17 19 20 21 21 19 19 19 20 23 27 28 28 27 28 28 28 29 29 30 31 31 31 30 32 33 34 34 35 35 34 25 25 29 33 32 31 30 29 28
10 11 13 14 15 16 19 20 20 18 16 22 25 25 29 27 29 29 28 28 29 29 29 29 29 29 31 32 33 34 34 34 36 35 35 33 23 21 25 32 33 32 31 30 29
10 10 12 14 15 17 17 18 21 20 21 23 23 25 26 29 29 29 29 29 30 29 30 30 29 31 33 33 32 33 34 35 36 36 35 35 28 26 30 33 33 33 31 31 30
10 10 11 14 16 16 16 18 20 19 21 24 25 25 26 27 29 30 29 29 30 30 30 29 31 33 33 33 32 33 33 34 35 36 36 35 34 33 34 34 34 33 32 32 31
9 10 10 12 15 16 18 19 19 19 21 27 30 28 28 28 29 29 30 30 30 30 31 31 32 33 32 33 33 32 35 35 35 34 32 34 31 32 33 34 33 33 33 32 31
9 10 9 10 12 15 17 17 18 19 22 33 32 30 30 30 31 31 29 30 30 30 31 30 32 32 32 33 34 33 35 35 35 34 33 33 32 33 34 33 34 34 33 33 32
9 10 10 12 9 16 16 16 18 21 23 31 31 30 30 31 32 32 30 30 30 31 31 32 33 33 34 34 34 35 34 34 35 35 32 34 32 33 34 32 34 35 34 34 33
8 10 10 10 13 14 15 17 20 22 30 30 31 31 31 30 31 32 30 30 30 28 29 31 32 34 34 33 34 34 33 31 31 32 32 35 32 32 34 35 35 30 32 34 33
8 10 12 12 11 14 14 18 19 25 26 32 33 32 30 31 31 31 31 30 31 31 30 29 29 32 34 33 33 33 33 32 29 31 32 35 34 35 36 35 34 32 28 35 34
8 9 12 12 13 13 15 17 21 23 28 30 31 31 31 31 32 32 31 31 32 31 30 31 31 34 34 34 34 33 32 34 32 33 33 34 36 37 38 35 33 34 37 37 35
5 6 12 14 15 14 15 16 21 24 27 28 28 30 30 31 31 32 31 32 32 33 32 32 30 34 34 34 34 34 34 32 32 30 30 33 33 35 35 36 35 34 35 37 36
6 10 14 15 15 14 16 17 19 20 22 23 24 26 29 31 32 31 32 33 33 33 33 32 31 32 34 32 32 32 32 33 33 33 32 31 33 37 35 36 36 36 36 37 37
6 11 15 14 15 16 16 18 18 20 21 24 24 25 26 28 30 31 31 32 33 34 32 33 31 30 32 34 34 33 33 32 31 30 33 33 34 38 36 37 37 37 36 36 36
6 9 11 13 14 16 17 18 19 20 21 22 23 25 26 26 26 28 30 33 33 33 32 33 31 30 30 33 34 33 33 33 32 33 31 31 33 37 36 35 36 36 36 36 36
4 10 12 14 14 16 16 17 17 19 20 21 21 22 24 24 26 26 27 30 32 33 27 31 31 30 30 30 33 32 33 33 33 31 32 33 33 34 35 35 36 36 36 36 36
5 8 10 10 12 12 10 12 13 15 17 17 17 18 20 21 23 24 26 27 30 31 30 31 28 30 31 32 33 33 32 33 32 32 31 33 33 35 35 35 34 36 35 35 35
2 6 6 8 10 12 11 10 12 12 15 15 13 14 15 14 14 13 17 24 27 30 30 30 27 28 29 31 32 32 33 33 33 33 32 33 33 36 36 36 34 35 35 35 35
2 2 3 5 10 11 12 12 10 13 12 13 14 13 12 14 12 13 16 19 22 24 28 28 28 27 27 30 31 30 31 32 33 33 33 32 33 35 34 34 35 34 34 35 34

GFSSW_850_temp_009.txt.gz
Temp
17 17 17 18 18 18 19 19 20 20 20 21 21 21 21 21 22 22 23 25 25 26 26 26 26 27 26 26 27 26 23 22 25 29 30 31 29 28 28 24 24 24 23 21 21
16 17 17 18 18 18 18 19 19 20 20 20 21 21 21 21 22 23 27 26 25 25 26 26 26 26 26 28 29 29 25 27 29 30 31 32 29 28 28 25 23 24 22 22 21
16 16 17 17 18 18 18 19 19 19 20 20 21 21 21 21 21 26 27 26 25 25 25 26 26 28 28 29 30 31 28 29 31 32 33 31 31 31 28 26 25 23 22 22 21
16 16 16 17 17 18 18 19 19 20 20 20 20 21 20 21 21 26 26 27 26 26 25 25 26 27 27 28 31 30 32 32 32 32 33 31 32 30 30 28 26 24 22 22 21
15 15 16 16 17 17 18 18 19 19 20 20 20 20 20 20 23 26 25 26 26 26 26 25 26 27 27 29 31 30 31 33 33 32 33 33 32 30 30 28 26 25 24 23 22
15 15 15 16 16 17 18 18 19 19 20 20 20 20 19 18 27 26 26 25 26 26 26 25 26 28 30 30 29 32 32 33 34 34 33 32 32 31 29 27 26 26 25 24 23
13 14 15 15 15 17 18 19 19 20 20 20 20 19 18 23 27 25 26 26 26 25 25 26 27 28 30 28 31 32 30 32 33 34 33 32 25 30 30 28 26 25 25 25 25
12 13 14 15 15 16 18 19 19 20 20 20 20 19 18 26 27 26 26 26 26 26 26 27 27 28 29 31 31 30 29 28 32 33 34 31 25 29 30 29 27 26 25 25 25
11 12 13 15 15 16 18 19 20 20 20 20 19 18 18 25 25 28 27 27 27 27 27 28 28 29 29 27 25 27 27 28 30 33 33 31 26 31 31 29 28 27 26 26 25
11 11 12 14 15 16 18 20 21 20 19 18 18 16 23 25 26 27 27 27 27 28 28 28 29 25 26 25 24 25 27 28 29 32 31 28 26 28 31 30 28 27 27 26 26
9 10 11 14 15 16 18 20 19 20 17 19 20 22 25 26 28 28 28 27 28 28 25 28 24 25 25 27 28 29 29 29 31 32 31 27 26 27 29 29 28 28 27 27 26
10 10 11 14 15 16 16 17 18 19 19 20 21 21 23 25 25 28 28 28 27 25 26 25 25 26 28 29 29 29 29 29 31 33 30 27 27 29 30 29 29 29 28 27 27
10 10 11 13 15 16 16 18 19 19 19 20 22 22 23 24 24 27 29 29 27 26 27 25 27 29 29 29 29 28 28 29 30 33 33 27 25 25 27 30 29 30 29 28 28
9 9 10 12 15 16 17 17 18 18 16 21 25 25 24 24 26 26 29 29 28 26 27 26 28 29 28 28 29 27 30 31 31 31 29 31 27 24 26 28 26 28 30 29 28
8 9 10 10 11 15 16 17 18 18 17 28 28 28 27 25 28 27 28 29 27 27 27 27 28 28 28 29 30 29 31 31 31 30 28 30 28 26 27 26 24 27 31 30 30
8 9 10 11 11 14 14 17 16 16 18 26 31 28 26 26 27 30 28 28 30 28 28 28 30 29 29 31 31 32 30 30 30 29 27 28 29 27 27 25 24 30 31 31 30
9 10 10 10 13 14 14 16 15 16 25 28 28 29 28 27 27 28 28 27 26 25 25 27 28 29 31 29 29 30 27 27 26 26 25 27 28 26 32 31 31 31 32 32 31
6 9 12 13 13 13 13 14 14 21 22 26 27 28 27 29 28 29 28 27 27 26 25 24 25 28 30 29 28 28 28 27 23 25 27 27 29 29 32 32 33 33 33 33 33
6 9 11 15 13 12 11 12 17 20 23 24 23 26 28 29 29 28 28 27 28 27 25 25 25 30 31 31 30 28 28 29 26 26 25 28 29 30 31 32 32 32 32 33 33
5 7 13 14 13 12 12 12 16 20 19 18 17 22 20 23 26 28 28 29 29 29 29 26 24 29 31 31 31 30 30 27 28 25 25 28 27 28 29 31 30 29 30 32 33
5 7 14 13 14 13 12 13 15 17 18 18 19 19 20 21 22 23 28 30 31 30 29 28 26 27 28 29 29 29 28 27 26 28 26 25 28 29 29 29 29 30 32 31 33
4 7 14 11 11 15 14 15 16 16 17 18 18 18 18 20 21 22 23 26 32 31 29 29 27 25 27 29 31 30 27 27 24 24 25 26 27 30 32 31 31 31 33 35 35
3 5 11 10 10 12 14 16 16 17 17 18 18 19 20 19 18 21 23 26 27 28 29 29 28 25 25 27 29 29 30 27 29 24 24 23 27 32 32 33 35 34 34 34 35
2 6 9 9 11 12 10 9 10 11 13 15 16 16 16 16 17 18 19 24 26 27 26 25 26 27 26 26 27 27 29 30 28 27 27 27 27 28 30 30 29 33 35 35 35
3 5 7 6 7 7 8 7 9 10 12 13 12 12 12 12 13 15 14 14 17 20 23 23 26 27 27 29 29 29 29 30 28 28 26 27 27 27 29 29 28 34 34 35 35
2 4 4 4 6 7 8 10 11 12 10 10 11 10 11 8 9 10 11 11 12 16 15 17 21 24 25 28 29 29 30 30 30 30 29 29 28 28 28 32 31 32 35 35 34
2 2 2 3 5 6 8 9 8 10 10 11 10 11 10 12 11 10 11 12 12 13 14 16 18 21 23 26 26 26 29 29 29 30 30 28 29 28 28 28 30 32 33 34 34

GFSSW_850_temp_012.txt.gz
Temp
16 17 17 17 18 18 18 19 19 19 19 20 20 20 21 21 22 22 23 26 25 25 24 24 24 24 22 21 22 23 22 25 23 26 27 26 25 24 24 22 23 23 20 20 20
16 16 16 17 17 18 18 18 19 19 19 19 20 20 20 21 22 24 26 26 25 25 24 24 24 24 23 24 23 23 22 25 27 26 27 26 26 25 23 23 23 21 20 20 20
15 15 16 16 17 17 18 18 18 19 19 19 20 20 20 20 21 26 26 27 26 25 24 25 25 24 24 25 26 26 25 27 29 29 29 27 26 25 23 23 22 21 20 20 20
14 15 15 16 16 17 17 18 18 19 19 20 20 19 20 20 21 26 26 26 26 25 24 24 24 24 24 24 27 26 28 29 31 32 30 27 27 25 25 24 23 23 21 20 20
14 14 15 15 16 16 17 18 18 18 19 19 20 19 19 19 23 26 26 25 26 25 25 25 24 25 24 25 27 26 28 30 31 32 31 29 28 26 26 24 22 21 21 20 21
13 14 14 15 16 16 17 18 18 19 19 19 19 19 18 16 26 26 25 25 25 25 26 25 25 25 25 26 26 29 29 30 31 32 32 30 29 29 25 24 22 21 21 21 21
12 13 14 14 16 16 17 19 19 19 19 19 19 18 18 22 25 25 26 26 26 25 25 25 26 26 26 26 29 29 27 28 29 32 30 30 27 26 25 24 22 22 21 21 22
11 12 13 14 15 16 17 19 19 19 20 20 19 18 18 24 25 25 25 25 25 24 26 25 26 26 25 27 27 27 26 26 29 30 30 29 25 26 25 24 23 22 22 21 21
11 11 12 13 14 15 17 19 20 20 20 20 19 17 18 23 24 27 26 26 26 26 25 26 26 26 26 25 22 23 24 25 27 29 28 27 25 27 25 25 24 24 22 22 21
10 11 12 13 14 15 19 19 19 19 18 17 16 16 22 25 25 26 26 26 26 27 25 26 26 23 21 21 21 23 25 25 26 29 29 26 25 27 26 25 25 24 24 24 23
9 11 12 13 14 15 19 19 18 18 16 17 18 21 23 24 25 26 27 26 25 26 23 25 21 22 22 22 24 25 25 24 27 29 27 26 26 27 26 25 25 24 24 24 25
8 10 11 13 14 15 16 16 14 13 13 18 19 19 22 22 21 26 27 26 25 23 23 22 22 22 24 24 25 25 25 25 27 28 28 25 27 27 27 26 26 25 24 24 24
9 10 11 13 14 15 15 16 15 16 15 18 20 20 21 21 19 24 25 27 24 23 23 22 23 25 25 25 25 25 25 26 25 27 29 26 25 26 27 27 27 26 25 25 25
9 10 10 11 14 14 16 15 16 17 13 17 19 22 21 23 21 26 25 26 25 24 23 22 25 25 26 25 25 22 27 28 27 26 25 28 24 24 25 25 25 26 26 25 25
8 10 10 10 10 13 14 15 17 17 16 24 24 25 23 23 26 26 27 26 25 24 23 23 25 25 25 26 26 25 27 27 27 26 25 26 24 24 25 25 24 26 27 26 26
7 9 10 11 11 13 14 15 16 15 15 21 26 23 21 23 25 28 26 26 28 24 24 24 27 26 26 27 27 27 27 26 26 25 22 24 26 23 23 26 27 28 28 27 27
6 8 11 10 13 13 12 14 13 13 20 24 22 22 22 22 24 25 26 24 24 21 23 25 25 26 26 24 25 25 23 23 23 24 23 24 24 26 26 28 28 29 28 28 28
6 7 11 13 13 12 11 11 11 17 18 19 17 20 23 23 23 25 23 24 23 23 21 22 22 25 26 26 24 23 24 24 22 22 23 24 23 25 26 29 29 31 30 28 28
5 7 12 12 11 9 9 8 11 15 17 16 16 18 18 21 18 22 23 24 25 24 22 19 22 25 27 28 26 26 23 26 22 22 22 24 26 26 27 27 28 29 28 29 29
4 5 12 9 9 9 6 8 11 15 15 16 14 17 14 16 17 17 18 24 26 26 26 23 21 24 27 27 27 25 25 25 19 23 24 24 24 27 27 27 26 28 28 29 29
4 4 12 9 10 9 6 7 12 14 15 14 14 14 15 15 16 16 17 21 24 26 26 25 22 24 25 25 25 25 25 23 23 23 24 21 26 26 26 26 25 28 30 31 30
3 1 9 8 6 7 8 9 13 13 14 14 15 15 15 16 15 16 17 19 21 21 20 24 24 23 25 25 27 27 26 23 25 22 22 27 27 30 27 27 25 27 30 31 31
2 2 8 7 3 4 5 8 10 11 10 10 13 12 13 13 13 15 15 18 14 15 14 18 24 23 22 23 23 25 26 27 19 21 24 22 25 26 27 27 30 29 30 31 30
2 1 6 6 6 4 5 7 7 9 11 12 11 11 10 11 11 10 12 13 13 15 15 14 17 21 24 25 25 24 26 26 26 26 25 25 25 27 27 29 26 29 32 32 33
2 2 4 1 4 4 5 6 6 7 10 10 9 10 9 8 8 10 11 10 12 14 12 11 12 19 19 24 27 26 26 27 25 26 26 27 23 24 24 24 27 32 31 32 34
2 2 2 2 3 2 5 6 5 6 7 8 8 9 8 7 9 8 9 8 9 10 10 10 11 14 17 23 27 27 27 27 27 27 27 25 25 24 26 29 27 30 32 32 32
2 2 1 2 2 1 3 5 6 7 6 8 9 8 8 9 8 11 11 10 9 9 10 9 11 12 13 20 25 25 28 27 27 27 27 25 25 23 24 24 25 30 31 32 31

GFSSW_850_temp_015.txt.gz
Temp
15 16 16 16 16 17 17 18 18 18 18 19 19 20 20 21 21 22 23 26 24 23 22 22 20 19 19 18 19 20 19 21 23 24 24 24 23 23 23 21 21 21 21 19 19
15 15 15 15 16 16 17 17 18 18 18 19 19 20 20 20 21 23 26 25 24 24 23 22 20 19 18 20 20 20 19 22 25 26 24 24 24 23 22 21 21 21 20 19 18
14 14 15 15 15 15 16 17 17 18 18 18 19 19 20 20 21 25 26 26 25 24 24 23 22 20 21 22 22 22 21 25 26 27 26 25 24 24 22 21 21 20 19 18 18
12 13 13 14 15 15 15 16 17 18 18 18 19 19 20 19 20 25 25 26 26 24 23 22 22 22 21 21 23 23 24 25 27 28 26 25 24 23 23 23 23 24 21 19 18
12 12 12 13 14 15 16 16 17 18 18 18 19 18 19 19 22 25 25 25 25 24 23 22 22 22 22 23 25 24 25 27 28 29 28 26 25 24 23 24 23 21 20 19 19
12 12 12 13 14 15 16 17 18 18 18 18 19 18 18 16 25 25 25 24 24 24 24 24 24 24 24 23 24 26 26 27 28 29 28 25 25 25 23 23 21 20 19 19 20
11 12 12 13 14 15 16 18 18 19 19 19 18 18 17 22 25 24 25 24 24 25 24 24 25 25 25 23 26 27 26 26 27 29 27 27 25 24 24 22 20 20 20 19 20
10 11 12 13 13 14 16 18 18 19 20 20 19 17 17 23 24 24 25 25 24 24 24 25 25 25 24 25 25 26 25 25 27 28 29 27 24 25 23 21 21 20 20 20 20
11 12 12 13 13 14 17 17 18 19 19 19 18 17 18 21 23 25 25 25 26 25 24 24 23 23 24 22 21 21 23 24 25 27 27 26 24 24 23 22 21 21 20 20 20
10 11 12 12 13 15 16 18 17 17 16 16 14 14 21 23 23 23 25 25 25 25 22 22 23 19 18 19 20 22 23 24 24 27 26 25 24 24 23 22 22 21 21 20 20
10 11 11 13 13 14 16 16 16 15 14 16 17 18 21 22 23 24 25 25 24 24 20 23 20 18 20 20 23 24 24 24 24 27 27 25 23 23 23 23 22 22 21 21 21
10 11 12 13 13 14 14 13 11 9 9 17 20 18 22 21 20 24 23 23 22 20 21 20 20 21 22 21 22 23 23 23 24 25 25 24 23 24 24 24 23 22 22 21 21
9 10 11 13 13 14 14 13 13 12 10 16 18 18 18 20 18 23 23 25 22 20 20 21 21 22 23 23 22 22 22 24 24 25 26 25 23 23 24 25 24 24 23 22 22
9 10 10 12 13 14 13 14 14 14 11 16 18 19 19 20 17 23 24 25 23 22 21 20 23 23 23 23 22 20 23 25 25 24 23 25 22 22 23 23 24 24 24 23 23
8 10 10 10 10 12 12 14 15 15 15 22 20 21 20 21 23 20 24 24 22 22 21 21 22 23 22 24 22 23 25 24 25 24 24 24 23 22 23 23 23 24 24 24 24
7 8 9 10 10 12 12 14 15 14 14 20 22 20 20 21 23 22 22 24 25 23 22 23 24 24 23 24 24 25 25 24 22 21 20 24 23 24 21 25 24 25 25 25 24
7 8 10 9 9 10 11 13 12 12 18 19 17 17 18 20 22 23 22 22 21 21 21 22 24 24 24 23 23 23 20 19 20 20 22 23 21 25 24 25 27 26 26 26 25
6 8 10 9 8 11 11 9 11 16 15 16 16 16 19 17 20 20 22 22 23 22 21 20 21 23 23 23 23 20 21 16 19 19 22 21 21 23 27 27 28 29 27 27 26
5 9 9 7 7 8 8 8 11 13 15 14 15 15 14 15 16 16 16 23 23 20 21 19 20 24 25 24 24 22 22 23 21 19 19 20 23 25 26 25 25 27 28 28 27
4 7 7 7 7 8 5 6 9 13 13 14 13 13 12 13 14 14 15 19 19 20 21 20 20 21 24 25 24 24 22 23 16 21 21 21 22 23 24 25 24 25 27 28 27
4 5 8 7 7 7 4 5 10 12 14 13 12 12 13 13 15 14 15 17 17 16 17 20 19 23 23 22 22 21 23 21 19 19 22 22 24 24 25 24 24 24 27 29 28
3 0 7 7 4 3 3 4 10 11 11 12 13 13 12 12 12 14 15 16 14 14 13 14 15 21 22 22 25 24 24 19 21 20 19 23 23 25 26 26 23 25 28 30 32
2 2 6 6 2 3 4 7 8 8 9 10 10 10 10 11 12 11 11 13 13 13 12 12 12 17 20 21 22 22 23 23 22 19 24 22 23 23 25 25 26 27 30 32 32
1 1 4 5 4 3 3 5 6 7 9 9 9 10 9 10 9 9 11 13 12 13 13 11 10 14 17 19 20 21 23 24 23 22 24 25 24 25 24 23 24 27 30 30 31
2 1 1 1 2 1 3 4 5 5 6 8 8 8 8 7 8 9 10 9 11 12 10 9 9 13 14 16 18 20 22 25 22 24 24 25 22 23 22 22 24 31 30 31 28
2 2 2 1 2 1 2 4 5 5 4 5 7 7 8 7 8 7 7 8 8 9 9 7 10 10 13 17 19 20 23 24 25 25 24 25 21 22 24 26 25 29 31 29 30
1 2 1 2 3 2 2 3 4 5 5 5 7 6 6 7 7 7 7 8 9 9 8 9 8 9 11 14 15 19 23 24 26 24 25 24 24 23 24 23 23 28 30 31 32

GFSSW_850_temp_018.txt.gz
Temp
14 14 15 15 15 16 16 16 17 17 18 19 19 19 20 20 21 21 22 24 24 23 22 22 20 19 18 17 18 19 18 19 23 23 24 21 22 22 22 20 20 20 20 19 18
12 13 13 14 14 15 15 16 16 17 18 18 19 19 19 20 21 23 25 24 23 22 22 21 18 17 17 18 19 18 17 21 23 24 24 23 23 22 21 20 21 20 20 20 18
12 12 12 13 13 14 15 15 16 16 18 18 18 18 19 19 20 25 24 24 24 23 23 21 19 18 18 19 19 20 19 21 25 26 26 23 23 23 21 20 21 19 19 19 18
11 12 12 12 12 13 14 15 16 17 17 18 18 18 18 18 20 25 24 25 24 23 22 20 18 18 19 19 21 20 22 23 24 26 25 23 24 23 22 22 22 21 21 19 18
11 12 12 12 12 12 13 14 15 16 17 18 18 18 18 18 22 24 25 24 23 20 21 21 18 19 19 20 21 21 23 24 25 26 27 25 23 23 22 23 23 20 19 18 19
11 11 12 12 13 13 13 14 14 15 17 17 18 17 17 14 23 23 24 24 23 21 20 21 20 21 22 22 21 24 24 25 26 27 27 24 24 24 24 22 21 19 18 19 19
11 11 12 12 12 13 14 15 15 17 18 18 18 17 16 21 23 23 23 24 24 23 21 22 24 22 23 23 25 25 24 24 25 26 26 25 23 23 23 22 20 19 18 18 19
11 11 12 12 13 14 15 15 17 18 19 19 18 17 17 22 23 22 22 22 22 23 23 24 24 23 23 24 24 24 24 24 26 25 26 25 23 24 24 21 20 19 18 18 18
11 11 12 13 13 14 14 15 17 18 18 18 17 16 18 20 22 24 23 23 23 22 22 22 22 22 22 21 20 20 21 23 24 26 25 24 23 24 23 21 20 19 19 19 18
11 11 12 13 13 14 14 15 15 14 15 15 13 14 19 21 22 22 23 23 22 22 20 21 21 17 16 18 20 20 22 23 25 27 24 23 23 22 22 21 20 20 19 19 19
10 11 11 13 13 14 15 15 14 13 13 15 16 16 20 22 22 23 23 23 22 21 17 20 17 18 17 19 21 22 23 24 24 26 26 23 23 21 22 21 21 20 20 19 19
9 10 10 13 13 13 13 12 9 8 7 16 18 16 19 19 20 22 22 21 21 19 18 17 19 18 19 19 21 22 22 21 23 25 26 24 24 22 21 22 22 21 20 20 20
9 9 9 12 13 13 12 11 10 10 6 13 16 16 16 18 17 21 21 22 19 18 18 20 19 20 21 20 20 19 20 21 23 24 24 23 22 22 22 22 22 22 21 21 20
9 9 8 9 12 12 12 11 11 12 9 14 16 17 17 18 16 21 23 23 21 21 18 19 21 21 20 21 21 18 20 23 23 22 21 23 20 21 21 21 22 22 21 21 21
9 8 8 7 8 11 10 12 12 12 14 20 18 19 19 19 21 18 23 23 20 19 19 20 20 21 21 22 21 22 22 22 23 22 22 22 21 21 20 20 21 22 22 22 22
9 8 6 7 9 9 11 13 12 12 13 19 19 19 18 19 20 20 21 23 23 21 21 21 22 22 21 22 22 22 24 20 18 18 19 21 21 20 19 22 22 23 23 23 22
8 8 7 7 6 8 10 12 11 11 16 17 16 15 16 18 20 19 19 20 20 18 18 21 22 22 22 21 21 22 19 17 19 18 21 20 20 24 22 24 24 24 24 24 23
7 7 7 7 7 8 9 9 10 14 14 14 15 14 16 14 16 16 18 20 20 20 18 20 19 22 22 22 20 19 18 16 18 17 21 19 20 21 24 24 26 26 26 25 24
6 8 7 7 7 8 8 7 9 11 13 12 13 14 14 14 15 15 15 20 21 19 20 18 19 22 22 22 23 19 20 19 18 18 18 18 20 24 24 23 23 25 26 26 25
5 6 7 6 8 8 4 5 7 10 11 12 12 12 12 12 13 13 14 13 14 16 16 20 19 21 23 24 22 20 19 20 14 19 18 19 20 22 22 24 23 22 24 27 27
4 4 6 7 6 6 3 3 6 9 10 10 10 11 11 11 12 13 14 13 13 14 13 12 18 21 20 21 23 20 19 18 18 15 17 18 21 19 23 21 23 24 26 29 28
2 -0 5 6 3 1 3 4 6 8 9 9 10 10 11 11 12 13 12 12 13 13 11 12 11 17 20 22 23 24 23 18 20 18 16 17 21 23 23 25 23 25 27 30 30
1 1 5 5 0 1 3 5 7 5 6 8 9 9 9 9 11 10 11 12 11 12 11 12 11 15 18 21 21 21 21 20 20 17 20 19 22 26 23 23 26 25 28 29 30
1 1 3 4 2 1 1 2 5 7 6 5 7 8 7 8 8 9 10 12 11 12 13 11 9 12 14 16 15 16 20 20 21 21 22 22 23 24 24 23 23 27 30 31 31
2 -0 1 1 1 2 1 2 4 3 5 5 5 6 6 6 7 8 8 8 10 11 10 9 11 12 13 13 15 16 17 18 19 22 21 23 23 22 21 20 23 31 30 29 30
2 2 1 1 2 3 1 2 4 4 4 4 4 4 6 6 6 6 5 7 8 8 8 6 10 10 11 14 15 15 17 18 19 20 20 22 20 21 23 26 24 27 29 28 31
1 1 1 2 2 1 1 3 3 3 4 4 3 4 5 6 6 6 7 7 7 7 7 7 8 9 11 13 13 15 19 20 20 21 22 21 22 23 22 20 21 26 29 30 31

GFSSW_850_temp_021.txt.gz
Temp
13 13 14 14 14 14 15 16 17 18 18 18 19 19 19 20 20 21 22 24 23 22 22 21 19 18 17 18 19 19 23 24 26 26 27 23 24 23 22 21 21 20 20 19 16
12 13 13 13 14 14 14 14 15 17 18 18 18 19 19 19 20 22 24 24 23 22 21 21 18 18 19 19 19 21 23 25 26 27 28 25 25 23 23 22 22 21 19 18 16
12 12 12 13 13 13 14 14 15 16 17 18 18 18 18 19 20 24 23 24 24 23 22 21 18 18 20 19 20 21 24 25 27 27 27 26 25 24 23 23 23 21 18 17 17
11 12 12 12 12 13 13 14 15 15 16 17 17 18 18 18 22 24 24 24 24 22 22 18 18 20 21 21 21 22 23 24 26 26 26 26 25 25 24 24 23 21 19 18 17
12 12 12 12 12 13 13 14 15 15 16 16 16 17 17 17 20 23 23 23 22 21 19 19 19 20 22 22 22 22 25 25 25 26 26 26 25 26 24 24 23 20 19 18 18
11 12 12 13 13 13 13 14 15 16 17 16 16 17 15 16 22 22 23 23 23 18 19 19 19 20 22 23 24 24 25 26 26 27 27 27 27 25 25 22 21 20 19 19 18
11 12 12 12 13 14 14 14 16 17 18 17 17 16 15 19 21 22 22 23 24 22 19 20 21 21 22 24 24 24 25 27 28 28 28 27 25 25 25 22 21 20 19 19 18
11 11 12 12 13 14 14 14 16 17 18 18 17 16 15 21 21 21 21 21 22 22 21 20 21 22 22 23 25 25 26 27 29 29 28 28 29 27 24 23 22 21 19 19 18
10 11 11 12 13 14 14 15 15 14 16 17 16 15 16 19 20 21 21 21 21 19 19 20 20 22 22 24 25 25 26 26 28 29 28 28 29 29 24 24 23 21 20 19 19
10 10 11 12 12 13 14 15 14 13 13 13 12 13 18 19 20 21 20 21 18 18 19 20 21 22 23 24 24 25 25 26 27 29 28 28 28 27 25 24 23 22 21 20 20
9 10 11 12 12 12 14 14 13 11 11 13 14 14 18 20 19 20 21 20 19 19 21 21 22 22 23 23 24 25 26 27 28 29 28 28 28 28 25 24 24 23 22 21 21
9 9 10 12 12 12 12 11 7 7 8 15 17 14 18 17 19 19 20 21 21 21 22 20 22 23 24 22 23 24 25 26 26 27 27 28 28 29 26 25 24 23 22 22 22
8 8 9 11 12 12 11 9 8 8 8 12 13 13 15 18 17 20 19 21 23 22 21 23 23 24 22 22 23 24 25 26 26 27 27 27 28 27 26 25 25 24 23 23 22
8 7 8 10 11 11 10 9 9 9 13 18 16 16 15 18 18 19 20 22 23 23 23 24 25 23 22 23 23 24 25 26 25 26 26 27 27 27 28 26 25 24 23 23 23
7 7 7 8 8 8 8 9 10 9 18 20 17 17 17 20 20 19 21 22 24 24 23 23 23 22 22 23 24 24 25 25 26 26 26 27 26 29 25 26 26 25 24 23 23
7 7 7 7 7 7 8 10 10 14 17 20 19 19 18 19 20 19 20 22 23 24 24 25 23 24 24 24 24 25 24 25 24 26 24 26 26 28 28 28 28 27 25 24 23
6 7 7 7 7 8 8 10 14 15 18 17 17 17 17 19 20 20 21 22 23 22 22 24 23 24 25 24 24 25 25 24 24 24 25 28 26 27 29 29 30 29 26 25 24
7 7 7 6 7 8 8 11 12 15 14 15 16 17 18 17 19 19 21 22 24 25 24 23 22 24 25 25 24 24 26 25 24 25 26 25 26 28 29 29 28 29 28 27 25
6 7 6 6 8 8 8 11 12 11 10 11 14 16 17 16 16 18 20 22 23 23 24 23 24 24 25 25 26 24 24 27 25 22 25 27 28 27 28 29 29 29 29 28 27
6 6 5 6 7 7 9 8 9 9 10 12 12 14 14 15 17 17 18 15 19 18 18 23 23 25 25 26 26 25 26 23 25 23 24 26 25 28 28 29 29 29 29 28 28
5 5 5 6 7 7 7 7 7 8 8 11 11 12 13 13 14 16 14 14 14 16 17 19 22 22 25 24 25 23 24 25 26 25 26 26 28 27 28 28 30 30 29 29 28
3 5 5 6 6 5 6 5 7 8 7 9 11 11 12 12 14 14 14 14 13 15 16 15 21 23 23 25 27 26 25 25 25 23 25 26 27 28 29 30 29 30 29 28 27
1 1 4 4 4 4 4 5 7 7 7 7 8 9 11 11 12 12 13 13 13 15 14 16 18 22 23 25 24 25 26 26 27 26 24 25 27 30 28 27 28 29 29 28 27
1 4 3 3 2 4 4 5 5 6 6 4 6 8 9 10 11 11 12 13 12 13 13 14 16 19 23 23 20 21 23 25 26 25 25 25 27 28 28 27 27 27 27 29 30
2 2 1 4 5 4 4 4 5 5 6 6 3 4 6 8 10 10 10 11 13 11 13 14 16 16 16 17 18 18 20 21 22 24 25 26 26 27 27 28 28 28 27 29 29
1 2 1 1 3 4 4 5 4 5 5 6 4 4 4 4 7 8 8 9 10 12 12 13 15 14 15 17 18 18 19 20 21 22 22 23 24 27 25 27 27 28 29 29 29
2 1 1 1 3 2 5 5 5 5 5 5 4 3 5 7 6 7 7 8 9 9 10 11 14 14 15 16 17 18 20 20 21 22 23 23 25 26 26 27 25 26 27 28 30

GFSSW_850_temp_024.txt.gz
Temp
13 13 13 13 13 13 14 15 15 16 16 17 18 18 19 19 19 20 21 23 23 22 22 19 19 20 21 22 22 23 28 30 30 31 30 28 29 27 26 25 25 24 24 21 19
12 12 13 13 13 13 13 14 15 16 16 17 18 18 19 19 19 21 23 23 22 22 20 20 20 21 22 24 24 25 29 31 31 31 31 29 29 27 27 26 25 24 23 20 19
12 12 12 13 13 13 14 14 14 15 16 16 17 18 18 18 19 23 23 24 23 23 21 21 22 22 25 25 25 27 29 31 30 30 30 30 29 28 28 28 26 24 22 20 20
12 12 12 13 13 13 13 14 15 15 16 16 16 17 17 17 24 22 23 24 24 21 21 22 22 23 26 26 26 27 28 29 30 29 30 31 30 29 28 29 27 24 22 21 20
11 12 12 13 13 14 14 15 16 16 16 16 16 17 16 16 20 22 23 23 23 20 22 22 23 24 27 28 27 27 29 29 29 29 30 30 30 30 29 27 26 24 22 21 21
11 11 12 13 13 14 14 15 15 16 17 17 17 16 15 18 21 21 22 23 21 21 22 23 24 25 26 27 28 29 28 29 29 31 30 31 31 29 29 27 25 24 23 22 22
11 11 12 12 13 14 14 15 15 16 17 17 17 16 13 19 20 20 19 20 20 21 22 23 24 24 26 28 27 28 28 30 31 31 31 31 31 30 30 27 26 25 24 23 22
11 11 12 12 13 14 14 15 16 16 17 17 17 15 16 19 20 20 19 20 21 21 23 23 23 24 26 27 27 29 29 30 32 32 31 31 31 32 29 27 27 26 24 24 23
10 10 12 12 13 14 14 15 15 15 15 16 15 12 20 19 19 19 20 20 21 21 22 23 23 24 26 26 28 29 30 30 32 32 32 32 32 33 29 28 28 26 25 24 23
10 10 11 12 13 13 13 14 13 12 12 12 10 13 17 21 20 20 20 21 20 21 21 22 22 25 27 27 27 29 29 31 31 32 32 32 32 33 31 30 29 27 26 25 24
9 10 11 12 12 13 14 11 13 12 12 17 20 20 20 20 19 20 20 21 21 21 24 23 25 25 27 28 29 30 30 30 31 32 31 32 32 32 31 30 30 28 26 25 25
8 9 10 11 12 12 12 11 7 6 10 14 15 17 18 18 21 21 21 22 23 23 26 25 24 27 28 28 28 28 29 30 31 32 31 32 32 33 32 31 30 29 27 26 26
8 8 10 11 12 10 8 8 6 7 12 17 17 17 17 18 21 22 21 23 25 25 25 26 27 27 27 27 27 27 28 29 30 31 31 31 31 32 33 32 30 29 28 27 26
8 8 9 11 10 9 9 8 7 7 15 23 19 18 18 20 21 22 21 24 25 25 26 27 28 27 27 26 27 27 28 29 29 30 29 32 30 32 33 32 32 30 29 28 27
7 8 9 9 8 8 7 7 7 8 20 23 21 18 19 22 25 22 22 23 26 26 27 26 26 27 26 26 27 27 30 29 29 29 29 30 30 31 33 32 33 32 31 29 28
7 8 8 7 7 7 7 7 7 15 19 23 21 21 21 21 24 24 22 24 25 27 27 27 28 28 28 28 28 28 28 28 28 29 28 30 31 31 32 32 33 33 31 29 28
7 8 8 7 7 6 7 9 15 18 22 21 21 22 23 23 23 24 23 23 24 24 25 26 27 28 28 27 28 27 27 27 27 28 28 31 30 30 33 34 33 34 33 30 29
7 8 6 7 6 7 7 13 14 19 17 18 18 19 20 23 23 24 24 24 25 27 28 26 25 27 28 28 27 27 28 28 26 28 29 31 30 32 34 33 33 33 33 32 29
8 7 7 7 7 7 9 13 15 13 13 13 17 19 22 21 21 23 24 25 25 27 27 27 27 29 28 28 29 27 28 30 30 30 30 32 32 33 33 33 33 33 33 33 31
6 7 8 7 7 8 12 12 12 12 12 14 15 17 19 20 20 22 24 22 26 27 27 27 27 29 28 29 29 29 29 28 29 27 27 30 31 31 32 31 33 33 34 33 32
6 8 7 7 8 11 12 11 11 11 11 12 13 14 16 17 18 21 22 18 20 25 22 26 27 28 29 27 28 28 28 29 30 30 29 29 32 33 32 32 32 33 33 34 33
6 11 7 7 11 10 10 9 9 11 11 12 13 13 14 15 17 19 19 18 16 19 21 24 26 27 27 29 29 29 28 29 28 27 29 30 32 33 33 33 33 33 33 33 33
6 7 7 7 9 9 9 10 10 10 9 9 10 12 13 14 15 16 16 16 16 19 20 22 24 25 27 28 29 28 29 29 29 30 28 29 30 33 31 31 31 32 32 32 32
5 9 9 8 7 8 8 9 9 9 9 9 5 9 11 14 15 15 16 16 16 16 14 16 23 25 27 27 27 27 28 29 29 29 29 30 31 31 31 31 31 31 31 31 30
5 7 5 7 7 7 7 9 8 7 9 9 5 4 5 10 13 14 14 15 16 15 18 19 21 21 25 23 24 28 28 29 28 28 29 30 30 31 31 31 31 31 30 30 30
5 5 4 3 5 7 7 8 8 7 8 8 7 5 6 5 7 8 11 14 15 15 16 18 19 19 21 22 22 23 24 26 28 29 29 29 29 32 31 29 30 29 29 29 30
3 3 2 4 6 7 7 6 6 7 7 7 8 8 8 7 7 8 10 11 12 13 14 16 18 18 21 22 22 22 23 24 25 26 27 26 28 29 29 29 29 29 29 29 29

GFSSW_850_temp_027.txt.gz
Temp
12 13 13 13 13 14 14 14 14 15 16 17 17 18 18 18 19 19 20 21 22 22 22 20 21 23 23 25 26 27 28 29 32 30 33 32 32 30 29 28 28 27 25 22 21
12 13 13 13 13 13 13 14 14 15 15 16 17 17 18 18 19 19 22 22 22 22 21 22 23 24 25 26 27 28 26 21 33 34 33 32 32 30 30 29 28 28 25 22 22
12 12 13 13 13 14 14 14 15 15 15 16 17 17 17 18 17 23 24 24 23 23 23 24 24 25 27 28 29 30 28 22 33 33 33 33 32 31 31 30 28 27 24 23 23
12 12 13 13 13 14 14 15 15 16 16 16 16 17 17 17 25 23 24 23 23 22 23 24 25 26 28 30 30 30 30 23 33 32 32 33 32 32 31 31 29 27 24 23 23
12 12 13 13 13 14 15 15 16 16 15 16 16 16 16 17 21 23 23 24 23 21 24 25 26 27 29 31 31 31 32 32 32 32 32 32 33 31 32 30 29 26 25 24 24
12 13 13 13 14 14 14 16 16 16 16 16 17 16 15 20 23 24 22 23 22 21 25 25 26 27 28 31 32 32 31 32 32 33 33 33 33 32 32 30 29 27 25 25 24
12 13 13 14 14 14 15 16 16 17 17 17 17 16 15 20 23 23 22 21 22 22 25 26 27 27 28 30 31 31 31 32 32 33 34 33 33 33 32 30 29 27 26 25 25
12 12 13 13 14 15 15 15 15 16 16 17 17 15 18 22 21 22 23 23 23 23 25 26 26 27 28 29 31 31 31 31 33 34 34 33 32 34 32 30 29 28 27 26 25
11 12 12 13 14 14 15 14 15 15 15 16 15 13 21 21 21 22 23 24 24 24 25 26 26 27 28 30 30 31 30 31 33 34 34 34 33 33 33 31 31 29 28 27 26
11 12 12 12 13 14 14 14 14 14 11 11 13 15 18 23 23 22 23 24 25 25 25 26 26 28 29 29 28 30 31 33 33 35 34 34 33 33 33 32 32 30 29 28 27
11 11 12 12 13 13 14 15 15 14 13 19 21 21 24 23 23 23 23 24 25 25 26 26 27 27 28 30 31 32 33 33 34 35 34 33 33 35 34 33 33 31 30 29 28
10 11 12 11 12 12 13 13 11 10 13 15 17 19 21 23 24 24 23 24 26 26 27 27 26 29 29 30 30 31 32 33 34 35 34 34 33 35 35 34 33 32 31 30 29
9 10 12 12 11 12 12 11 11 11 14 18 20 20 21 21 23 25 24 25 27 27 27 28 29 29 30 30 30 30 31 32 33 34 35 33 33 33 35 34 33 33 31 30 29
9 9 10 12 12 11 13 11 11 11 15 23 24 24 22 22 24 24 24 25 27 27 28 28 31 30 29 30 31 30 32 32 32 33 32 33 31 33 34 34 34 33 32 31 30
9 9 10 9 8 11 10 11 11 12 19 27 24 22 23 23 27 24 25 25 28 28 29 28 29 30 29 30 31 30 32 31 31 32 32 32 32 34 34 34 34 35 33 32 31
9 9 9 10 11 11 10 11 12 16 19 26 25 24 24 24 26 27 26 25 27 29 29 30 30 31 31 31 31 31 31 31 31 31 30 31 32 33 35 35 35 35 34 33 32
9 9 8 8 10 10 10 12 16 17 25 23 22 25 25 25 25 28 26 25 27 26 27 29 30 31 31 30 31 30 30 28 29 30 29 32 32 33 35 36 36 36 35 34 33
9 9 8 10 10 10 11 15 14 19 18 18 18 19 21 26 26 27 26 26 26 28 29 28 28 30 31 31 30 29 30 30 27 29 31 32 31 33 35 36 36 35 35 34 33
9 11 11 11 10 11 12 14 16 17 15 15 17 21 22 24 26 26 26 26 27 28 27 29 29 31 31 31 31 30 30 32 33 33 33 34 34 35 36 36 36 36 35 35 34
8 11 12 10 10 12 14 14 13 14 15 15 15 19 19 23 24 25 26 28 28 28 30 30 29 32 31 31 31 32 31 30 31 30 31 33 34 33 34 34 36 35 35 35 35
9 12 11 10 12 14 13 13 13 13 14 14 14 15 15 15 17 23 26 25 26 27 29 29 30 31 32 30 30 30 31 31 32 32 32 32 34 36 35 35 35 35 35 35 35
10 14 11 10 14 14 12 13 12 14 13 13 14 15 14 14 14 18 23 22 19 22 25 29 29 28 31 32 32 32 31 31 30 30 32 33 34 36 37 36 35 35 35 35 35
9 12 12 11 13 13 12 13 12 12 13 12 12 11 12 13 12 12 17 19 19 22 22 27 27 27 30 31 31 31 31 32 32 33 31 31 33 35 34 35 35 35 35 35 35
9 13 12 12 12 11 10 11 11 12 12 12 11 11 11 13 15 14 13 17 18 19 16 19 25 26 29 30 31 29 31 31 32 32 32 32 33 33 33 33 33 34 34 34 34
8 11 9 10 11 10 11 11 10 10 11 11 8 9 9 9 12 9 11 15 19 18 21 22 22 26 28 31 32 30 30 31 31 31 31 33 33 33 33 33 33 33 32 32 32
6 7 7 8 8 10 10 10 10 10 10 11 10 10 11 9 9 9 9 12 14 17 19 22 21 24 26 29 27 28 31 31 31 31 32 33 33 35 34 33 32 32 32 31 31
3 4 4 7 9 9 9 10 10 9 9 9 10 10 11 11 11 11 11 13 14 15 16 18 21 23 23 26 26 25 28 30 31 32 32 31 32 34 33 32 32 31 31 31 31

GFSSW_850_temp_030.txt.gz
Temp
13 13 13 13 14 14 14 14 14 14 14 15 16 17 18 19 19 19 20 22 22 22 22 20 21 22 23 25 24 25 24 24 24 27 26 32 32 29 29 29 28 26 22 21 20
13 13 13 13 13 14 15 15 15 15 15 16 16 16 17 18 19 20 23 23 22 21 21 22 23 24 25 26 27 28 19 21 26 26 28 31 32 31 30 30 28 24 22 21 20
13 14 14 14 14 14 15 15 16 16 16 16 16 16 16 17 17 22 25 24 23 22 21 23 24 25 26 27 29 29 23 26 27 27 32 31 32 32 31 30 27 24 23 22 20
13 14 14 14 14 15 15 16 16 16 16 16 16 16 15 16 23 24 24 24 24 23 21 24 25 26 28 28 29 30 24 22 26 28 33 30 28 32 30 30 28 25 24 23 21
13 13 14 14 14 15 15 16 16 16 17 17 16 16 15 15 19 23 24 24 23 21 22 24 26 27 28 29 30 31 27 27 26 28 34 29 24 27 27 30 28 26 24 24 23
13 14 14 14 14 15 15 16 16 16 16 17 17 16 15 17 22 23 23 24 23 21 23 25 27 27 28 30 31 32 33 30 28 29 34 34 30 28 29 30 28 26 25 25 25
12 13 13 14 15 15 15 16 16 16 16 16 16 15 13 19 24 25 24 23 22 22 23 25 27 28 28 30 31 32 32 33 33 34 34 34 34 32 30 30 28 27 26 26 26
12 13 13 14 15 15 16 15 16 16 16 17 16 14 15 22 24 23 25 24 23 23 24 26 27 28 29 29 31 32 32 31 33 34 34 34 32 33 29 31 29 28 27 26 26
12 13 13 13 14 15 15 16 15 16 15 15 16 13 20 23 22 23 24 25 24 25 25 27 27 28 29 29 29 30 30 31 32 34 34 34 33 34 31 32 30 29 28 27 26
12 13 13 13 14 13 14 16 16 16 13 12 13 15 18 23 24 23 24 25 25 26 26 27 28 28 29 29 28 29 30 31 31 34 34 34 33 33 32 26 31 29 29 28 27
12 12 13 13 13 13 14 16 16 15 15 16 20 20 24 25 25 24 24 25 26 26 26 27 27 28 28 29 30 31 31 32 33 35 34 34 33 33 30 24 26 31 29 28 28
12 13 13 13 13 13 14 14 14 13 15 16 17 18 19 22 25 26 25 26 27 27 28 27 27 29 30 30 30 30 31 32 34 35 35 34 34 34 30 23 24 29 25 29 29
11 12 12 13 13 14 15 14 14 14 15 16 18 19 20 21 23 26 25 26 27 27 27 27 28 29 29 29 30 30 30 31 33 35 36 34 33 34 34 34 33 32 28 31 29
11 11 12 13 13 12 15 13 14 14 15 20 24 23 21 23 24 25 26 26 28 27 28 28 30 29 29 29 30 29 31 32 33 33 32 35 31 33 34 34 34 33 33 32 30
11 11 11 10 11 12 13 13 14 15 15 28 27 24 25 24 27 25 27 26 27 28 28 28 29 29 29 29 31 30 32 32 32 32 33 33 33 33 34 34 34 35 33 28 31
10 10 10 10 11 13 13 13 14 16 16 24 26 24 26 26 26 28 26 26 27 29 29 29 30 31 31 31 31 32 32 32 32 32 31 32 33 33 34 34 35 35 34 33 32
10 10 10 10 11 13 13 14 15 15 21 21 19 20 21 24 26 27 26 27 27 25 28 28 29 31 32 31 32 31 31 29 29 29 29 32 32 33 35 35 36 36 35 34 33
11 11 11 11 13 13 13 16 13 17 15 17 18 18 20 23 25 26 27 26 27 27 28 27 27 30 32 31 31 30 31 29 27 29 29 31 31 32 35 36 36 36 35 35 34
10 10 13 13 13 13 14 15 12 14 14 15 17 18 19 20 19 25 26 27 27 28 27 28 28 31 32 32 32 30 30 32 31 32 31 32 32 34 35 36 36 37 36 35 35
9 9 11 13 13 14 16 14 14 15 15 16 14 16 14 16 16 17 23 29 28 28 29 29 28 31 31 33 32 32 32 30 31 28 30 32 33 33 33 34 35 36 36 36 35
9 14 14 13 14 15 15 15 15 15 15 14 14 14 13 10 13 14 19 24 23 28 29 28 29 30 32 31 30 31 31 31 31 31 30 31 34 37 34 34 35 36 36 36 35
8 14 14 13 15 16 15 14 14 12 14 15 15 15 12 11 11 11 14 15 18 21 24 29 28 28 30 33 32 32 31 31 30 29 32 32 34 36 37 36 36 36 36 35 35
8 12 14 13 14 14 14 14 14 12 13 14 14 14 13 11 9 10 10 12 15 19 20 22 26 27 28 32 32 31 31 32 32 32 30 31 33 36 35 36 36 36 36 35 35
7 12 12 11 13 13 13 13 12 12 11 13 14 13 13 11 12 8 9 12 14 17 18 20 22 26 28 29 32 30 31 32 32 30 31 32 32 33 34 34 35 35 35 35 35
7 10 9 10 11 12 12 12 9 11 10 12 12 11 12 11 10 11 11 12 12 16 19 22 22 25 28 31 32 31 31 31 31 32 31 33 33 32 33 33 34 34 34 35 34
4 4 5 7 9 11 12 11 11 12 12 11 11 12 13 11 10 9 10 11 9 14 16 20 21 24 25 29 30 30 31 31 32 32 32 33 34 34 34 33 33 32 32 32 32
3 2 2 6 9 10 11 11 11 11 11 11 10 12 12 12 11 12 12 13 13 13 15 17 19 21 23 26 27 28 30 31 32 32 33 32 34 34 33 33 32 32 32 31 31

GFSSW_850_temp_033.txt.gz
Temp
14 15 15 15 15 15 15 15 15 16 16 16 16 16 17 18 19 18 20 23 22 22 21 21 21 21 21 21 22 22 18 17 21 24 25 24 27 28 26 24 23 23 20 19 19
14 14 15 15 15 15 15 15 16 16 16 16 16 17 16 17 18 20 23 24 22 22 21 21 20 21 22 22 23 22 19 20 25 26 25 24 24 28 25 23 21 20 19 19 19
14 14 15 15 15 15 15 15 16 16 16 16 16 16 16 16 17 24 24 25 23 22 22 22 22 22 22 23 24 25 23 25 25 26 24 25 25 25 25 22 21 20 19 19 19
14 14 14 15 15 15 16 16 16 16 17 17 16 16 15 15 19 24 24 25 24 22 21 21 22 23 23 23 26 25 27 25 25 26 27 27 26 23 27 23 21 20 20 20 19
14 14 14 15 15 15 16 16 16 16 16 16 16 16 14 14 19 24 25 24 24 22 21 21 22 24 24 25 27 28 25 27 29 26 27 27 26 26 26 23 22 21 20 20 20
14 14 14 15 15 16 16 16 16 16 16 16 16 15 14 12 23 24 23 24 24 22 22 21 23 25 26 26 27 29 27 26 27 28 26 26 26 25 26 23 22 21 20 20 20
14 14 14 15 15 16 16 16 15 16 15 15 15 15 12 19 24 23 23 24 24 24 22 22 23 25 26 26 28 29 29 28 27 28 29 26 25 23 26 24 23 22 20 21 21
14 14 14 15 15 15 16 15 16 16 15 15 15 13 12 24 23 23 22 23 23 23 23 23 24 24 26 28 28 28 28 27 27 27 29 29 25 29 27 25 24 24 22 21 21
13 13 14 14 15 15 15 16 16 16 15 14 14 12 13 21 22 25 23 23 23 22 22 23 24 24 26 26 25 26 25 27 29 31 32 30 28 28 28 27 25 25 25 24 23
13 13 14 14 14 14 15 15 15 15 15 14 12 11 19 23 23 24 24 25 24 24 24 24 25 24 25 24 23 24 25 26 28 31 30 30 28 26 28 27 23 22 25 25 25
12 13 14 14 14 14 15 15 14 15 14 14 15 16 16 21 23 24 24 24 25 25 23 24 22 23 24 25 26 27 27 27 29 31 30 30 29 28 23 21 22 23 23 25 25
12 12 13 15 14 14 14 14 14 14 14 15 15 16 18 20 17 22 24 24 24 23 24 23 22 25 27 27 26 27 27 27 29 31 30 31 30 27 23 21 21 21 22 24 26
11 11 12 14 14 14 14 14 14 14 14 15 17 16 17 17 18 19 23 24 24 24 24 23 25 27 27 26 26 26 26 27 28 30 31 30 30 24 26 24 23 23 24 24 26
11 12 13 12 13 13 13 13 14 14 11 17 20 21 20 18 20 22 22 25 25 24 25 24 26 26 26 26 27 25 28 28 29 28 27 31 28 27 26 25 23 23 23 26 27
11 11 12 10 11 12 13 13 14 15 13 22 19 20 18 20 24 24 25 23 24 25 25 25 26 26 25 26 28 27 28 28 29 27 26 28 27 29 28 25 23 22 24 23 24
11 11 11 12 11 13 13 13 14 13 14 19 16 17 17 19 21 23 24 23 26 25 26 26 28 27 27 28 28 29 28 27 27 27 25 27 26 26 29 29 27 27 25 23 27
12 11 12 11 12 13 13 14 12 13 17 16 15 16 16 17 18 19 23 23 23 22 23 25 26 28 28 27 28 27 25 23 23 24 24 25 25 26 29 31 31 29 26 25 29
12 12 12 12 13 13 13 13 12 16 14 15 15 15 15 15 14 14 17 22 24 24 23 23 23 26 28 27 26 27 26 21 21 23 25 26 26 28 29 31 34 32 28 26 28
12 13 13 13 13 13 14 12 13 14 15 14 15 14 14 14 12 12 13 17 24 24 22 23 24 28 28 29 28 26 25 26 24 26 23 25 27 28 30 31 31 32 33 28 27
11 11 13 13 14 14 13 12 14 15 15 14 12 13 12 12 10 11 11 16 12 15 21 24 22 27 28 29 29 27 27 25 25 23 23 25 26 27 28 30 30 29 32 32 29
10 9 14 14 14 14 12 13 14 15 13 13 13 12 13 9 10 10 11 11 12 12 15 17 22 24 27 27 27 27 26 27 25 23 21 23 26 30 29 29 29 30 33 34 32
7 9 13 13 13 14 13 14 14 14 12 12 12 14 12 12 10 10 9 9 9 11 12 16 16 22 24 28 29 28 27 27 25 23 24 24 26 28 29 31 31 31 34 34 33
5 9 12 11 11 11 12 13 13 10 11 12 11 11 13 9 8 8 9 11 9 10 11 12 15 20 23 24 27 28 28 28 25 23 24 23 23 31 28 31 31 31 34 35 33
6 9 9 9 10 10 11 11 11 11 11 11 11 12 11 10 10 7 8 11 9 10 11 12 15 16 20 24 25 27 28 28 26 26 26 25 27 29 28 28 28 32 34 35 34
7 8 6 6 7 8 10 11 11 10 11 12 11 10 9 8 10 8 10 10 11 10 10 10 13 17 21 24 26 28 28 29 27 26 26 27 27 30 31 28 27 31 33 33 34
5 4 2 3 5 8 9 9 10 11 11 10 10 10 10 9 8 8 10 10 9 9 10 11 12 16 20 24 26 26 29 29 29 28 27 28 27 27 28 29 28 30 31 31 31
4 3 2 3 5 7 8 9 9 10 10 11 11 10 10 11 10 11 12 12 11 11 9 10 14 14 18 23 25 24 26 29 29 29 28 26 27 28 27 27 27 30 31 31 31

GFSSW_850_temp_036.txt.gz
Temp
14 14 15 15 15 15 15 15 16 16 16 17 17 17 17 17 18 18 20 23 22 21 22 21 20 19 19 19 20 20 18 18 19 20 18 18 22 23 22 21 22 21 20 19 18
14 14 14 15 15 15 15 15 16 16 16 17 17 17 16 17 17 19 25 23 22 21 21 21 20 19 19 20 20 21 17 19 21 23 22 18 21 20 22 22 21 19 19 19 19
14 14 14 15 15 15 15 16 16 16 16 16 17 17 17 16 17 23 24 25 23 21 21 21 21 21 20 20 20 21 19 22 23 23 25 24 23 23 21 20 20 18 17 18 18
14 15 15 15 15 15 16 16 15 15 15 15 16 16 16 16 19 23 24 24 23 21 20 21 20 20 20 20 22 21 23 23 24 26 26 26 24 23 24 22 20 21 19 18 18
15 15 15 16 16 16 16 16 15 14 14 15 15 15 14 14 20 23 24 23 23 21 21 21 21 20 20 22 22 23 24 25 25 26 26 27 25 25 24 22 20 19 18 18 18
15 15 15 16 16 16 16 15 15 15 16 15 15 14 13 11 24 23 22 23 24 22 21 21 22 22 22 22 22 25 24 26 27 26 26 26 25 25 21 20 19 19 19 19 19
14 14 15 15 16 16 15 15 15 15 15 15 15 14 11 20 23 22 21 22 23 24 22 22 22 22 23 23 24 25 24 26 26 27 26 26 26 24 21 20 20 19 19 19 19
14 14 15 15 16 16 15 15 15 15 16 16 14 12 12 23 22 22 21 21 21 23 24 24 23 22 22 24 24 24 24 24 27 28 27 27 25 24 21 21 20 20 20 19 19
13 14 15 15 16 15 15 15 15 15 15 15 13 12 14 20 21 21 22 21 21 22 22 22 21 21 22 21 20 22 22 23 26 27 28 27 26 24 22 21 20 20 20 20 20
13 14 15 15 15 14 14 15 16 15 15 13 11 11 18 21 20 21 21 22 21 21 20 21 22 18 20 18 20 21 22 23 25 27 27 27 26 23 22 22 21 20 20 20 20
13 13 14 15 15 14 14 15 13 14 13 13 14 14 14 17 18 21 20 22 21 21 18 20 19 18 20 21 22 23 23 24 26 28 28 28 26 23 23 23 22 20 21 21 21
12 13 13 14 15 14 14 13 13 13 13 17 17 15 15 17 15 22 20 21 21 20 20 19 19 21 22 22 23 23 23 24 26 27 26 26 26 25 24 23 23 22 22 21 21
12 12 13 14 14 14 14 13 13 13 12 14 17 17 17 17 15 18 18 21 21 20 21 20 22 23 23 23 23 23 22 24 24 26 27 28 25 26 25 24 23 23 23 23 23
13 13 13 13 14 13 13 13 14 13 8 13 16 17 16 18 17 18 19 19 22 21 22 21 23 23 23 23 24 22 25 25 25 25 23 27 24 22 23 23 23 23 22 24 24
13 13 14 12 13 13 13 13 13 13 13 17 15 16 16 16 16 17 17 19 19 21 21 22 23 23 23 23 25 24 25 25 25 24 24 25 24 21 23 22 21 22 22 23 24
13 13 13 13 13 13 13 13 14 10 12 16 15 15 15 15 16 14 14 16 21 20 21 23 25 24 24 25 25 26 25 24 24 22 21 24 24 23 22 23 23 24 23 24 23
13 13 12 13 14 13 13 13 9 10 14 14 13 14 14 14 15 13 13 12 13 17 19 22 23 24 25 24 24 24 21 21 21 21 22 25 22 25 25 26 25 24 24 24 24
13 13 13 14 13 13 12 9 10 14 13 13 12 13 12 14 13 12 12 10 12 9 17 20 20 23 25 24 24 23 23 20 19 19 22 22 21 24 26 28 28 25 26 24 24
13 13 13 14 13 13 12 7 10 12 13 12 12 11 11 12 12 11 10 10 11 9 8 17 20 24 25 26 25 22 23 21 19 20 20 23 24 26 26 26 27 26 25 25 25
12 13 12 12 13 13 9 8 11 13 12 12 10 11 10 10 10 9 10 12 11 10 9 10 14 23 24 26 25 25 23 22 18 20 20 21 22 26 26 26 24 26 26 25 24
11 9 12 12 13 13 7 8 12 11 12 10 10 9 10 10 10 9 10 10 10 9 9 9 10 19 23 24 24 23 24 23 22 18 20 20 24 25 25 24 27 26 28 26 25
8 4 11 11 10 8 7 10 12 10 11 11 11 10 10 8 10 10 9 8 9 9 6 9 9 10 19 23 24 26 23 23 23 20 18 19 25 27 28 27 27 27 27 26 26
6 7 11 10 5 5 7 9 11 9 9 10 10 10 10 8 8 8 8 9 9 8 6 6 9 8 17 20 22 23 24 24 20 19 21 23 25 26 26 26 27 29 28 27 27
5 3 7 7 6 6 4 6 8 11 10 11 10 9 9 8 8 8 8 9 9 9 7 6 5 7 11 16 17 22 23 24 25 23 23 23 25 26 25 26 24 28 30 30 29
5 4 3 2 4 3 3 6 8 8 10 10 9 9 8 7 8 8 9 10 9 7 6 5 5 8 11 14 16 18 24 25 24 24 24 25 25 24 24 23 24 28 30 29 29
4 4 3 3 3 3 5 6 7 7 8 8 6 8 8 6 7 7 9 8 8 8 6 7 6 8 11 18 19 22 24 24 26 26 23 22 24 24 27 25 25 26 27 27 28
3 3 2 2 3 2 5 6 6 8 6 8 7 7 7 8 9 9 9 9 9 8 7 7 6 7 10 16 22 22 20 23 26 26 26 23 24 26 23 21 20 25 27 27 28

GFSSW_850_temp_039.txt.gz
Temp
14 14 15 15 15 15 15 15 16 16 16 16 17 17 17 17 18 18 20 22 22 21 21 21 20 19 17 17 19 19 17 18 20 20 20 20 20 21 21 20 21 20 19 18 17
15 15 15 15 15 15 15 15 15 15 15 16 16 17 17 17 18 20 24 22 21 21 21 21 20 18 17 18 19 19 16 20 22 20 21 20 19 22 20 22 19 19 20 18 17
15 15 15 15 15 16 16 15 15 14 15 15 16 16 17 17 17 22 23 24 21 21 21 21 20 18 18 19 19 20 18 22 22 23 22 20 20 20 21 20 19 17 18 18 17
15 15 15 15 16 16 16 15 15 15 15 15 15 16 16 16 20 22 22 23 21 20 20 20 19 19 18 18 20 19 21 22 23 23 22 21 22 22 21 22 22 21 19 18 17
14 15 15 15 16 16 16 15 15 16 16 16 16 15 15 15 20 22 22 22 22 20 20 20 19 19 18 19 20 20 21 22 22 23 24 25 23 23 21 21 21 18 17 17 17
14 14 15 15 16 16 16 15 16 16 16 17 16 15 14 11 21 20 22 21 22 20 20 20 20 20 20 20 20 22 22 22 23 25 25 25 23 24 22 20 18 18 17 17 17
14 14 15 15 16 16 16 16 17 17 16 15 15 13 11 19 20 20 20 21 22 22 20 21 21 21 21 21 22 22 21 23 24 24 25 26 24 23 20 19 18 18 18 18 17
14 14 15 15 16 16 15 16 17 17 15 15 14 11 13 18 19 19 19 18 20 20 20 22 21 21 20 22 22 22 21 20 24 25 26 26 23 21 19 19 18 18 18 18 18
14 14 15 15 15 16 15 15 17 16 14 14 12 11 15 17 17 18 19 19 19 19 19 20 20 20 21 20 18 20 19 21 23 25 26 26 24 20 19 19 19 19 19 18 18
14 14 15 15 15 15 15 16 17 15 14 14 13 11 16 16 17 19 18 18 19 19 17 18 19 16 16 16 18 19 20 22 22 25 26 24 24 20 20 20 19 19 19 19 19
13 13 14 15 15 14 15 15 14 14 13 13 15 13 16 16 18 17 19 18 19 18 15 18 16 17 18 19 20 21 22 22 24 25 25 24 25 21 20 20 19 19 19 19 19
13 13 14 15 15 14 14 13 12 10 10 16 16 15 16 16 16 16 18 18 18 17 17 16 17 19 20 19 19 20 20 21 23 25 25 24 25 22 21 20 20 19 19 19 19
13 13 14 14 14 14 13 12 12 12 10 13 16 15 16 16 16 15 16 17 17 17 18 18 19 20 20 20 19 20 20 21 22 24 25 24 24 24 21 21 20 20 20 20 20
13 13 14 14 14 13 13 13 13 13 7 13 15 15 15 17 15 15 16 16 17 18 19 18 21 21 20 20 21 19 22 23 23 23 21 24 21 21 21 21 21 20 20 20 20
13 13 13 13 14 13 13 14 14 14 12 16 14 15 15 15 15 15 15 15 15 15 17 19 20 20 20 21 21 21 22 22 23 21 22 23 22 21 22 20 21 22 21 21 20
13 13 13 13 14 13 13 14 14 10 11 14 13 13 13 14 14 13 13 14 13 13 17 18 22 21 22 22 22 23 22 22 22 19 20 22 21 20 22 22 22 23 22 22 22
13 13 13 14 13 13 13 13 9 10 13 12 11 12 12 11 12 12 12 10 8 8 12 16 19 20 22 21 22 22 19 17 18 17 21 22 20 23 23 24 24 23 23 23 22
13 13 13 12 12 13 13 9 10 12 12 12 11 11 11 10 11 11 10 9 9 8 7 8 17 20 22 21 21 21 20 16 16 18 21 20 19 21 24 25 25 24 24 24 22
12 13 12 12 12 13 12 7 9 11 11 11 10 10 10 10 10 9 9 9 10 7 7 7 10 13 22 23 23 20 20 20 18 18 19 22 21 23 23 25 24 25 25 25 24
11 12 12 12 12 13 8 8 9 10 11 11 9 10 8 9 9 8 9 11 10 7 7 8 7 11 18 23 23 22 21 20 16 18 19 19 21 22 22 23 23 24 24 25 25
10 10 10 12 12 11 6 6 10 11 11 10 9 9 9 8 9 8 8 10 10 8 7 7 8 10 13 20 21 21 21 21 20 17 20 18 23 21 23 23 24 24 26 25 25
8 4 10 11 8 5 5 7 11 10 10 10 10 8 9 8 8 8 8 8 9 7 6 7 7 9 11 14 14 23 20 18 22 19 16 17 22 25 23 22 25 27 26 26 25
6 5 8 9 3 2 4 6 9 9 9 9 9 9 9 7 7 8 8 9 7 7 5 6 7 6 13 17 19 21 23 20 21 17 18 22 23 23 23 26 23 24 27 27 25
4 2 7 6 6 3 2 4 7 9 10 9 9 9 8 7 6 7 7 8 7 7 7 6 6 5 8 11 11 12 15 21 21 19 21 22 24 25 25 23 23 24 27 29 27
4 2 3 1 2 2 2 3 7 7 8 8 8 8 7 5 6 6 7 9 7 7 6 4 5 5 6 8 9 11 13 15 18 22 23 23 21 24 24 23 21 24 28 27 27
4 4 3 3 3 2 4 5 6 6 6 5 5 6 7 4 5 6 7 7 7 6 5 4 6 6 7 11 11 12 16 18 18 22 22 22 22 23 23 22 19 20 24 26 26
3 3 2 3 3 3 3 4 4 3 5 6 5 6 6 6 7 8 8 8 8 6 5 4 4 5 6 12 15 16 15 17 19 15 18 21 21 21 20 18 17 17 21 26 26

GFSSW_850_temp_042.txt.gz
Temp
14 14 14 15 15 15 15 15 16 16 16 16 17 17 18 18 18 18 20 21 21 20 20 19 18 18 17 17 18 19 17 17 20 20 21 19 21 20 20 20 20 19 18 16 16
14 14 15 15 15 16 15 15 15 15 15 16 16 17 17 18 18 20 21 21 21 21 20 19 18 17 17 17 18 18 16 19 21 21 21 21 21 21 21 21 18 17 18 17 16
14 14 14 15 16 16 16 15 15 15 16 16 16 16 17 17 18 20 20 21 20 21 21 20 19 17 18 18 18 19 17 20 23 21 22 21 21 21 21 20 19 16 16 17 16
14 14 14 15 15 16 16 16 16 16 17 17 17 16 16 17 20 19 21 22 20 20 20 19 18 17 16 17 19 19 20 21 23 23 22 21 21 21 21 22 22 20 20 17 16
14 14 15 15 15 16 16 16 16 16 17 16 16 16 16 16 18 19 21 21 20 19 20 19 17 18 17 17 19 19 20 21 22 23 23 23 22 22 21 21 21 20 17 16 17
14 15 15 15 15 16 16 16 16 16 17 16 16 15 14 14 17 17 19 20 20 19 19 20 18 19 19 18 18 21 21 21 22 22 23 23 23 23 22 20 19 18 16 16 17
14 14 15 15 15 16 16 16 16 16 16 16 15 14 13 15 16 17 17 17 19 20 19 19 20 20 20 20 21 21 21 22 22 23 22 24 22 21 21 19 17 16 16 16 16
13 14 15 15 15 16 16 15 16 16 16 15 16 13 15 17 17 17 18 18 18 18 18 18 19 20 20 20 21 20 21 19 22 23 24 24 21 21 19 19 17 16 16 16 16
13 14 15 15 15 16 15 16 16 15 15 15 14 12 17 17 17 18 18 19 18 17 17 18 18 19 20 19 17 17 18 19 22 23 25 24 22 20 18 18 17 17 17 17 16
13 14 15 15 15 15 15 16 16 15 15 15 14 13 17 15 16 17 18 17 17 17 16 17 18 15 13 15 15 17 19 20 22 24 23 23 22 19 18 18 18 18 17 17 17
13 13 14 14 15 14 15 15 15 14 15 13 14 15 15 16 16 16 18 17 17 16 14 16 14 16 17 17 18 19 20 21 22 24 23 22 23 19 19 18 18 18 18 18 18
13 13 14 14 14 13 13 13 11 10 10 15 15 15 15 15 15 16 17 17 17 15 15 14 14 17 18 17 18 18 19 20 22 24 23 22 23 20 19 19 19 18 18 18 18
13 13 14 14 14 13 13 12 12 13 10 14 15 15 15 15 15 14 15 16 16 16 15 14 16 18 18 17 17 17 17 19 21 23 24 22 22 20 20 20 19 19 18 18 18
13 13 14 14 14 13 13 12 12 13 8 13 14 14 14 15 14 14 15 14 16 17 16 15 18 19 18 18 17 15 19 20 21 21 20 23 20 20 19 19 19 19 19 19 19
13 13 13 13 13 13 12 12 13 13 11 14 13 14 14 14 14 13 14 14 13 14 15 16 18 18 18 18 18 18 19 19 20 20 21 22 21 20 19 18 19 19 19 19 19
13 13 13 13 13 13 13 13 13 10 11 13 13 12 11 12 13 12 13 13 12 11 13 15 18 18 19 20 20 20 20 18 19 17 18 20 22 19 18 20 20 21 20 20 20
12 12 12 12 12 13 13 13 9 9 12 11 11 10 11 10 10 10 10 7 7 10 8 11 15 18 20 18 19 19 19 15 15 16 19 20 21 21 21 22 22 21 21 21 20
12 12 11 12 12 13 13 9 10 11 11 11 11 10 10 9 9 9 9 8 7 7 7 7 13 17 18 18 18 19 18 14 15 15 19 18 18 20 24 24 23 23 23 22 21
12 13 11 11 12 13 13 7 8 10 10 10 10 9 9 9 10 8 7 8 7 7 7 6 8 11 14 17 20 18 18 18 16 15 16 21 19 22 22 24 23 24 23 23 22
11 11 10 11 12 12 8 7 8 10 10 10 9 9 8 9 9 8 8 9 6 7 7 7 7 9 12 15 18 19 19 18 15 17 16 18 18 22 21 21 22 22 23 23 23
10 10 10 11 11 11 6 6 9 10 11 9 8 8 8 8 7 7 8 9 9 7 7 6 6 9 10 13 17 18 19 19 19 15 18 16 18 20 21 23 21 23 23 24 24
7 4 9 10 7 3 3 4 8 9 10 9 9 8 8 7 7 7 7 9 7 7 6 7 6 7 9 12 13 11 17 17 20 17 14 16 21 23 22 21 23 24 25 26 25
4 5 8 9 3 1 2 4 6 9 8 9 9 8 8 7 7 7 8 9 7 6 6 5 5 7 8 13 12 14 17 18 16 19 19 20 19 22 22 22 24 24 26 27 27
4 2 6 6 4 2 2 3 6 9 9 8 8 8 7 7 6 7 7 8 6 7 8 6 5 6 7 10 8 8 11 17 16 20 20 21 21 21 22 22 23 24 26 26 26
4 1 2 1 2 2 3 3 4 6 7 7 7 6 5 5 6 5 6 7 6 7 6 4 5 6 6 6 7 8 9 11 12 16 20 20 20 21 21 21 20 26 27 28 28
4 3 3 3 3 3 3 3 4 5 4 5 4 6 5 4 5 5 6 5 6 5 5 4 4 6 5 7 8 8 11 12 13 15 18 20 20 18 21 21 18 17 17 19 22
3 3 2 3 4 4 4 4 4 4 3 4 5 4 4 5 6 6 6 6 5 4 4 4 4 4 4 9 10 10 12 14 14 13 14 18 17 15 17 16 15 15 15 16 20

GFSSW_850_temp_045.txt.gz
Temp
14 15 15 15 16 16 16 16 15 15 16 16 16 17 17 18 18 18 20 19 20 20 19 19 17 17 17 17 17 18 20 21 22 23 23 21 22 19 20 19 20 18 18 16 15
14 15 15 15 15 16 16 16 16 16 16 16 17 17 16 17 18 19 17 19 19 19 19 18 16 16 17 18 18 20 20 22 24 25 24 21 23 21 21 21 18 17 17 15 15
14 14 15 15 16 16 16 17 16 17 16 17 17 17 17 16 18 18 18 19 19 19 18 18 17 18 19 19 19 21 21 22 24 24 23 22 22 22 22 22 20 18 16 15 15
14 14 15 15 16 16 16 17 16 17 17 17 16 16 16 16 21 18 19 20 20 19 17 17 17 18 20 20 20 21 21 22 23 23 23 23 22 23 22 23 21 19 17 15 16
14 14 15 15 16 16 17 17 17 17 17 17 15 16 15 16 17 17 19 20 19 19 16 17 17 19 21 20 20 21 22 22 22 23 23 24 24 24 23 21 20 18 16 16 16
14 14 15 15 15 16 17 17 17 17 17 16 16 16 15 17 16 16 17 18 18 17 16 17 18 19 20 20 22 23 21 22 23 24 24 24 25 24 22 20 18 17 17 17 16
14 14 15 15 16 16 16 17 17 17 17 16 16 16 15 15 16 17 17 16 18 16 16 17 18 20 20 22 21 22 22 23 23 24 24 24 25 24 21 19 18 17 17 17 17
13 14 14 15 16 16 16 16 16 17 16 16 16 16 16 16 16 17 17 17 16 16 17 18 18 19 20 20 22 22 23 21 25 24 25 25 26 25 20 20 19 18 17 17 17
13 13 14 15 15 16 16 16 15 16 16 16 16 15 16 16 16 16 18 17 17 16 17 18 18 19 20 21 22 22 24 23 25 25 27 26 26 24 20 21 19 18 18 17 17
13 13 14 14 15 15 16 16 15 16 15 15 16 16 16 15 15 16 16 16 16 15 17 17 19 20 20 21 22 23 23 23 25 27 26 26 27 23 21 21 20 19 18 18 18
13 13 14 14 14 13 15 15 15 14 15 13 14 15 15 16 16 16 16 16 15 16 18 18 19 19 21 21 22 22 22 24 24 26 26 27 27 24 21 20 20 19 19 18 18
12 12 14 14 13 13 14 12 11 11 12 14 14 15 15 15 15 16 17 17 17 18 18 18 18 21 20 20 20 21 21 23 24 24 26 27 27 27 23 22 21 20 19 19 19
12 13 14 14 13 13 13 12 12 12 12 14 14 14 14 15 14 14 14 15 18 18 18 19 20 20 19 20 20 20 21 22 23 24 26 26 26 26 24 22 21 21 20 20 20
12 12 14 13 13 13 12 12 13 13 14 15 15 14 14 15 15 14 14 14 17 18 19 19 20 19 20 20 20 21 22 21 22 22 25 26 25 27 26 23 22 21 20 20 20
12 12 13 13 13 12 12 12 13 13 15 15 14 14 14 15 14 14 13 14 16 17 17 19 19 19 19 20 21 21 22 21 22 22 22 24 24 27 26 25 24 23 22 21 20
12 11 12 13 12 12 13 13 12 14 14 14 14 13 14 13 13 12 11 11 12 14 15 17 16 19 21 22 21 22 21 22 22 22 21 23 24 26 27 26 26 24 22 22 21
11 11 11 11 12 13 13 12 14 14 14 13 13 13 12 12 12 12 11 11 12 15 15 15 18 19 21 20 21 21 21 20 20 20 21 25 23 24 28 27 27 26 23 22 21
11 11 10 10 12 13 13 14 13 13 12 13 12 12 12 12 11 12 11 11 10 11 12 13 18 17 14 21 21 21 21 21 20 21 23 24 23 25 27 27 27 27 25 23 22
11 11 9 10 11 12 13 12 13 12 12 12 11 12 11 12 12 12 11 10 9 10 13 12 13 14 15 15 17 21 20 23 22 21 22 25 25 26 26 27 28 27 26 24 23
10 10 10 11 12 12 13 11 11 11 11 12 11 12 11 11 11 11 11 11 9 9 9 10 11 12 13 14 18 18 23 20 21 20 20 23 24 25 26 27 28 28 27 25 24
10 10 9 10 11 10 12 10 10 11 11 11 11 11 11 11 11 11 11 11 10 8 9 10 10 12 13 15 18 20 19 21 22 22 22 22 24 27 27 27 27 27 28 27 25
8 11 9 10 10 6 9 6 7 10 10 11 11 11 11 10 10 10 10 12 9 9 9 9 7 8 11 14 14 14 13 20 22 20 22 23 24 26 28 28 29 29 28 27 26
5 6 8 9 8 7 6 6 7 9 10 10 10 10 10 10 9 10 10 10 8 10 9 8 7 9 13 16 15 14 16 16 21 23 22 21 23 27 26 26 26 28 29 26 25
5 8 6 5 3 4 3 5 7 8 9 8 9 9 9 9 9 9 9 9 8 9 8 8 7 9 10 13 12 11 14 14 17 22 21 23 23 25 26 26 27 26 25 25 24
4 3 3 5 5 4 4 4 5 7 7 7 7 7 7 7 8 8 9 9 8 8 7 8 7 8 9 9 10 10 10 11 12 18 22 23 24 25 26 27 27 26 26 24 24
4 4 3 4 3 4 4 5 5 5 4 5 5 6 4 5 7 8 8 9 9 9 8 7 7 8 8 10 10 9 11 12 13 14 19 21 24 23 23 24 24 24 22 22 22
3 3 2 3 4 4 4 4 4 4 4 4 4 2 3 4 4 5 7 7 8 8 8 6 5 6 8 10 10 11 12 13 14 17 19 21 24 19 21 21 19 18 18 18 19

GFSSW_850_temp_048.txt.gz
Temp
14 15 15 16 16 17 17 17 17 17 17 17 17 17 17 17 17 18 18 17 19 19 18 18 18 19 20 19 21 21 24 25 27 27 26 24 23 21 20 21 22 22 22 20 17
14 14 15 15 16 17 17 17 17 17 17 17 17 17 17 17 17 16 17 18 19 19 18 19 19 19 21 22 22 23 26 27 28 29 28 25 23 24 24 24 22 21 20 18 17
14 14 15 15 16 16 17 17 17 17 17 17 17 17 17 17 15 18 17 18 19 19 19 20 20 21 23 23 24 25 26 27 28 27 27 26 25 25 26 26 24 22 18 17 17
14 14 15 15 16 16 17 17 17 17 17 17 18 17 17 17 24 17 19 19 19 19 19 20 21 22 25 25 25 25 26 26 27 26 26 27 26 26 25 26 25 22 19 18 18
14 15 15 15 16 16 17 17 17 17 17 17 17 17 16 16 18 17 19 21 19 17 19 20 21 23 25 26 25 26 27 25 24 25 26 25 26 25 26 25 24 22 19 19 19
14 14 15 15 16 16 17 17 17 17 17 17 17 17 15 21 16 16 17 16 16 18 19 21 22 23 24 25 26 27 26 25 25 27 27 26 28 26 27 24 23 21 20 20 20
13 14 15 15 16 16 16 16 17 17 17 17 17 17 18 17 16 17 16 16 17 18 20 21 21 22 24 25 25 26 26 27 26 25 28 27 28 28 25 24 23 22 21 21 20
13 14 15 15 16 16 16 16 17 16 17 17 16 17 18 16 16 17 16 16 16 18 20 20 20 22 23 24 25 26 27 27 29 28 28 28 28 29 25 24 23 22 21 21 20
13 14 14 15 15 15 16 16 16 16 16 17 16 15 19 17 18 17 17 17 17 17 18 19 20 22 23 25 26 27 28 28 29 29 30 29 30 28 25 25 24 23 22 21 21
13 13 14 15 15 15 15 15 15 17 16 17 17 18 18 17 17 17 17 17 17 18 19 20 21 24 24 26 26 28 27 30 29 29 30 30 30 28 26 26 25 23 22 21 21
12 13 14 14 14 14 15 15 16 16 17 17 17 18 17 17 17 17 17 18 18 19 21 21 22 23 25 26 27 27 28 29 29 31 29 29 30 30 27 26 25 24 23 22 22
12 12 13 13 13 13 13 14 12 12 17 15 15 16 16 16 19 18 18 20 20 21 22 22 22 25 26 25 25 26 26 27 29 29 29 30 30 31 29 27 26 25 24 23 22
12 12 13 13 13 13 13 12 13 12 17 17 16 17 17 17 18 17 17 19 21 22 23 23 25 25 24 23 23 24 25 26 27 27 28 29 30 31 31 28 27 25 24 24 23
11 12 13 13 13 13 13 13 13 13 19 18 18 17 17 17 18 16 16 17 21 22 23 23 25 23 23 23 24 25 26 26 26 26 27 29 29 30 31 29 28 26 25 24 24
11 11 13 13 13 13 13 13 13 12 19 18 18 15 16 18 17 17 15 18 21 21 21 23 23 23 23 23 25 24 26 26 25 26 26 27 27 30 32 30 29 28 27 26 24
11 11 12 12 12 12 13 13 13 18 19 17 17 17 18 17 17 16 16 16 16 20 21 22 21 22 24 25 24 24 24 25 25 26 25 27 28 30 31 31 31 30 28 27 25
11 11 12 11 12 13 13 13 18 18 17 17 17 17 17 17 17 17 17 18 20 20 20 21 21 23 23 24 25 24 24 24 24 25 25 28 27 28 31 33 32 32 30 28 26
11 11 10 10 12 13 12 17 16 18 17 16 16 16 17 16 16 16 16 18 16 18 20 21 21 22 19 22 24 23 25 25 24 26 27 28 27 29 30 31 31 31 31 29 27
11 9 10 10 11 12 14 17 18 17 17 16 16 16 17 16 16 16 16 16 16 16 18 19 20 19 19 20 21 23 24 26 26 28 28 30 29 30 31 31 30 30 30 30 28
11 9 10 11 12 12 16 15 16 15 15 15 15 16 16 16 15 15 16 15 14 14 15 16 17 19 18 19 20 21 26 24 25 23 24 27 28 29 29 29 30 31 30 30 29
8 12 10 11 11 14 16 16 14 14 13 14 15 15 15 15 15 15 15 15 14 13 14 15 15 18 17 20 22 22 21 23 25 25 25 25 28 30 30 30 30 31 31 31 29
9 16 9 10 14 13 14 11 9 13 13 14 14 14 14 14 14 14 14 15 13 13 14 15 15 14 17 20 20 19 20 23 23 23 25 26 28 32 30 31 31 30 31 31 30
9 10 9 11 14 13 11 11 10 12 13 12 13 13 14 13 12 13 14 14 12 13 13 13 14 13 17 19 19 18 20 20 21 23 23 25 26 29 29 29 30 30 30 30 30
9 14 11 9 6 7 7 9 10 10 11 11 11 12 12 12 13 12 12 13 12 12 10 11 13 13 15 17 16 15 17 19 20 20 22 23 25 28 28 29 29 29 29 30 31
8 9 6 8 8 8 8 8 8 8 10 10 10 10 9 9 11 11 11 11 11 11 11 12 10 12 13 14 14 15 16 16 16 17 18 22 24 26 28 28 29 29 29 28 28
8 7 5 5 5 8 8 8 7 6 6 7 8 8 6 6 9 10 9 11 11 11 11 12 10 12 12 14 14 14 15 16 16 16 17 18 20 24 28 27 28 28 28 28 27
4 3 4 4 6 7 7 4 5 5 6 6 6 5 4 5 5 4 8 7 7 10 10 9 10 10 11 13 14 14 15 15 17 17 17 18 21 25 27 27 27 27 27 26 25

GFSSW_850_temp_051.txt.gz
Temp
15 15 16 16 16 16 16 17 17 17 17 17 18 18 18 17 18 18 17 19 18 20 19 19 20 21 23 23 23 24 25 26 28 27 28 27 25 23 21 22 23 23 25 21 20
14 15 15 16 16 17 17 17 17 17 17 18 18 17 17 18 18 17 18 18 19 19 19 21 22 22 24 24 24 25 28 27 28 31 26 28 27 25 23 25 26 25 24 20 20
14 14 15 15 16 17 17 17 17 17 17 18 18 18 17 18 17 20 18 18 19 20 19 22 23 23 25 26 27 28 28 30 30 30 30 29 26 26 26 27 26 25 22 20 19
14 14 15 15 16 16 17 17 17 17 17 18 18 18 18 17 25 19 18 19 19 20 19 22 24 24 27 28 28 29 30 29 27 29 28 25 25 28 28 22 27 23 21 19 20
14 14 15 15 16 16 17 17 17 17 17 18 18 17 18 17 22 18 19 20 20 20 19 23 24 25 27 29 29 29 30 29 28 28 28 27 25 27 26 28 26 22 20 21 22
14 15 15 15 16 16 16 17 17 17 18 18 18 18 17 24 19 19 18 20 19 19 21 23 25 25 28 29 29 30 29 29 28 27 27 28 27 27 26 28 25 23 22 22 22
14 14 15 15 16 16 16 17 17 17 17 17 18 18 20 21 19 19 19 19 19 21 23 23 25 26 26 29 28 29 29 30 28 29 25 27 26 27 28 28 26 24 23 23 23
14 14 14 15 16 16 16 16 17 17 17 17 17 16 21 19 19 20 20 20 20 21 23 23 24 24 26 28 28 29 30 29 31 30 29 30 28 31 29 28 27 25 24 24 23
13 14 14 15 15 15 16 16 16 16 17 17 17 17 22 19 20 20 20 20 20 21 21 23 23 24 26 27 28 29 29 29 31 31 30 31 26 19 29 28 27 26 25 24 24
13 14 14 15 15 15 15 16 17 17 17 17 16 20 21 21 20 20 20 21 21 21 21 22 23 26 27 28 28 30 30 32 31 32 32 31 27 23 30 29 28 26 25 25 24
12 13 14 15 15 15 16 16 17 17 18 20 22 21 21 20 20 20 20 21 21 22 24 23 24 25 27 28 29 31 32 31 33 33 31 30 28 20 31 30 28 27 26 25 25
12 12 13 14 14 14 15 18 16 15 19 19 19 20 20 20 22 21 20 22 22 23 24 26 25 27 29 29 29 29 30 31 33 33 31 30 29 30 32 31 29 28 27 26 25
11 12 13 14 14 14 16 15 14 15 19 20 20 21 20 20 22 21 21 22 24 24 25 26 27 28 28 28 28 28 29 30 31 32 31 30 29 31 30 31 30 29 28 26 26
11 11 13 14 14 16 16 15 15 15 21 21 20 20 20 21 22 19 20 21 24 25 26 26 28 27 27 27 28 27 29 29 30 30 29 31 28 29 30 31 31 29 29 27 26
11 11 12 13 15 17 15 15 15 16 21 21 21 18 19 21 21 21 19 21 23 25 26 26 26 27 26 27 27 27 30 29 29 29 29 30 29 30 32 26 32 31 29 28 27
11 12 12 13 13 15 14 15 15 19 21 20 21 21 21 21 21 20 20 20 21 23 24 25 27 27 28 28 27 28 28 28 29 29 27 29 30 32 31 31 31 32 31 29 28
11 12 13 13 15 14 14 16 20 21 22 20 21 21 21 21 21 21 21 22 22 21 23 24 25 25 26 26 28 27 27 25 26 26 27 30 30 31 34 32 33 34 32 30 29
12 12 11 12 13 14 15 19 18 22 22 21 20 20 20 21 21 20 21 21 22 22 23 25 24 25 26 25 27 27 27 27 25 27 29 30 30 31 33 34 27 25 32 31 30
12 12 14 13 13 13 16 19 21 21 20 20 21 19 21 20 19 20 21 21 22 21 21 24 24 24 24 25 26 26 26 28 28 30 30 32 32 33 34 33 34 32 32 30 31
11 14 13 13 13 14 18 18 20 19 19 19 18 20 20 21 19 19 21 21 20 19 19 22 21 25 24 23 23 24 27 26 27 25 26 30 31 32 32 32 33 33 33 32 31
11 15 13 13 14 16 19 19 18 17 16 18 18 18 19 19 19 19 19 19 19 18 18 21 20 22 23 21 23 24 24 25 26 28 26 27 31 34 33 32 33 33 32 32 32
13 18 13 13 16 18 19 16 13 17 16 16 17 17 17 18 18 18 18 19 18 17 17 19 19 20 22 24 25 25 25 26 25 24 27 28 30 34 34 34 33 32 32 32 32
14 15 13 14 16 17 15 16 14 16 16 16 15 16 17 15 14 16 17 18 16 17 17 18 17 18 19 21 22 22 23 24 25 26 26 27 28 33 33 32 31 32 32 32 32
13 17 15 13 12 15 14 14 15 14 14 14 14 14 14 14 15 14 15 16 15 15 12 14 16 17 19 20 20 21 22 23 24 23 24 26 28 31 31 30 31 31 31 31 32
12 13 11 14 13 14 13 13 13 12 12 12 13 12 12 12 13 12 14 15 14 14 13 14 13 15 17 17 18 18 19 21 21 22 22 25 25 28 29 29 30 31 30 31 31
12 10 11 11 11 13 12 10 10 9 8 11 10 10 11 9 10 10 9 10 13 14 14 14 12 13 14 17 17 17 18 19 19 20 21 22 22 26 25 25 26 27 30 30 30
7 6 10 8 11 11 9 9 9 9 9 10 9 9 8 10 10 10 11 11 8 11 11 12 13 12 12 16 17 16 17 18 19 20 20 20 22 23 23 24 24 27 29 29 30

GFSSW_850_temp_054.txt.gz
Temp
15 15 15 16 16 17 17 17 17 17 17 17 18 18 17 18 17 18 19 19 20 20 20 20 20 21 22 24 25 25 23 24 23 26 21 23 24 22 23 21 22 22 23 22 21
15 15 15 16 16 16 17 17 17 17 17 18 18 18 18 18 18 15 19 19 19 20 20 21 21 22 24 25 26 25 25 27 25 26 26 23 26 25 24 24 24 24 23 22 21
15 15 16 16 16 16 17 17 17 17 17 18 18 18 18 18 16 21 20 20 20 21 20 22 23 24 25 26 27 27 27 29 26 27 25 26 28 26 25 26 27 24 22 21 21
14 15 15 16 16 16 17 17 17 17 17 18 18 18 18 17 24 20 20 20 20 21 20 21 24 25 26 27 28 29 30 30 30 27 29 23 21 25 20 19 22 24 22 21 21
14 15 15 16 16 17 17 17 17 18 18 18 18 17 17 16 21 20 20 20 21 21 19 21 25 26 27 29 29 30 31 30 30 27 28 25 22 21 21 23 24 23 22 21 22
14 15 15 16 16 17 17 17 17 18 18 18 18 17 17 21 21 21 20 20 20 20 20 22 25 26 28 29 30 31 31 31 30 30 29 28 22 21 22 24 25 23 21 21 22
14 14 15 15 16 16 16 17 17 17 18 18 18 17 15 22 21 21 21 21 20 20 22 23 25 27 27 29 29 30 30 31 31 30 30 29 28 28 25 23 24 23 22 22 23
13 14 14 15 15 16 16 17 17 17 18 18 18 17 20 21 21 22 22 22 21 21 23 25 25 26 27 28 30 29 30 29 32 30 29 29 27 28 25 19 25 24 24 23 23
13 14 14 15 15 16 16 17 17 17 17 18 18 18 23 21 22 22 22 23 22 23 23 25 25 26 26 27 28 29 28 29 31 32 31 30 28 24 20 18 26 25 25 24 23
12 13 14 15 15 15 16 17 17 17 18 17 17 19 22 23 22 22 22 23 23 23 24 24 25 26 26 27 26 28 29 30 31 33 33 30 27 23 21 18 27 26 26 25 24
12 13 14 14 15 15 17 17 17 16 17 21 23 23 23 22 22 23 22 23 23 24 24 24 25 24 26 27 29 30 31 32 32 34 32 30 22 23 22 22 26 27 26 26 24
12 12 13 14 15 16 16 17 18 18 20 22 22 21 22 22 24 23 22 24 24 24 25 26 24 26 28 29 29 29 29 31 33 35 34 27 22 22 23 21 24 28 27 26 26
11 12 13 14 15 16 17 17 17 18 20 23 22 23 23 22 24 24 23 24 25 24 25 25 27 28 28 28 29 29 29 30 31 34 34 33 22 20 23 24 19 29 28 27 26
11 12 12 14 15 16 18 17 17 18 20 23 23 22 21 22 24 23 22 23 25 25 26 26 28 29 28 28 29 28 31 30 31 31 31 32 29 23 23 23 17 18 28 27 27
11 12 13 13 15 16 17 17 17 18 20 23 23 20 22 23 22 22 22 22 23 26 26 26 27 27 28 28 29 28 30 30 30 30 30 31 30 31 27 22 18 19 29 28 27
12 12 13 13 15 16 17 17 18 19 20 22 23 22 22 23 23 22 22 22 23 24 26 26 28 29 28 29 29 30 29 29 30 29 28 29 30 31 31 25 22 20 23 26 28
12 13 13 13 15 16 16 18 19 20 25 22 23 23 23 23 23 23 23 23 23 22 23 25 26 27 28 27 29 29 27 25 26 27 27 30 29 31 33 31 24 22 21 23 28
12 13 14 13 15 16 16 19 18 23 24 23 23 22 22 24 23 23 22 22 24 24 24 24 24 26 27 26 27 27 27 26 24 26 27 30 29 31 33 34 28 24 22 23 29
13 14 14 15 15 15 17 19 21 22 22 22 23 21 22 23 22 22 22 23 24 25 22 23 24 28 28 27 27 26 27 28 27 29 28 30 31 32 34 34 33 26 27 22 24
13 14 16 15 15 16 19 18 21 21 20 21 20 21 21 23 21 22 22 23 23 22 21 21 21 25 26 26 27 26 27 26 27 24 25 29 30 32 32 33 33 27 25 24 23
13 16 16 16 16 17 19 20 20 19 18 19 19 19 20 21 21 21 21 22 21 21 20 20 21 23 26 24 24 24 24 25 26 26 26 26 29 33 33 33 33 28 25 28 25
14 18 16 16 18 20 18 18 16 19 18 19 19 19 18 19 18 19 19 21 19 20 19 20 20 20 22 26 25 24 24 26 24 23 25 27 29 34 33 35 34 34 33 28 26
14 17 16 16 17 18 18 19 17 17 18 17 17 18 17 17 15 17 18 19 19 18 18 19 18 18 19 22 25 24 25 25 26 26 25 25 27 32 33 33 34 34 33 33 25
13 18 17 17 17 17 17 17 17 16 16 16 16 16 16 16 16 15 15 18 16 17 14 16 17 17 18 21 20 21 23 23 24 24 24 26 27 30 27 26 26 28 29 32 32
15 16 14 15 15 16 16 16 14 13 14 14 15 14 13 13 14 15 16 15 14 15 16 16 14 16 17 18 18 19 20 21 23 23 23 25 27 28 23 23 24 25 26 27 31
12 13 14 13 14 16 14 13 12 13 12 14 13 13 13 12 13 13 14 13 13 15 14 16 14 15 14 16 17 18 19 20 21 23 24 24 24 26 26 25 24 25 25 25 26
11 11 13 12 14 14 12 12 12 11 11 12 12 11 11 12 12 13 13 13 14 13 13 14 14 13 12 15 16 16 18 19 20 21 21 21 23 24 24 24 24 23 23 23 23

GFSSW_850_temp_057.txt.gz
Temp
15 15 16 16 16 17 17 17 17 17 18 18 18 18 18 19 18 18 19 20 19 20 20 20 20 20 20 20 21 22 22 21 23 24 21 20 22 21 22 20 21 22 21 21 22
15 15 16 16 16 17 17 17 18 18 18 18 18 18 18 18 18 19 21 20 19 20 20 19 19 20 21 22 23 24 23 24 26 25 22 18 21 22 23 21 22 22 21 21 22
15 15 15 16 16 16 17 17 17 17 18 18 18 18 18 17 17 19 22 20 20 20 21 20 21 21 22 23 24 25 23 25 27 26 24 19 17 24 24 23 23 22 21 21 22
14 15 15 15 16 16 17 17 17 17 18 18 18 18 18 17 19 20 21 20 20 20 20 20 20 22 23 23 25 25 27 27 28 25 21 19 18 20 22 20 21 21 21 21 21
14 14 15 15 16 16 16 17 17 17 18 18 18 18 17 16 20 21 21 21 21 21 21 20 21 23 23 25 26 26 27 29 29 25 22 20 22 21 21 21 21 21 21 21 22
14 14 15 15 16 16 16 16 17 17 17 18 18 17 16 16 22 21 21 20 21 21 21 20 22 24 26 26 26 28 29 29 31 26 23 23 22 22 21 22 20 21 21 21 22
14 14 14 15 15 16 16 16 16 17 17 18 17 17 16 20 21 22 21 20 21 21 21 22 22 23 26 25 28 28 27 29 29 29 25 23 20 21 22 21 21 21 21 21 22
13 13 14 15 15 16 17 16 16 17 17 17 17 17 18 21 22 22 22 22 22 20 21 23 23 23 25 27 27 26 26 25 28 28 29 28 22 20 20 20 22 21 21 21 22
12 13 13 14 15 16 16 17 17 17 16 17 17 16 18 22 22 22 22 23 22 21 22 22 24 25 26 24 22 24 22 25 27 29 29 27 21 19 20 20 22 21 21 21 22
12 12 13 14 15 16 17 16 17 17 16 16 17 15 20 22 23 22 23 23 23 22 22 22 24 22 22 21 20 22 23 25 26 29 28 26 20 20 19 20 22 22 22 22 22
12 12 13 14 15 15 17 17 17 17 17 18 20 21 23 23 23 23 23 23 23 23 21 24 21 20 22 23 24 25 25 26 27 30 28 26 21 20 18 20 20 21 22 22 22
12 12 13 14 15 16 16 17 18 18 18 19 20 21 22 22 23 23 23 23 23 21 22 21 20 23 25 25 25 25 25 25 27 30 28 25 23 21 20 20 19 18 22 23 23
11 12 13 15 16 16 16 17 17 18 18 20 21 22 22 22 23 23 23 23 23 22 22 21 23 25 25 25 25 25 24 25 26 28 27 23 22 21 22 22 19 19 22 23 24
12 12 13 15 16 16 17 18 18 18 15 21 22 22 22 22 22 23 23 23 23 22 23 22 24 25 24 25 25 22 26 28 28 26 23 25 21 20 21 21 20 19 21 21 23
12 13 14 14 15 16 17 18 18 18 15 22 22 22 23 22 23 22 22 22 21 22 23 22 24 24 24 26 26 25 27 26 27 25 24 26 24 21 22 19 19 19 22 21 22
13 13 14 14 15 16 16 17 18 15 17 22 22 21 22 22 23 22 22 21 22 21 22 22 25 25 25 27 27 28 26 25 24 23 22 24 24 24 22 21 19 19 22 23 24
13 13 14 14 15 16 16 17 15 15 23 21 21 22 21 21 22 23 22 20 19 19 19 22 23 24 26 24 25 26 24 19 19 21 21 24 24 23 23 23 20 20 20 21 24
14 14 14 15 15 15 16 15 15 21 20 23 22 22 22 22 22 22 21 19 21 20 19 19 19 23 26 24 24 23 22 18 19 20 22 24 23 23 28 25 22 22 21 22 23
13 14 15 15 16 15 16 15 17 19 20 20 22 21 21 22 22 22 21 20 21 19 19 17 20 22 24 26 24 23 21 24 21 23 21 23 25 26 27 26 23 23 24 23 23
14 15 15 16 16 16 15 16 18 19 19 19 18 19 18 20 20 19 20 21 21 20 19 17 16 20 23 25 25 23 24 20 21 20 19 22 23 23 26 28 25 23 23 21 23
15 14 16 16 16 17 15 17 18 19 19 18 17 17 17 17 18 18 18 18 19 19 19 18 17 17 20 22 23 22 20 22 20 19 19 20 22 25 26 25 25 24 23 23 25
14 15 17 16 16 18 16 17 18 18 18 18 19 18 16 16 16 17 17 18 19 18 16 16 15 13 16 20 21 21 22 20 17 18 19 19 21 26 24 23 26 26 25 22 23
11 16 17 17 16 16 18 17 16 16 16 16 16 16 16 15 14 15 16 17 17 17 13 14 13 12 14 18 20 19 21 20 19 18 19 19 21 22 23 23 23 23 24 24 20
11 15 16 16 16 15 15 15 14 14 14 15 15 15 13 12 14 15 15 17 15 15 15 16 13 13 12 13 15 15 17 18 18 17 17 19 21 24 21 22 23 23 23 22 20
14 14 14 13 14 14 14 13 13 13 14 14 14 13 12 11 12 13 14 14 14 15 15 13 11 12 13 15 16 16 16 18 17 17 16 19 20 20 20 20 22 23 22 22 22
12 12 13 14 15 14 12 12 13 12 12 12 12 12 12 11 11 10 11 11 12 13 12 12 10 12 12 14 15 15 16 17 17 18 18 19 20 21 21 21 21 21 21 21 21
11 12 13 14 14 12 12 12 13 12 12 12 11 10 10 11 11 11 11 12 12 11 11 11 8 8 9 12 13 12 15 16 16 18 18 17 17 19 18 19 20 20 20 20 21

GFSSW_850_temp_060.txt.gz
Temp
15 15 15 16 16 16 16 17 17 18 18 18 18 18 18 19 19 19 20 21 20 20 20 20 20 20 19 19 19 20 19 20 23 24 21 19 20 20 21 20 21 21 21 21 19
15 15 15 16 16 16 16 17 17 17 18 18 18 18 18 19 19 20 21 21 20 20 19 20 20 19 19 20 20 20 18 21 23 23 22 20 20 22 21 21 22 21 21 20 19
14 15 15 15 16 16 16 17 16 16 17 18 18 18 18 18 19 21 22 22 20 20 20 20 20 19 19 20 21 22 21 23 25 22 21 20 20 20 23 20 22 20 21 20 19
14 15 15 15 16 16 16 16 16 17 17 17 18 18 18 18 20 21 21 21 21 19 19 19 19 19 20 20 22 21 24 25 25 22 20 19 20 21 22 22 22 21 22 20 20
14 14 15 15 15 16 16 16 16 16 17 17 17 17 17 17 20 21 21 21 20 19 20 20 19 19 20 21 22 22 24 25 26 21 21 22 19 20 21 20 22 21 21 21 20
13 13 14 14 15 16 16 16 16 16 17 17 17 17 16 15 21 21 21 21 20 20 20 20 20 21 21 22 22 25 25 26 23 20 19 19 21 20 21 19 20 20 21 21 21
13 13 13 14 15 15 16 16 16 16 16 16 16 16 15 21 21 21 21 21 20 21 21 21 22 20 21 22 25 25 24 25 25 21 21 21 20 21 21 20 20 20 21 21 21
12 12 13 14 14 15 16 16 16 16 16 16 16 15 18 21 21 21 21 21 20 21 22 22 21 21 21 22 24 24 23 23 25 22 22 24 22 20 20 20 20 21 21 21 21
12 12 13 14 14 15 16 16 16 16 16 16 15 14 18 21 21 22 22 22 22 21 21 22 21 21 22 21 19 19 21 23 24 26 22 21 19 20 21 21 20 21 21 21 21
12 12 13 14 14 15 17 17 17 16 16 16 15 14 20 21 22 22 22 22 21 21 20 21 21 19 18 18 17 20 21 22 23 26 24 22 20 19 19 20 21 21 21 21 21
12 13 13 14 14 15 17 16 17 16 16 17 18 19 21 22 23 23 22 22 22 21 18 21 18 17 18 19 21 22 22 21 24 26 26 22 20 20 19 20 20 20 21 21 21
12 12 13 14 15 15 16 16 17 17 17 18 19 18 20 20 22 23 22 22 21 19 20 19 17 19 22 22 22 22 21 21 23 25 24 20 19 19 19 20 21 20 20 21 21
12 13 14 15 16 16 16 17 18 17 16 18 19 20 21 22 22 22 23 23 21 20 20 18 20 22 22 22 22 21 20 21 22 25 22 21 19 18 18 19 21 21 21 21 22
12 13 14 16 16 16 16 17 17 18 11 16 19 21 21 22 21 23 22 22 22 20 20 19 22 22 22 21 22 19 22 24 25 24 21 22 20 18 18 18 18 19 21 21 21
12 13 14 14 15 16 16 17 17 18 15 20 20 22 22 22 22 21 22 22 20 20 21 19 21 21 22 22 22 22 23 23 25 23 22 23 21 19 20 19 18 18 20 21 21
13 13 14 14 15 16 16 17 17 12 14 20 21 20 20 21 22 22 22 22 21 20 20 19 23 23 22 24 24 25 23 22 19 19 19 21 22 17 19 19 19 19 18 18 21
13 14 14 14 15 16 16 16 11 13 18 19 19 20 19 19 20 20 20 19 17 18 18 19 21 22 24 23 22 23 18 17 19 18 18 20 21 21 21 23 20 20 20 20 21
15 15 15 15 15 15 16 12 13 18 17 18 20 19 18 20 20 21 20 17 19 18 16 17 18 21 21 23 22 22 18 17 19 18 18 21 21 23 22 24 22 21 22 22 23
15 15 15 16 16 16 15 11 13 15 17 17 18 16 15 17 19 20 19 15 17 16 16 15 18 19 22 21 23 22 20 19 18 18 18 19 21 24 24 23 21 22 22 21 23
15 15 16 16 16 16 11 12 15 17 17 16 14 15 14 15 15 15 15 16 17 17 16 16 16 17 20 20 20 22 21 20 15 18 19 19 21 20 20 20 21 21 21 22 21
15 16 16 16 16 16 12 15 16 16 17 15 14 13 13 13 14 14 14 16 17 17 15 13 13 14 17 15 16 16 16 17 16 15 16 17 19 22 20 21 20 21 21 22 21
15 12 17 17 14 12 11 14 16 14 15 14 14 13 13 13 13 13 13 14 16 15 13 13 11 12 15 16 17 18 14 13 14 18 14 15 18 21 21 21 21 21 23 22 21
14 14 15 17 10 9 13 13 13 13 12 13 12 12 11 11 12 13 14 14 15 13 12 12 10 10 13 13 13 14 14 13 12 12 15 16 17 20 21 21 21 21 20 21 21
14 10 15 15 14 11 11 11 12 13 12 13 12 11 10 9 10 11 11 14 14 14 14 14 9 10 9 12 12 13 14 14 12 11 13 15 17 16 18 19 20 20 21 19 18
13 11 12 9 10 10 11 11 11 10 11 11 10 10 9 8 8 8 9 9 12 12 12 9 9 11 11 13 13 13 14 14 13 14 14 15 15 17 17 18 20 20 20 20 18
12 12 13 12 12 10 8 9 10 10 10 10 9 10 9 8 9 8 8 8 9 9 9 7 8 8 9 12 12 12 13 14 14 15 15 15 15 15 17 18 18 19 19 17 17
12 12 12 11 9 8 9 10 10 10 11 11 10 9 8 9 10 10 10 10 10 9 8 8 7 6 8 9 10 10 12 13 13 14 15 13 13 15 13 15 16 15 14 14 15

GFSSW_850_temp_063.txt.gz
Temp
14 15 15 15 15 16 16 16 16 17 17 17 17 18 18 18 19 19 20 21 20 20 20 19 19 19 18 18 19 20 19 19 21 22 21 20 19 19 20 21 22 21 19 18 17
14 14 15 15 15 15 16 16 16 16 17 17 17 18 18 19 19 20 21 21 20 20 20 19 19 18 18 18 19 19 18 19 21 23 21 20 21 19 21 21 22 20 20 17 17
13 14 14 14 15 15 15 15 16 16 16 17 17 17 18 18 19 21 21 21 20 20 19 19 19 18 18 19 19 20 20 22 24 22 22 21 21 21 22 21 21 19 18 17 17
13 14 14 14 14 15 15 15 15 16 16 17 17 17 18 17 20 21 21 21 20 19 19 19 18 19 18 19 20 19 22 23 24 22 21 20 21 21 21 22 22 21 19 17 17
13 13 14 14 14 14 15 15 15 15 16 16 16 17 17 17 21 21 21 20 20 19 19 19 18 19 18 19 20 20 22 23 24 24 23 21 20 21 20 21 21 20 18 18 17
13 13 13 14 14 14 15 15 15 16 16 16 16 16 16 15 21 21 21 20 20 19 19 19 19 20 20 20 21 23 23 23 24 23 22 21 20 21 20 21 20 20 19 18 18
12 12 13 13 14 14 15 15 15 15 16 15 16 16 16 21 21 21 21 21 20 20 19 20 19 20 20 20 22 23 21 22 20 20 20 21 21 21 20 19 19 20 20 19 18
12 12 13 13 14 14 15 15 16 16 15 15 15 15 18 20 20 20 20 20 20 19 19 20 20 19 20 21 22 22 21 22 21 20 21 20 21 19 19 19 18 19 20 20 19
12 12 13 13 14 14 15 15 16 16 15 15 15 14 18 20 20 21 21 21 20 19 19 20 20 20 21 19 17 18 20 22 22 20 21 20 20 20 19 19 19 19 20 20 20
12 13 13 13 14 15 15 16 16 16 15 15 14 14 20 21 22 22 22 21 21 19 18 19 20 17 15 16 16 20 21 21 22 21 20 19 19 20 20 20 19 20 20 21 21
13 13 14 14 14 15 16 16 15 15 15 17 17 17 19 20 22 22 22 21 21 19 16 19 17 16 17 17 19 21 21 20 21 23 24 19 20 19 20 20 20 20 20 21 21
13 13 14 14 15 16 16 16 15 15 15 17 18 17 19 19 19 22 22 22 20 18 18 16 16 18 20 20 20 21 20 20 21 23 21 21 19 19 19 20 20 20 20 20 20
12 13 14 15 15 15 16 15 16 17 14 17 18 18 20 20 21 22 22 22 19 19 18 17 19 20 20 20 21 20 19 20 20 22 21 19 20 19 18 19 20 20 20 20 20
12 13 14 15 15 16 15 16 17 17 10 14 17 20 21 21 21 22 22 22 20 19 19 19 20 21 20 20 19 18 20 21 22 21 20 21 19 19 18 17 19 19 20 20 20
12 13 14 14 15 15 15 17 17 17 14 18 19 21 21 21 21 21 22 22 19 20 18 19 20 19 20 20 20 19 21 21 21 21 21 22 20 18 17 18 18 19 19 20 20
13 14 14 14 15 15 16 17 17 12 15 19 20 20 19 20 21 21 22 22 21 20 19 19 21 21 20 21 21 23 22 20 17 16 18 19 20 17 18 19 19 19 19 19 20
14 14 15 15 15 16 16 17 11 12 16 17 18 19 18 19 20 20 20 18 17 17 18 19 20 21 22 21 21 20 17 17 18 17 18 19 19 20 19 20 21 20 20 19 20
15 15 15 16 15 16 16 12 12 16 15 16 17 16 16 18 19 19 16 13 15 17 14 15 18 21 21 21 21 18 17 16 18 16 18 18 20 22 20 21 21 21 21 21 20
15 16 16 15 16 16 16 10 12 13 15 15 15 13 13 15 16 16 14 12 15 14 15 15 17 17 20 20 19 20 19 18 14 15 17 17 20 22 20 19 19 21 20 20 20
16 16 15 16 16 16 11 12 13 14 14 14 13 13 12 13 14 14 12 14 14 14 14 15 16 16 17 18 18 18 19 18 14 16 18 18 18 17 17 18 18 19 20 20 20
16 16 16 16 16 16 9 13 13 14 15 13 12 12 12 11 12 12 11 14 14 14 13 12 13 15 16 15 15 13 12 11 13 14 15 16 16 20 17 17 17 18 20 20 20
15 10 15 16 13 9 8 11 14 12 14 12 12 11 11 10 10 12 11 12 14 13 12 12 9 12 14 13 15 14 12 10 11 15 12 14 15 16 16 17 18 18 20 21 21
15 14 15 17 10 7 11 12 12 11 10 11 10 10 10 9 10 10 12 13 13 12 11 12 8 10 13 12 11 12 12 12 9 8 11 14 15 17 16 17 18 17 17 18 19
14 9 14 13 12 9 10 9 10 12 11 10 9 9 9 7 7 9 10 11 12 12 13 12 6 8 9 11 11 12 12 12 10 9 10 13 13 14 14 15 17 16 16 16 17
13 10 10 7 9 8 9 10 10 9 10 10 9 8 8 6 7 7 8 8 11 10 10 8 7 9 10 10 12 12 12 12 12 13 12 12 13 14 13 13 15 15 14 15 15
12 11 11 10 10 8 6 9 9 9 9 9 8 9 7 7 8 7 8 7 8 8 7 6 7 8 8 9 10 11 12 13 13 13 13 13 14 13 14 14 13 12 13 12 13
12 11 12 8 7 7 8 10 10 9 10 10 10 8 8 9 9 9 9 9 9 9 7 6 6 6 7 7 9 9 10 11 12 13 13 12 11 9 9 10 9 10 10 10 11

GFSSW_850_temp_066.txt.gz
Temp
14 14 14 14 15 15 15 16 16 16 16 16 17 17 17 18 18 19 20 21 20 20 19 19 19 19 17 17 18 19 19 18 21 22 20 19 20 18 20 20 21 20 17 16 16
13 14 14 14 14 15 15 15 16 16 16 16 16 17 18 18 18 20 21 21 20 20 19 19 19 18 17 18 18 18 18 19 21 22 21 20 20 19 20 21 18 17 17 16 17
13 13 14 14 14 14 15 15 15 16 16 16 17 17 17 18 19 20 21 21 20 20 20 19 19 17 18 18 19 19 18 21 22 22 21 21 20 20 21 20 19 16 16 16 17
12 13 13 13 14 14 14 15 15 16 16 16 16 17 17 17 20 20 21 21 20 19 19 19 18 18 17 17 19 18 21 21 22 22 21 20 21 20 21 21 20 20 18 17 17
12 12 13 13 13 14 14 15 15 15 15 16 16 16 17 17 20 20 21 20 19 19 19 19 17 18 17 18 19 19 21 22 22 22 22 21 20 21 21 21 21 18 17 16 17
12 12 13 13 13 14 14 14 15 15 16 16 16 16 16 15 20 20 20 20 20 19 18 19 18 19 19 19 20 21 21 22 23 23 22 21 20 21 20 20 18 18 17 17 18
12 12 13 13 13 14 14 15 15 15 15 16 15 15 16 19 19 20 20 20 19 19 19 19 19 19 19 20 21 22 20 21 22 20 20 21 19 20 20 19 18 17 17 17 18
12 12 13 13 13 14 14 15 15 16 16 15 15 15 18 19 20 20 19 19 18 18 19 19 19 19 19 20 21 20 20 21 21 20 20 21 20 19 19 17 17 17 18 17 18
12 13 13 13 13 14 15 15 16 16 15 15 14 15 17 18 19 20 20 20 18 18 18 19 19 19 20 18 17 17 19 21 22 20 19 20 20 19 18 18 19 19 18 18 18
12 13 13 13 13 15 15 15 15 15 15 14 14 14 19 19 20 20 20 19 19 18 18 17 18 15 14 15 16 19 20 20 21 19 20 19 18 19 18 18 18 19 19 18 18
12 13 13 14 14 15 15 14 14 14 15 16 17 16 19 19 20 21 21 18 18 18 15 18 15 14 16 17 19 20 20 20 21 22 22 20 19 18 19 19 19 19 19 19 19
12 13 14 14 14 15 15 15 14 14 13 17 17 17 18 19 19 20 20 19 18 16 16 15 15 17 18 18 18 19 20 20 20 22 20 20 19 18 18 19 19 19 19 20 19
12 13 14 14 15 15 15 15 15 15 13 16 17 18 19 20 20 20 20 20 18 16 16 15 18 19 19 19 19 19 19 19 20 21 20 19 18 19 19 19 19 19 19 20 20
12 13 14 14 15 15 15 16 17 16 10 14 16 19 19 20 20 21 21 21 19 17 16 18 19 19 19 20 18 18 19 21 21 20 19 20 18 18 18 17 18 19 19 19 20
13 14 14 14 15 15 15 16 17 17 13 17 17 19 20 20 21 20 21 22 18 18 17 18 19 19 19 19 19 19 19 20 20 19 19 20 18 19 17 17 18 18 19 20 20
14 14 14 14 15 16 16 17 17 12 15 17 19 18 18 19 20 21 21 21 20 18 19 18 20 19 19 20 20 21 20 15 14 15 17 19 18 19 17 18 19 19 19 19 19
15 14 15 15 15 15 16 16 11 12 15 15 15 17 17 17 18 18 16 14 15 15 17 19 19 21 21 21 20 18 16 15 16 15 17 17 19 19 18 18 18 19 19 19 20
15 15 15 15 15 15 15 11 11 14 14 15 14 14 14 14 15 14 13 12 14 14 12 15 17 18 19 20 18 16 16 14 18 15 17 17 19 19 18 19 19 19 20 19 19
16 15 15 15 16 15 16 9 10 12 13 13 14 12 12 13 15 13 12 11 14 12 14 14 17 16 18 18 18 18 17 17 14 14 16 16 18 20 19 18 18 18 20 20 19
16 15 16 16 16 16 11 11 13 13 13 13 12 12 12 11 13 11 11 13 11 13 13 13 15 15 16 17 15 16 15 17 13 17 19 16 16 15 16 17 17 16 17 19 20
16 16 15 16 16 16 8 11 12 12 13 12 12 11 10 10 11 10 10 13 12 12 12 12 13 15 13 12 11 12 11 10 12 12 15 14 14 17 15 15 15 16 16 18 19
15 10 15 16 12 7 7 10 12 10 11 11 11 10 10 9 9 10 11 10 11 12 12 10 10 11 12 12 12 12 12 9 13 15 11 12 14 15 14 15 15 14 15 16 18
14 14 14 16 9 6 9 10 10 9 8 10 9 9 8 7 9 10 11 12 11 11 11 12 7 9 12 12 11 11 11 10 7 7 9 12 13 15 14 14 13 14 13 13 15
14 8 13 13 10 9 9 8 9 11 9 9 8 8 8 6 6 8 9 10 10 11 11 11 5 9 10 11 10 11 11 12 9 9 9 11 13 13 12 11 11 12 12 12 12
13 8 9 6 8 7 7 8 9 8 9 9 8 7 7 6 7 7 7 7 10 9 9 7 7 8 8 10 11 12 12 12 13 11 12 11 13 13 10 10 9 10 11 11 11
12 11 10 8 9 7 6 7 8 8 8 8 8 7 6 6 7 7 8 7 7 8 7 5 6 8 8 8 10 11 11 11 12 13 12 12 13 8 9 10 10 9 9 9 10
12 11 12 7 6 6 7 9 9 9 9 9 9 7 7 8 8 8 9 7 7 7 6 5 4 5 7 7 8 8 8 10 11 10 9 11 9 7 7 7 7 9 8 8 10

GFSSW_850_temp_069.txt.gz
Temp
13 13 14 14 14 15 15 15 16 16 16 16 17 18 17 18 18 18 20 21 20 19 19 19 19 18 17 18 18 19 21 22 23 23 21 19 19 19 19 19 20 19 18 18 15
13 13 13 13 14 14 15 15 15 16 16 17 17 17 18 18 18 19 20 21 20 20 19 19 18 17 18 18 19 20 21 23 23 24 23 20 19 18 21 20 18 17 17 16 15
13 13 13 14 14 14 14 14 15 15 16 16 17 17 17 18 18 20 20 21 20 20 20 20 19 18 19 19 20 21 22 23 24 23 22 22 21 19 22 21 18 17 16 16 16
12 13 13 13 14 14 14 14 15 15 16 16 16 17 17 18 21 20 20 20 20 19 19 19 18 19 20 20 20 20 22 22 23 22 22 23 21 21 22 21 20 18 17 17 17
12 12 13 13 13 14 14 14 15 15 15 16 16 16 17 17 20 20 20 20 19 19 18 18 18 19 21 20 20 21 22 23 23 22 22 21 22 22 22 20 19 17 17 17 17
12 12 13 13 13 13 14 14 15 15 15 16 16 16 16 18 20 20 19 19 19 18 18 18 18 19 20 20 22 22 22 23 23 23 23 23 22 22 21 19 18 17 17 17 17
12 12 13 13 13 14 14 14 15 15 15 16 16 16 16 18 19 19 19 19 18 18 18 18 18 19 19 21 21 22 23 25 23 23 22 22 22 22 19 17 17 17 18 17 17
12 12 13 13 13 14 14 15 15 16 16 15 15 15 17 18 18 19 19 18 18 18 19 19 18 19 20 20 22 23 24 25 23 23 21 23 23 22 18 17 17 16 18 18 17
12 12 13 13 13 14 14 15 15 16 15 15 15 15 17 18 18 18 19 18 18 17 18 18 18 19 20 21 22 23 24 24 24 22 23 23 24 20 18 18 17 17 18 18 18
12 12 12 13 14 15 15 14 14 14 14 14 14 14 16 18 18 18 18 18 17 17 17 18 19 20 20 22 22 23 24 24 24 23 23 23 23 21 20 19 19 17 19 19 19
12 12 12 13 14 15 15 14 14 13 13 15 16 17 18 18 18 18 18 17 17 18 19 18 20 20 21 21 22 23 23 24 24 24 24 25 25 22 21 20 19 19 19 19 19
12 13 13 13 14 14 15 14 14 14 15 16 16 16 18 18 18 17 17 19 18 19 19 19 20 20 21 21 21 22 23 23 24 24 24 24 25 22 22 21 20 20 20 20 20
13 13 14 14 14 15 15 15 15 15 14 16 16 17 18 19 20 17 17 18 20 19 19 20 21 20 21 21 21 22 23 22 24 24 23 23 23 22 21 20 20 20 20 20 20
14 14 14 14 15 15 15 15 16 16 16 18 17 18 19 19 20 19 19 20 20 20 19 20 21 21 21 22 22 22 22 23 23 23 24 23 25 22 22 21 20 21 20 20 20
14 14 14 15 15 15 15 16 16 15 16 18 18 18 19 20 20 20 20 21 21 20 20 21 20 21 21 22 22 23 22 23 23 23 23 23 25 24 21 22 20 20 20 21 20
14 14 14 15 15 15 16 16 16 16 16 18 19 19 20 20 20 20 20 20 19 20 20 21 21 22 22 23 23 23 22 21 21 23 23 25 25 24 23 21 22 22 21 20 21
15 15 15 15 15 15 15 16 16 15 17 17 17 19 19 18 19 19 18 18 19 20 20 20 21 22 22 22 21 23 23 22 22 22 24 22 24 21 21 21 20 20 22 21 21
15 15 15 15 15 15 15 17 15 15 15 16 15 17 17 17 16 17 17 17 16 18 19 20 19 20 21 22 23 22 23 23 21 22 24 21 24 22 21 20 19 19 20 21 20
16 15 15 15 15 15 15 15 13 13 14 15 16 18 16 16 18 17 15 15 15 15 19 19 19 19 19 19 20 21 21 23 22 20 24 24 23 22 22 20 18 18 19 20 21
16 16 15 16 16 16 16 13 14 13 13 15 15 15 16 15 17 16 15 14 14 14 14 17 18 17 18 18 19 21 19 22 22 21 23 21 20 21 18 17 17 17 17 19 20
16 16 15 16 16 15 14 13 14 13 13 14 13 14 13 14 14 13 13 14 13 14 14 15 18 17 18 16 16 19 20 19 21 21 23 22 20 18 17 16 15 14 14 16 18
15 16 15 16 14 10 12 12 11 12 11 13 13 12 12 12 13 13 13 13 11 13 14 13 16 16 16 15 15 16 15 17 22 20 18 22 19 17 16 15 14 12 12 13 13
14 14 14 16 14 12 11 12 11 12 11 12 11 12 11 11 12 12 13 12 11 13 13 14 14 16 16 17 16 16 16 15 16 17 17 22 19 17 15 14 13 12 11 10 11
14 14 13 12 9 12 11 11 11 10 10 10 10 11 12 11 11 11 12 12 11 12 11 13 13 15 18 16 15 15 15 16 17 19 17 18 17 16 15 14 13 12 11 11 11
12 10 9 11 11 10 11 10 11 10 10 10 10 10 11 11 11 10 11 12 13 10 11 14 14 13 13 13 14 14 15 15 16 16 18 16 17 15 13 13 12 12 12 11 11
12 11 10 8 8 11 10 10 10 10 11 10 10 10 10 10 10 10 11 11 10 12 12 11 12 12 12 12 13 14 13 14 15 15 16 16 15 12 11 11 11 11 11 10 10
12 12 11 8 10 11 10 10 10 10 10 9 10 10 10 9 9 9 8 8 9 10 11 11 11 12 12 11 12 13 12 13 14 13 14 16 12 10 11 10 9 9 9 8 8

GFSSW_850_temp_072.txt.gz
Temp
13 13 14 14 14 15 15 15 16 16 16 16 17 17 18 18 19 19 19 19 19 20 19 18 19 19 20 22 21 21 24 26 26 25 23 21 22 20 22 23 23 22 22 21 19
12 13 13 14 14 14 15 15 15 16 16 16 17 17 18 18 19 19 20 20 20 20 18 20 20 20 22 23 23 23 24 27 27 27 24 20 20 22 21 22 22 21 22 20 19
12 13 13 13 13 14 14 15 15 16 16 16 17 17 17 18 18 21 20 20 20 19 19 21 21 22 24 24 24 25 25 27 27 26 25 23 20 19 22 22 23 22 21 19 19
12 13 13 13 13 14 14 15 15 15 16 16 17 17 17 18 24 19 20 20 20 18 19 20 21 23 25 25 24 24 26 25 26 26 26 25 24 23 21 22 21 21 20 20 20
13 13 13 13 14 14 14 14 15 15 16 16 16 17 17 17 21 20 21 20 19 18 20 21 22 24 26 26 25 23 26 26 26 26 26 25 24 24 23 21 20 20 20 20 21
12 13 13 13 14 14 14 14 15 15 16 16 16 16 15 21 18 20 19 18 18 19 21 22 23 24 25 25 26 26 26 26 27 27 26 26 26 25 24 22 21 21 21 21 21
12 12 13 13 14 14 14 15 15 15 16 16 16 16 14 20 17 17 17 18 18 20 21 21 22 23 25 25 25 25 26 28 27 27 27 25 25 24 23 21 21 21 21 21 21
12 12 13 13 14 14 14 15 16 16 16 16 16 16 19 18 16 16 17 18 18 20 21 20 21 23 24 24 25 26 28 28 28 27 26 27 25 24 21 19 20 22 22 21 21
12 12 12 13 14 14 15 15 15 16 16 15 14 14 20 18 17 17 18 18 19 19 19 19 21 23 23 26 27 27 28 29 27 28 27 27 26 24 21 19 20 18 21 21 21
12 12 12 13 14 14 15 14 14 14 15 15 13 15 17 19 18 17 18 19 19 19 20 20 22 24 26 27 27 27 28 29 28 27 28 28 27 24 22 22 20 18 21 22 22
12 13 13 14 14 15 14 14 14 13 13 19 19 19 19 18 18 18 18 19 19 20 23 22 24 24 26 27 28 29 29 28 28 28 29 29 29 26 24 23 21 18 22 22 22
13 13 13 14 14 14 14 15 15 15 19 17 17 17 18 19 20 19 19 20 21 22 24 22 23 26 27 27 26 27 28 28 27 28 28 29 29 27 26 25 23 20 19 22 23
14 14 14 14 14 14 14 14 16 15 19 19 18 19 19 19 21 20 19 21 22 23 23 24 25 26 24 25 25 26 27 28 28 28 28 28 28 27 26 26 23 22 23 23 23
14 14 14 14 14 15 15 16 16 16 21 20 21 20 19 21 22 20 20 22 23 23 23 25 25 24 24 25 26 26 27 27 27 27 28 29 29 28 26 25 22 22 23 24 23
15 14 14 15 15 15 15 16 16 14 20 21 21 19 21 22 22 21 21 22 23 23 23 24 24 24 24 25 26 27 27 26 27 27 27 28 29 26 27 26 21 22 22 24 22
15 15 15 15 15 15 16 16 15 20 18 21 21 22 22 23 23 21 21 21 23 24 24 25 25 25 26 26 26 26 26 26 26 28 26 29 29 28 27 25 26 25 23 23 24
15 15 15 15 15 15 16 16 20 20 20 19 21 22 23 23 23 23 22 22 23 22 22 23 24 25 26 25 26 25 26 25 25 26 27 30 28 25 25 24 24 24 24 24 24
15 15 16 16 16 16 16 20 18 18 19 20 20 22 21 22 21 22 22 22 22 23 24 23 22 24 25 25 25 25 27 27 25 26 28 28 27 24 25 23 23 23 24 25 24
16 15 15 16 16 17 18 19 17 17 17 18 21 20 20 21 21 21 21 21 20 21 23 24 22 23 23 24 25 25 25 29 27 28 29 28 25 25 24 23 21 20 23 25 25
16 16 16 16 17 17 20 16 17 16 17 19 19 19 20 20 21 21 20 18 19 19 20 23 21 22 22 23 24 25 27 25 26 25 26 27 26 24 22 21 21 17 16 22 23
16 18 16 17 17 19 19 17 17 16 16 17 18 18 17 19 20 19 18 17 17 18 19 21 23 21 22 23 24 24 25 25 28 27 27 26 25 22 20 18 18 16 14 14 15
17 20 16 17 19 18 18 16 14 17 16 16 16 17 17 17 18 17 17 16 15 17 18 19 23 22 22 20 20 22 23 25 25 25 27 28 22 21 20 16 14 13 13 12 13
17 17 16 17 19 17 16 16 15 16 16 17 16 16 16 16 16 17 17 14 15 18 18 17 20 20 20 21 20 22 21 22 24 25 26 26 21 20 19 18 13 12 11 11 11
17 19 16 15 15 17 16 15 15 14 14 15 15 16 17 17 17 16 16 16 15 16 13 16 19 18 21 21 22 20 20 21 23 25 26 25 20 19 19 18 17 13 11 11 11
15 15 13 17 16 16 16 15 15 15 14 14 15 15 16 16 16 16 16 17 17 15 16 19 19 19 18 18 20 20 20 20 21 22 23 23 21 19 18 17 16 16 15 12 11
16 16 14 14 14 16 14 15 15 14 15 14 14 15 15 14 15 15 16 16 16 17 17 18 18 18 18 17 18 19 18 18 19 20 22 22 18 17 16 15 16 15 14 13 13
13 13 15 13 16 17 15 14 14 14 13 13 13 14 13 13 13 13 13 14 14 15 16 16 17 17 19 17 17 18 19 19 19 19 20 20 18 16 16 15 14 14 14 12 11

GFSSW_850_temp_075.txt.gz
Temp
13 13 13 14 14 15 15 15 16 16 16 17 17 17 18 18 19 19 18 20 19 20 19 21 22 22 23 25 24 25 23 26 26 27 24 22 24 24 23 25 25 25 24 23 22
13 13 13 14 14 14 15 15 16 16 16 17 17 17 17 18 19 17 20 20 20 20 19 22 23 23 25 26 26 26 23 27 29 28 23 24 24 25 25 25 25 25 25 22 22
13 13 13 13 14 14 15 15 15 16 16 16 17 17 18 18 16 23 21 21 21 20 21 23 24 24 26 27 26 27 25 28 28 28 25 23 21 21 25 27 26 25 24 22 23
12 13 13 14 14 14 14 15 15 15 16 16 17 17 18 18 25 21 21 22 21 21 22 24 25 26 28 29 26 26 28 28 29 28 27 25 24 24 24 23 25 25 23 22 23
12 13 13 14 14 14 14 15 15 15 16 16 17 17 17 18 22 20 21 21 21 19 22 24 25 26 29 29 27 28 29 29 28 29 29 27 27 25 21 22 23 24 23 23 24
13 13 13 14 14 14 14 14 15 15 16 16 16 17 16 22 20 21 20 20 20 20 23 24 26 27 28 29 29 28 29 30 30 30 28 28 27 25 23 23 24 24 24 24 24
13 13 13 13 14 14 15 15 15 16 16 16 16 16 17 22 20 19 19 20 21 22 23 24 26 26 27 29 29 29 29 30 31 30 28 28 26 26 25 24 24 24 24 24 24
13 13 13 13 14 14 15 16 16 16 16 16 16 15 21 20 20 20 21 21 21 22 24 24 24 26 27 28 29 29 30 31 32 31 29 28 25 27 25 24 24 24 24 24 24
13 13 13 13 14 14 15 15 15 16 16 16 16 14 23 19 20 21 21 22 22 23 23 23 23 25 27 29 29 29 30 31 31 31 31 29 26 27 25 24 24 24 25 24 24
13 13 13 14 14 15 15 15 15 16 16 15 15 18 20 21 21 21 21 22 23 22 23 22 24 27 29 28 29 30 30 32 31 31 31 29 21 27 25 22 23 23 23 24 24
14 14 14 14 14 15 15 14 14 16 15 21 22 22 22 22 21 21 21 22 22 23 25 24 26 27 28 29 31 32 31 32 32 32 32 31 27 28 26 25 24 21 19 23 23
14 14 14 14 15 15 15 17 18 18 21 20 21 22 22 21 21 22 21 23 23 24 26 26 26 29 30 30 31 31 32 32 32 31 32 31 31 29 28 27 25 21 19 23 23
15 15 15 15 15 15 15 18 17 17 21 22 21 21 21 22 23 22 22 24 24 25 26 27 28 29 29 29 29 30 31 32 31 30 31 32 31 29 29 28 25 22 22 22 23
15 15 15 15 15 17 17 17 17 17 22 22 22 22 22 22 24 23 22 24 25 26 27 27 29 28 28 28 29 29 31 32 31 30 29 31 30 30 30 29 25 22 23 24 23
15 15 15 15 15 17 17 17 17 18 21 24 24 23 23 23 25 24 22 24 26 26 27 26 28 27 26 28 29 30 31 31 31 30 32 31 31 25 30 28 26 24 25 25 24
15 15 15 15 16 17 17 17 18 20 20 23 24 23 24 24 24 24 23 24 25 26 27 27 27 28 28 29 29 30 29 29 30 30 29 31 31 28 29 24 27 26 23 24 25
15 15 16 16 18 17 17 18 20 21 23 23 24 24 25 25 25 25 24 24 25 24 25 26 26 28 28 28 29 29 28 27 27 28 29 32 31 28 28 28 29 27 25 25 25
16 16 16 16 16 17 17 21 20 22 22 23 23 25 24 25 25 24 24 24 26 26 27 25 24 27 28 28 28 28 29 29 26 28 30 32 30 27 28 27 26 27 27 26 26
16 17 18 18 17 17 19 20 20 21 21 22 23 24 24 24 24 25 25 25 25 26 24 26 26 28 27 29 29 28 27 31 31 32 31 31 27 27 27 26 22 22 27 27 27
17 19 19 18 18 18 22 18 20 20 21 22 22 23 22 23 23 23 23 23 23 23 23 25 24 26 26 26 27 27 29 28 30 28 29 30 27 28 26 24 22 20 20 19 19
17 20 19 19 19 21 21 20 21 19 20 21 20 21 20 22 23 23 22 21 21 23 23 25 25 25 25 25 26 27 27 29 30 30 30 29 26 26 23 22 21 16 16 16 13
20 23 19 19 22 22 21 21 18 21 20 20 21 20 20 20 21 20 21 21 19 22 23 24 25 24 24 26 26 26 28 28 28 27 30 30 23 24 21 19 16 14 13 13 12
20 21 19 19 22 21 20 20 19 21 20 21 20 20 21 19 20 21 20 18 19 22 22 23 24 23 23 24 25 25 26 27 29 30 28 29 23 24 18 16 14 13 13 12 12
20 22 20 20 20 21 20 19 19 17 18 19 20 20 20 19 20 21 20 19 19 20 16 17 23 22 22 24 26 24 25 26 27 27 28 28 22 22 21 17 14 13 13 13 12
19 20 18 21 20 20 20 19 19 18 18 18 18 20 20 20 20 20 21 20 19 18 19 22 20 22 22 22 24 25 24 24 25 26 27 23 23 22 21 21 17 14 13 13 12
20 20 19 19 18 20 16 19 19 18 19 18 18 18 19 19 19 20 20 21 21 20 21 23 21 20 20 21 22 22 23 23 24 25 26 25 22 22 20 19 18 17 16 14 13
16 16 19 17 20 21 19 18 18 17 16 17 17 18 18 17 17 17 18 18 19 19 20 20 22 21 20 21 20 19 21 22 24 24 24 24 21 20 20 19 18 18 16 15 14

GFSSW_850_temp_078.txt.gz
Temp
13 13 13 13 14 14 15 15 15 15 16 17 17 18 18 18 18 18 20 21 21 21 21 21 21 23 24 25 25 25 24 25 25 26 24 22 24 24 24 24 23 25 25 24 24
13 13 13 13 14 14 14 15 15 16 16 16 17 17 18 18 19 18 20 20 21 21 20 22 23 24 25 27 27 22 23 27 28 26 24 24 25 25 25 25 25 24 25 24 25
13 13 14 14 14 14 14 14 15 15 16 16 17 17 18 18 17 22 22 21 21 21 20 24 25 25 27 28 27 18 24 28 28 27 26 26 25 24 22 24 25 25 24 24 25
13 13 13 14 14 14 14 15 15 15 16 16 17 17 18 18 24 22 22 21 22 22 20 24 26 26 28 28 27 26 28 30 29 27 26 25 24 26 22 23 25 25 24 25 25
13 13 13 14 14 14 15 15 15 15 15 16 16 17 17 17 21 22 21 22 21 22 21 24 26 27 29 30 29 21 25 29 30 28 26 25 26 24 22 23 25 25 24 25 25
13 13 13 14 14 14 15 15 15 16 16 16 16 16 17 20 23 22 22 22 20 20 22 25 27 27 29 31 30 29 25 30 31 30 30 28 24 24 20 23 25 25 24 25 25
13 14 13 14 14 15 15 15 16 16 16 16 16 16 15 21 22 21 20 21 21 21 24 25 27 28 29 30 31 30 28 31 32 31 30 27 26 25 22 24 25 25 25 25 25
14 14 14 14 14 15 15 16 16 16 16 16 16 15 18 22 22 22 21 21 22 22 25 26 26 27 28 30 30 31 31 30 32 33 30 28 24 26 25 25 26 25 25 25 25
14 14 14 14 14 15 15 16 16 16 16 17 17 16 21 22 22 22 23 23 23 23 25 26 26 26 28 29 29 30 29 30 29 33 31 30 24 25 25 26 26 26 26 25 25
14 15 14 15 15 15 16 16 16 16 16 16 16 18 20 22 22 23 23 24 24 25 25 25 25 26 28 28 28 29 29 31 28 32 32 27 20 18 26 26 26 26 25 25 25
15 15 15 15 15 15 16 15 14 14 15 20 22 22 24 23 23 23 24 24 24 25 25 25 25 26 28 29 30 31 32 31 30 30 32 27 22 22 26 26 25 25 24 25 25
15 15 15 15 15 16 16 16 20 20 21 20 22 22 25 24 23 23 23 24 25 25 26 26 25 29 30 30 30 31 32 32 28 29 28 25 23 23 25 26 25 25 22 23 24
15 15 15 16 16 16 16 18 19 20 21 23 22 23 23 24 24 24 24 24 25 26 26 27 28 29 30 30 30 31 31 32 29 24 28 28 25 22 26 26 26 24 22 22 23
15 15 16 16 16 17 18 19 19 20 21 24 24 23 23 23 25 24 24 25 26 26 27 27 30 29 29 29 31 30 32 33 30 30 30 32 29 29 28 25 25 23 23 22 23
15 15 15 16 17 18 19 19 19 20 20 25 25 24 24 24 25 25 24 25 26 27 27 27 28 29 28 30 31 30 32 32 30 31 31 31 30 29 27 24 25 24 23 23 23
16 16 16 16 16 18 19 19 20 20 21 24 25 25 25 25 25 25 24 25 26 27 28 29 29 30 29 30 30 31 31 31 31 30 29 31 31 27 24 20 21 25 24 24 25
16 16 16 16 18 19 19 20 21 20 23 24 25 25 25 25 26 26 25 24 25 24 25 27 28 29 29 29 30 30 30 28 27 28 29 32 31 28 22 19 18 27 25 22 22
17 17 17 17 18 19 19 22 17 18 18 25 25 25 25 26 26 26 25 24 26 26 27 26 25 28 29 28 29 29 30 28 26 27 29 31 30 27 26 20 18 28 27 26 24
17 17 18 19 19 19 20 19 15 14 23 24 25 25 25 26 26 25 25 25 26 27 25 24 26 29 29 30 30 29 29 31 30 31 30 30 27 28 27 26 25 24 22 18 17
17 18 20 21 21 20 19 18 21 22 23 24 23 25 24 25 25 24 25 26 24 26 25 25 24 28 29 30 30 28 30 28 29 26 27 28 27 26 26 24 23 21 19 16 14
17 19 21 21 21 19 18 21 23 22 22 22 22 22 21 23 22 22 20 22 24 24 25 25 25 25 28 27 27 28 26 27 29 30 28 26 23 28 25 23 20 19 16 12 12
18 22 21 21 22 24 22 22 21 23 22 22 22 22 22 22 20 21 19 20 22 23 23 25 25 23 26 28 28 29 28 28 28 27 29 21 19 24 22 20 17 16 15 12 10
19 23 22 21 18 22 22 22 21 22 22 22 22 21 22 21 20 21 20 21 21 24 20 22 24 24 24 26 27 26 27 28 29 30 28 23 23 22 19 18 16 15 14 13 11
19 23 23 23 23 23 22 21 21 20 21 21 22 22 21 21 20 20 22 21 21 22 19 20 23 22 18 22 25 25 26 28 28 27 28 23 21 20 18 17 15 15 14 13 13
21 22 21 22 22 22 22 21 21 21 20 20 20 21 20 17 20 20 22 22 21 20 21 23 22 23 23 24 24 26 26 27 26 27 25 22 22 20 19 18 16 15 14 14 13
20 21 21 21 21 22 17 20 21 20 20 20 20 21 21 16 15 16 19 22 21 22 22 23 21 21 21 24 23 23 26 26 26 26 26 23 23 23 19 17 17 16 15 15 14
19 19 20 20 22 22 20 20 20 19 19 19 19 19 20 19 19 17 20 20 16 20 21 21 21 19 20 22 22 21 23 24 24 25 21 20 21 21 21 20 19 17 16 15 15

GFSSW_850_temp_084.txt.gz
Temp
14 14 14 14 14 15 15 15 16 16 16 16 16 17 17 18 18 19 21 22 21 21 21 20 22 21 20 20 21 21 19 21 21 21 20 20 21 22 22 22 22 23 21 20 19
14 14 14 14 14 15 15 15 15 16 16 16 16 16 17 18 19 21 23 22 22 21 21 21 22 21 21 22 21 19 18 21 22 22 21 20 20 20 22 23 23 22 21 20 20
14 14 14 14 14 14 15 15 15 16 16 16 16 16 17 17 19 23 23 23 22 22 21 22 22 21 21 22 20 17 20 22 23 23 22 21 20 21 20 19 23 22 20 20 20
14 14 14 15 15 15 15 15 15 15 16 16 17 16 17 17 19 21 22 23 22 22 21 21 20 21 22 22 21 20 20 21 23 23 23 22 19 18 20 22 23 22 21 21 21
14 14 14 14 15 15 15 15 15 15 16 16 16 16 17 16 21 22 22 22 22 21 22 21 20 21 21 23 22 21 23 21 24 24 24 22 21 21 19 23 24 22 21 21 21
14 14 14 14 15 15 15 15 15 16 16 16 16 16 16 15 22 22 22 22 22 22 22 21 22 23 24 25 24 23 24 19 22 24 24 21 21 21 20 23 23 23 22 21 22
14 14 14 14 15 15 15 15 16 16 16 16 16 16 16 21 21 21 21 22 23 23 23 23 24 21 24 25 27 26 24 22 24 23 22 21 21 22 22 22 23 24 23 22 22
14 14 15 15 15 15 15 16 16 16 16 16 16 15 17 21 20 21 21 21 22 22 23 23 22 22 23 26 26 23 23 23 24 24 22 23 20 22 22 24 24 24 24 24 23
15 15 15 15 15 15 16 16 16 16 16 16 15 15 18 21 21 22 21 22 22 22 23 23 22 23 25 23 21 23 21 23 24 25 23 21 18 18 22 22 23 24 24 24 23
15 15 15 15 16 16 16 16 16 15 16 15 14 14 19 21 22 22 22 22 21 22 22 22 22 20 19 18 19 22 23 25 25 24 23 19 19 18 20 22 23 24 24 24 23
15 15 15 16 16 16 17 16 16 15 15 19 20 19 20 21 22 22 22 22 22 22 19 23 19 19 20 20 21 23 24 25 25 23 20 19 18 19 20 20 22 24 24 24 23
15 15 15 16 16 16 17 18 19 18 17 20 20 19 20 21 21 22 22 22 21 19 20 19 18 20 22 22 22 23 23 24 25 24 21 19 20 20 20 19 21 23 23 24 24
15 15 16 16 16 17 17 18 19 18 17 19 21 20 21 22 21 23 23 23 21 20 20 18 21 22 22 22 23 22 22 24 23 22 21 20 20 19 20 20 20 23 24 23 23
15 15 16 16 17 17 19 19 19 18 12 17 20 21 22 23 22 23 23 23 23 20 21 20 22 23 22 22 23 20 23 26 23 22 20 22 19 19 19 20 20 21 23 23 24
16 16 16 16 17 18 19 19 19 19 14 20 21 23 23 23 23 23 24 24 22 22 20 20 22 22 22 23 23 23 25 26 25 22 21 21 20 19 19 20 19 20 22 23 23
16 16 16 17 18 18 18 19 19 14 16 18 22 22 22 22 23 23 24 24 23 22 22 21 25 22 23 25 25 26 27 25 22 21 20 22 21 19 20 21 21 20 22 22 22
16 17 17 17 19 18 18 18 13 15 18 19 19 19 20 20 21 21 21 20 19 19 19 21 22 23 25 24 23 25 20 19 20 20 20 21 21 22 21 21 21 20 23 22 22
17 18 18 18 18 18 17 14 13 16 17 17 19 19 19 20 20 21 20 19 20 19 18 18 20 23 25 23 23 23 20 18 22 20 22 24 21 19 18 22 21 20 20 21 22
18 18 19 19 19 18 18 11 15 15 18 17 18 18 18 20 21 21 19 19 21 20 19 19 21 23 24 26 24 24 22 21 22 21 22 18 19 18 17 15 15 15 14 15 18
19 19 20 20 19 18 13 14 15 17 19 18 16 17 17 18 18 18 20 20 20 20 19 20 19 22 24 26 25 23 23 22 18 22 22 18 17 17 16 14 13 13 13 14 15
18 17 21 21 20 18 13 14 18 20 19 20 18 17 16 18 17 16 16 19 20 19 19 17 18 19 22 22 22 21 21 19 18 18 19 18 17 17 15 13 12 11 11 13 14
18 14 21 20 18 13 13 17 21 19 20 18 19 18 18 17 16 17 18 19 21 19 18 18 15 17 20 21 22 23 22 19 19 21 17 16 16 16 13 12 11 11 11 12 13
16 17 21 21 15 12 15 20 19 18 18 18 18 19 17 17 17 18 18 21 21 19 18 17 15 15 18 20 18 19 20 20 17 16 18 17 15 14 13 12 11 11 11 11 12
16 14 21 21 19 16 17 17 18 20 19 20 18 18 15 14 15 17 17 20 21 20 18 18 15 16 15 18 19 19 20 20 18 17 18 15 14 13 13 12 12 11 11 11 12
17 15 18 15 16 17 16 16 17 17 18 17 16 17 16 15 14 14 15 16 20 20 20 17 16 19 20 19 19 20 20 20 20 19 20 15 14 13 12 12 12 12 11 11 11
16 16 17 17 18 16 13 14 16 17 17 16 15 15 14 14 14 15 15 14 15 16 16 13 15 17 17 19 18 18 19 20 21 20 16 14 12 13 13 13 13 13 12 12 12
15 16 16 15 15 14 15 17 16 17 17 17 16 15 14 16 16 17 16 16 16 17 15 14 13 12 16 16 20 17 17 18 18 19 16 15 13 13 13 14 14 13 13 12 12

GFSSW_850_temp_087.txt.gz
Temp
13 14 14 14 15 15 15 15 15 15 16 16 16 16 17 18 18 19 21 22 22 21 21 21 20 21 19 20 20 20 19 19 20 20 20 19 21 22 22 21 21 21 19 18 18
14 14 14 14 14 14 15 15 15 15 16 16 17 16 17 18 19 21 22 22 22 21 21 21 21 20 19 20 20 19 18 20 22 21 20 19 22 21 22 21 20 20 19 19 19
14 14 14 14 14 14 15 15 15 15 16 16 16 17 17 18 19 22 22 22 21 22 21 21 21 20 20 21 20 18 20 21 23 22 21 20 19 20 21 21 20 19 18 19 19
14 14 14 14 14 14 14 15 15 15 15 16 16 16 17 18 20 21 22 22 21 21 21 20 20 20 19 20 20 21 21 21 23 22 21 20 20 21 19 21 20 21 20 19 19
14 14 14 14 15 15 15 15 15 15 15 16 16 16 16 17 21 21 22 22 21 21 21 21 20 19 18 19 20 21 22 22 23 22 21 20 20 20 20 21 21 20 20 20 19
14 14 14 15 15 15 15 15 15 15 15 16 16 16 16 15 21 22 22 22 22 21 21 21 21 21 21 21 21 21 22 21 23 23 22 22 21 20 20 21 21 20 20 19 19
14 14 15 15 15 15 15 15 15 15 16 16 16 15 16 20 21 21 21 21 22 22 22 22 21 21 21 22 25 22 20 21 21 24 22 22 20 21 22 22 20 20 20 20 19
14 15 15 15 15 15 15 15 16 15 16 15 15 15 17 19 20 21 20 20 20 21 21 21 21 20 21 24 24 23 21 19 23 22 22 21 20 19 21 22 21 20 20 20 20
15 15 15 15 15 15 16 16 16 16 16 15 15 14 18 19 20 21 21 21 21 20 20 20 21 21 23 21 20 19 20 22 21 20 21 20 18 20 22 21 22 22 21 21 21
15 15 15 16 16 16 16 16 15 16 16 15 14 13 19 20 21 21 21 20 21 20 20 21 21 18 17 18 19 20 19 23 23 21 20 20 19 20 20 22 23 23 22 22 21
15 15 15 15 15 16 16 16 15 15 15 17 19 19 19 20 20 21 21 20 21 21 18 20 18 18 19 20 21 22 23 23 24 23 22 21 20 20 20 20 22 23 23 22 21
15 15 15 15 16 17 17 17 17 16 15 18 18 18 19 19 19 21 21 20 20 18 19 17 18 19 21 20 21 22 22 23 21 20 20 19 20 19 19 19 21 23 23 22 21
15 15 16 16 17 17 18 17 17 17 15 18 19 19 21 20 20 21 21 21 20 19 18 18 20 21 22 22 22 21 21 23 21 19 19 19 19 19 19 19 20 21 22 22 21
16 16 16 17 17 17 18 17 17 18 12 16 19 21 22 21 21 22 22 22 21 19 18 19 21 22 21 21 20 20 21 24 21 20 20 20 20 18 19 18 18 19 21 22 22
16 16 16 16 17 18 18 18 18 18 15 19 20 22 22 22 22 22 23 22 20 20 19 19 21 21 21 21 21 21 23 24 22 20 19 20 19 20 19 18 18 18 21 22 22
17 17 17 17 18 18 18 18 18 14 16 17 19 19 21 22 22 22 23 23 23 21 20 20 23 21 21 22 22 23 25 21 18 18 19 19 20 19 18 20 20 19 20 21 21
18 18 17 18 18 18 18 18 13 14 17 18 18 17 18 20 21 21 20 19 18 17 18 19 21 22 23 23 22 22 19 19 18 18 19 18 20 20 17 21 21 19 20 20 21
18 18 18 19 19 18 18 13 13 16 16 17 17 17 18 19 20 20 19 18 19 18 16 17 20 21 22 21 21 19 19 17 20 18 20 19 20 17 15 17 21 19 19 19 19
19 19 19 19 19 18 18 11 13 14 17 17 16 16 16 19 20 20 19 18 19 18 18 16 19 22 24 24 22 21 20 20 18 18 19 17 17 17 16 14 14 15 17 17 18
19 19 20 20 19 19 13 13 14 16 18 17 17 16 16 16 17 17 17 18 20 19 18 18 18 20 23 24 22 21 20 20 16 20 20 17 17 17 16 14 13 14 13 14 15
19 19 20 20 19 18 13 13 17 19 18 19 18 17 16 17 16 16 16 18 19 19 18 17 17 19 20 20 21 20 20 17 16 16 17 16 16 16 15 13 12 12 12 14 14
17 14 19 19 17 10 12 15 19 18 19 17 18 17 17 16 16 16 17 18 19 18 18 16 13 17 20 19 18 18 19 17 18 19 14 15 15 14 12 12 11 11 12 13 14
16 17 19 19 14 12 14 18 18 17 16 18 17 16 14 15 16 17 18 20 20 18 18 18 14 15 18 17 17 18 19 18 14 14 16 17 15 14 12 11 11 11 12 13 13
16 14 19 19 17 14 16 16 18 18 16 17 16 16 15 13 13 15 16 18 19 18 18 17 13 15 15 18 17 18 18 19 16 16 15 15 14 13 11 11 11 11 11 11 13
17 14 15 13 15 14 14 15 16 16 16 16 15 14 15 15 14 15 15 15 17 17 17 15 15 17 17 17 18 17 18 18 18 18 19 16 13 13 11 11 11 11 11 11 12
16 15 16 15 15 14 12 15 16 16 16 15 14 14 13 14 14 15 15 14 15 15 15 12 15 16 15 19 17 17 18 17 18 15 13 12 12 11 12 12 11 11 11 11 11
15 15 15 13 12 13 13 16 16 15 16 16 15 14 14 15 15 16 16 15 15 15 13 12 12 13 15 13 17 16 17 16 17 15 14 15 13 12 11 12 12 12 12 12 12

GFSSW_850_temp_090.txt.gz
Temp
13 14 14 14 14 14 15 15 15 15 16 16 16 17 17 18 18 19 20 22 22 21 21 20 20 19 19 19 19 19 19 20 20 20 20 19 20 21 20 20 21 19 18 17 18
14 14 14 14 14 14 14 15 15 15 16 16 16 17 17 17 19 20 22 22 22 21 21 21 20 20 19 20 20 19 17 20 22 21 20 20 21 21 20 20 18 17 18 18 19
14 14 14 14 14 14 15 15 15 15 15 16 16 16 17 18 19 21 21 22 22 21 20 21 20 20 18 20 19 18 19 21 21 22 21 20 20 21 20 19 19 17 18 18 18
14 14 14 14 15 14 14 15 15 15 15 16 16 16 17 17 20 21 21 22 21 20 20 19 19 18 17 19 19 19 20 21 21 21 21 21 20 21 21 20 21 21 20 19 19
14 14 15 15 15 15 15 15 15 15 15 15 16 16 16 17 20 21 21 21 20 20 20 19 19 18 18 18 19 19 20 22 21 22 21 20 20 21 20 21 20 20 20 19 19
14 14 15 15 15 15 15 14 15 15 16 16 16 16 15 15 20 21 21 21 21 20 20 20 20 20 19 19 19 21 20 22 21 21 20 21 20 19 20 19 20 20 19 19 19
15 15 15 15 15 15 15 15 15 15 15 16 16 15 15 19 20 21 21 21 20 20 20 20 20 20 20 20 21 21 20 22 22 21 21 21 19 21 21 19 19 19 19 19 19
15 15 15 15 15 15 15 15 16 16 16 15 15 15 17 19 20 20 20 20 20 19 20 21 20 20 21 22 22 20 19 20 21 21 21 21 19 20 20 18 19 18 18 18 19
15 15 15 15 15 15 15 16 16 16 16 15 15 15 17 19 19 20 20 19 19 19 20 20 20 21 21 20 18 17 19 20 21 22 21 20 20 20 19 20 19 19 19 19 18
15 15 15 15 15 15 16 15 15 15 16 15 14 14 19 19 20 20 20 19 19 19 20 20 20 17 16 17 18 18 18 19 20 20 19 20 19 20 20 20 20 19 19 20 19
15 15 15 15 15 15 16 15 15 15 14 16 17 18 19 19 20 20 21 19 19 19 17 19 17 17 17 19 20 19 19 19 23 21 20 20 18 19 19 20 20 20 20 20 20
15 15 16 16 16 16 16 16 15 15 14 17 17 17 18 19 18 19 20 20 19 17 18 16 16 18 18 20 21 21 22 20 19 21 19 17 18 19 19 19 21 21 21 21 21
15 15 16 16 17 17 17 16 16 16 14 17 18 18 20 19 19 20 20 20 18 18 18 17 20 19 21 20 20 20 21 22 20 18 18 19 18 19 19 19 20 21 22 22 22
15 16 16 16 17 17 17 17 17 17 11 17 18 19 20 20 20 21 20 21 19 17 17 19 20 20 21 21 20 20 20 23 19 20 20 19 19 18 19 18 18 20 21 22 22
15 16 16 16 17 18 17 17 17 17 14 18 19 20 20 20 21 20 21 21 19 18 18 19 19 20 20 20 20 21 21 23 20 18 18 18 19 20 18 18 18 19 20 21 21
16 17 17 17 18 18 18 18 17 14 16 17 18 18 19 21 21 20 21 22 21 19 19 19 21 20 20 20 21 21 22 18 17 17 18 18 20 19 17 19 20 20 20 20 21
17 18 18 18 18 18 18 18 13 13 16 17 18 16 17 19 20 20 19 19 18 17 18 20 20 21 22 21 21 20 18 18 17 17 17 17 19 20 16 16 18 20 20 20 20
18 19 19 19 19 18 18 13 15 15 15 16 16 16 17 18 20 19 18 17 18 16 14 17 18 20 21 20 19 18 18 16 19 17 19 17 19 19 15 15 18 20 20 19 19
18 19 19 19 19 19 18 11 14 14 16 16 16 15 15 17 19 18 17 17 19 17 17 16 18 20 21 20 21 19 18 18 16 16 17 16 17 16 16 15 15 15 17 17 18
18 19 19 19 19 19 13 13 13 15 17 17 16 15 16 15 16 16 16 18 19 18 18 17 18 19 21 22 21 20 19 19 15 18 19 16 16 17 16 15 15 14 14 14 16
18 19 18 19 19 18 13 12 15 18 17 17 17 16 16 16 15 16 16 18 18 17 17 16 16 19 19 18 19 20 18 15 15 15 16 16 17 15 15 15 14 13 13 14 14
17 15 18 18 16 9 12 13 18 18 17 17 17 16 16 16 14 16 17 17 18 18 18 16 13 16 19 18 18 19 18 15 16 17 13 15 17 13 13 12 13 12 13 14 15
17 17 17 17 13 11 13 17 16 15 15 15 16 15 13 14 15 14 17 18 18 17 18 16 14 14 16 16 16 17 17 14 12 13 15 18 17 12 11 11 11 11 12 12 13
17 14 18 18 15 13 16 16 17 17 15 15 14 15 14 13 12 14 15 16 17 16 16 17 13 15 14 16 16 17 16 16 14 15 14 16 15 13 11 10 10 11 11 12 13
16 13 14 13 14 13 14 15 16 15 15 15 15 13 15 14 15 14 13 16 17 16 16 15 16 16 16 17 17 16 16 16 16 17 18 17 15 13 11 10 11 11 11 11 12
15 15 15 13 13 15 11 14 16 15 14 15 13 13 13 13 13 14 15 14 14 14 14 13 14 16 15 15 17 17 16 16 16 15 14 13 15 11 12 12 11 11 11 11 12
15 15 15 11 11 13 12 15 15 15 16 15 14 13 13 14 15 15 14 14 13 13 12 11 12 14 15 13 17 17 17 16 15 14 13 15 13 10 10 11 11 11 11 11 11

GFSSW_850_temp_093.txt.gz
Temp
14 14 14 14 15 15 15 15 15 16 16 16 16 17 17 18 18 19 20 21 21 20 20 20 19 18 18 18 19 19 19 20 21 21 21 20 22 21 20 21 20 19 19 18 16
14 14 14 14 15 15 15 15 15 15 16 16 16 16 17 18 18 20 21 21 21 20 20 20 19 19 19 20 20 20 21 21 23 24 21 21 22 21 21 20 18 18 17 16 16
14 14 15 15 15 15 15 15 15 15 16 16 16 16 17 18 19 20 20 22 21 20 20 20 20 19 18 20 20 20 21 22 23 23 22 22 21 21 21 22 20 18 17 16 16
15 15 15 15 15 15 15 15 15 15 16 16 16 16 17 17 22 20 20 21 21 20 19 19 19 19 19 21 20 21 21 22 23 22 21 21 21 21 22 21 20 18 18 17 17
15 15 15 15 16 15 15 15 15 15 16 16 16 16 17 17 20 21 20 21 20 19 19 19 20 19 20 19 20 21 22 22 22 22 21 20 22 21 20 19 18 18 18 18 18
15 15 15 15 15 15 15 15 15 16 16 16 16 16 15 17 19 21 21 20 20 19 19 19 19 20 19 19 20 21 22 22 22 21 21 21 21 21 19 19 19 18 18 18 18
15 15 15 15 15 15 15 15 15 16 16 16 16 16 15 19 19 19 21 20 20 20 19 20 20 20 19 20 19 22 23 23 23 22 21 20 20 19 19 19 19 19 19 18 18
15 15 15 15 15 15 16 16 16 16 16 16 16 15 17 18 19 18 19 19 19 19 20 20 19 20 21 21 20 22 24 23 23 22 18 20 21 20 19 19 20 19 19 18 18
14 15 15 15 15 15 16 15 15 15 16 15 15 15 17 18 19 19 18 19 19 19 19 20 20 21 21 23 22 20 23 22 22 22 19 19 18 20 19 20 21 20 19 19 19
15 15 15 15 15 15 16 16 15 15 15 15 15 15 18 18 19 19 18 19 19 19 19 20 20 22 22 24 23 21 23 23 23 22 21 20 19 18 16 19 21 20 20 20 19
14 15 15 16 16 16 16 16 15 15 15 16 17 17 18 18 18 19 19 19 19 19 21 20 22 22 23 24 24 23 23 22 24 23 22 21 20 19 18 20 20 21 20 20 19
15 15 15 16 16 16 16 16 15 15 15 17 16 17 18 18 18 18 19 19 19 20 20 21 22 22 22 23 24 24 24 24 22 23 21 20 19 18 20 20 21 21 21 20 20
15 15 16 16 17 17 16 16 16 15 15 17 17 17 18 18 19 18 19 19 20 20 21 22 23 21 22 22 24 24 25 23 24 19 19 18 18 19 20 20 21 21 21 21 21
15 16 16 17 17 17 17 17 17 17 18 19 19 19 19 19 20 20 19 21 20 21 22 22 22 22 23 23 24 24 24 25 22 23 21 21 19 19 21 20 20 21 22 22 22
15 16 16 16 17 17 17 17 17 17 17 20 20 20 19 20 20 20 20 21 21 21 21 22 22 22 23 24 23 25 24 25 23 22 23 21 19 22 21 21 20 21 22 22 22
16 17 17 17 18 17 17 17 17 18 17 19 19 20 20 20 21 20 20 21 20 21 22 22 21 23 24 23 23 24 23 23 23 24 23 24 24 23 21 22 23 21 21 21 21
16 18 18 18 18 18 18 17 18 17 18 19 19 19 19 21 21 22 21 21 21 20 21 21 22 23 23 23 22 24 24 22 23 23 24 22 23 26 22 20 21 22 21 20 20
17 18 19 18 19 18 18 19 17 18 18 18 18 18 20 20 21 21 21 21 20 21 21 21 21 23 23 24 23 23 25 23 23 23 24 21 24 25 19 17 17 19 22 21 20
18 19 19 19 19 18 18 18 18 18 18 19 19 19 19 19 20 20 20 22 22 22 21 21 21 22 23 24 25 22 23 26 24 22 25 24 23 19 18 17 18 20 21 20 20
18 19 19 19 19 18 19 16 17 16 18 18 18 17 18 19 20 20 19 20 21 20 20 21 21 22 23 23 22 24 25 24 23 23 24 22 22 25 19 17 16 17 16 16 17
18 18 18 18 18 18 19 18 17 17 17 19 19 18 18 18 19 19 19 20 20 19 20 21 21 22 21 22 24 23 24 22 25 24 25 24 24 19 21 18 16 14 14 14 15
18 19 18 18 18 12 18 16 17 19 17 18 18 18 17 17 18 19 19 19 18 20 20 20 22 21 21 20 21 22 22 24 25 22 22 25 25 16 18 18 16 15 14 14 15
17 17 17 17 19 17 16 18 17 18 17 18 18 17 15 16 17 16 17 18 18 19 19 19 19 21 21 22 21 21 20 20 21 23 23 25 25 16 15 15 14 14 13 13 14
16 18 17 17 15 17 18 17 18 16 16 15 16 17 17 16 14 16 17 18 17 17 16 18 18 21 22 21 20 20 20 20 23 25 23 25 22 15 16 16 13 12 12 12 13
16 15 15 18 17 16 16 16 17 17 16 16 17 16 17 17 16 16 16 17 17 15 17 19 18 19 20 20 21 21 20 21 22 21 24 23 23 20 17 17 15 13 12 12 13
15 15 14 13 13 16 15 16 17 16 16 17 16 16 16 16 16 16 16 17 16 17 17 18 17 17 18 19 20 21 21 20 20 19 19 19 20 16 16 14 13 13 12 12 12
14 14 15 11 14 17 17 17 17 16 15 15 16 16 17 16 15 14 14 13 13 16 16 16 17 16 18 17 20 20 20 20 19 19 19 21 19 15 15 14 14 13 13 12 12

GFSSW_850_temp_096.txt.gz
Temp
15 15 15 15 15 15 15 16 16 16 16 16 17 17 17 18 18 19 19 20 20 20 19 18 19 20 20 20 20 20 22 21 23 22 24 22 25 24 24 23 23 23 24 20 19
14 15 15 15 15 15 16 15 16 16 16 16 16 17 17 18 18 19 20 20 21 20 19 20 21 20 22 22 23 23 23 22 26 25 25 24 25 24 24 23 23 23 21 20 19
15 15 15 15 15 15 15 16 16 16 16 16 16 17 17 18 18 21 20 21 21 20 20 21 22 21 22 23 24 24 23 25 26 25 25 25 25 24 25 25 23 22 20 20 20
15 15 15 16 16 16 15 15 15 16 16 16 16 17 17 18 24 19 20 21 21 19 20 21 22 22 22 25 24 25 25 25 26 25 25 25 24 25 25 25 24 22 21 20 20
15 15 15 15 16 15 15 16 16 16 16 16 16 17 17 17 20 20 21 21 20 18 20 22 23 23 25 23 23 25 25 25 26 25 23 24 25 24 24 23 23 22 21 21 21
15 15 15 15 16 16 15 15 15 15 16 16 17 16 16 20 19 20 20 21 19 20 21 22 24 23 24 22 23 25 25 25 25 23 22 25 25 25 23 22 22 22 22 22 22
15 15 15 15 15 15 15 15 16 15 15 16 16 17 15 20 19 19 18 19 19 21 21 22 23 23 23 22 21 22 25 25 25 23 23 23 23 23 23 22 22 22 22 22 22
15 15 15 15 15 16 16 16 16 16 16 16 16 16 19 18 19 18 18 18 19 20 21 21 22 24 25 23 22 24 26 23 23 23 20 20 22 21 21 23 23 23 23 22 22
15 15 15 15 15 16 16 16 16 16 16 16 15 14 21 18 18 18 19 19 20 20 20 20 21 24 24 25 25 21 24 25 23 23 21 19 20 21 19 21 24 23 23 23 22
15 15 15 15 16 16 16 16 16 16 16 16 16 15 19 20 18 18 19 19 20 21 21 22 22 26 27 27 25 21 25 28 25 22 19 18 18 20 18 19 24 24 24 23 23
15 15 15 16 16 17 17 17 15 14 13 19 20 19 20 19 18 19 19 20 21 22 25 23 25 25 27 28 28 24 22 27 27 23 19 19 19 18 17 17 24 24 24 24 23
15 15 15 16 17 17 17 17 17 16 19 18 17 17 18 19 20 20 20 22 22 24 25 24 24 27 28 27 27 28 27 27 27 26 24 19 19 18 18 18 22 24 24 24 24
15 15 16 16 17 17 17 17 17 15 19 20 19 20 20 19 22 21 20 22 23 24 25 26 27 27 25 26 27 28 28 28 26 22 23 21 19 19 18 18 20 23 25 24 23
15 16 16 16 17 17 17 17 17 17 22 22 22 21 20 21 22 21 21 23 23 24 25 27 26 25 25 26 27 28 28 28 26 25 21 22 20 20 19 18 19 23 24 24 24
15 16 17 17 17 17 18 17 17 16 20 22 23 20 21 22 22 21 22 22 24 25 25 26 26 25 25 26 26 28 28 28 28 27 23 22 24 22 19 20 22 23 24 25 24
16 17 17 17 18 18 18 17 16 21 19 22 22 23 23 23 23 22 22 22 24 25 25 26 26 26 27 27 26 27 28 28 28 28 26 25 25 23 23 23 24 24 24 25 25
16 17 18 18 18 18 18 17 22 21 22 22 22 23 23 24 24 23 23 23 24 23 23 25 25 26 27 26 27 26 27 25 26 27 28 28 26 27 25 24 25 24 24 24 25
17 18 18 18 19 18 17 22 21 21 22 23 22 23 23 24 24 24 23 24 24 25 26 24 23 25 26 27 26 25 27 26 24 27 28 26 26 28 27 24 23 25 23 24 24
18 18 19 19 19 18 20 22 21 22 22 22 23 23 23 23 24 23 24 24 25 25 24 25 25 27 27 27 27 26 25 28 27 27 29 28 28 23 23 23 23 24 24 24 24
18 17 18 19 19 18 23 19 22 22 22 23 22 22 22 23 23 23 23 24 25 25 25 25 24 26 26 27 27 28 28 27 27 26 26 28 28 28 23 24 20 24 24 25 24
18 20 19 19 19 21 22 22 22 21 21 22 22 22 22 22 23 23 23 23 24 24 24 25 25 25 26 25 26 26 27 28 29 28 28 28 28 27 27 24 20 19 18 20 23
17 22 19 19 21 22 22 22 19 22 21 22 22 22 22 21 22 23 22 23 21 23 23 25 25 25 25 26 26 28 27 28 27 27 28 29 28 24 24 23 21 17 16 15 16
19 20 18 18 22 22 22 22 21 22 22 22 21 21 21 21 20 21 22 20 20 23 23 24 24 24 24 25 25 26 27 28 29 30 27 27 29 23 22 21 20 19 17 15 14
17 22 19 19 20 22 22 21 21 20 20 20 21 21 21 21 21 21 21 21 19 20 17 20 24 24 25 25 27 25 25 27 28 28 28 28 28 23 22 21 18 17 15 14 14
17 21 19 22 22 22 22 21 21 21 20 20 20 21 21 20 20 20 21 21 20 20 21 22 23 24 24 25 26 26 26 26 27 28 28 29 28 26 23 22 19 16 15 15 15
18 20 18 20 19 21 17 20 20 20 20 20 20 20 21 20 20 18 20 19 20 20 20 23 20 22 22 24 25 24 25 26 26 26 27 27 27 23 22 21 19 17 15 16 15
14 15 17 17 21 22 21 21 20 19 19 19 19 20 20 19 19 19 19 19 18 20 21 20 21 20 21 22 23 23 24 25 24 25 26 26 25 22 21 19 19 18 16 16 16

GFSSW_850_temp_099.txt.gz
Temp
15 15 15 15 15 15 16 16 16 16 17 17 17 17 18 18 18 19 19 21 20 21 20 21 22 23 23 23 24 23 21 22 23 28 28 27 28 27 26 26 26 26 25 24 23
15 15 15 15 16 16 15 16 16 16 16 17 17 17 18 18 19 18 21 21 21 21 20 22 23 23 24 25 25 25 24 23 26 30 28 27 28 26 27 26 26 26 24 23 23
15 15 15 15 16 16 16 16 16 16 16 16 17 17 18 18 18 23 21 21 22 21 21 23 25 24 25 26 26 25 24 26 28 29 28 27 27 27 26 27 27 25 24 23 23
15 15 15 15 16 16 16 16 16 16 16 16 17 17 18 18 25 21 20 21 22 21 22 24 25 25 25 26 27 26 26 26 28 27 28 28 27 28 28 28 27 24 24 23 24
15 15 15 15 16 16 16 16 16 16 16 16 17 17 17 18 23 20 21 22 21 20 22 24 25 26 26 27 27 27 26 26 27 28 28 27 28 28 27 26 26 24 24 24 24
15 15 15 16 16 16 16 16 16 16 16 17 16 17 17 22 21 20 21 21 20 21 23 24 26 26 26 26 27 25 26 26 26 27 25 28 28 27 26 26 25 24 24 24 25
15 15 15 15 16 16 16 16 16 17 17 17 17 17 16 22 20 20 20 21 22 23 24 24 26 27 27 27 26 25 25 25 24 26 24 26 27 26 26 26 25 25 25 25 25
15 15 15 15 16 16 16 16 16 17 17 17 17 16 20 20 20 20 21 22 22 23 24 25 25 26 27 24 25 26 24 22 23 26 24 25 23 26 25 25 25 26 26 25 25
15 15 15 16 16 16 17 17 17 17 17 17 16 16 23 20 20 21 21 22 22 23 24 24 24 26 27 27 21 25 21 23 23 25 21 23 22 24 25 26 26 26 26 25 25
15 15 15 16 16 17 17 17 17 17 17 17 15 18 21 23 22 21 22 23 23 24 24 24 25 27 29 29 23 25 20 25 24 23 23 19 17 20 21 20 26 26 26 26 25
15 15 16 16 16 17 18 17 16 15 16 21 22 22 22 22 21 22 22 23 24 24 26 26 27 27 29 30 23 21 20 19 25 22 21 20 19 18 19 19 21 26 26 26 25
15 16 16 16 17 17 17 19 19 19 22 22 21 21 22 22 22 22 22 24 24 25 27 27 27 30 30 31 30 28 23 18 21 23 22 19 18 18 17 18 18 23 26 26 25
15 16 16 17 17 17 17 19 19 19 22 23 22 23 22 22 24 23 23 24 26 26 27 28 29 30 30 29 29 30 25 21 18 21 21 19 18 18 17 16 17 20 25 26 26
15 16 16 17 17 18 19 19 19 18 23 24 24 23 22 23 25 24 23 25 26 27 28 28 31 30 28 28 30 29 25 20 19 26 21 20 20 20 17 17 16 22 24 26 25
16 16 17 17 18 19 20 19 19 19 22 25 25 23 23 24 25 24 23 25 26 27 28 28 29 29 28 28 30 28 29 21 20 25 25 22 24 22 21 18 17 22 24 24 25
16 16 17 18 18 18 19 19 19 22 21 25 25 25 25 25 25 25 24 25 26 27 28 29 29 29 29 30 30 30 29 30 28 28 22 27 27 24 23 20 18 18 22 24 25
16 17 18 18 20 19 19 20 23 24 25 24 25 26 26 26 26 25 25 25 25 25 26 27 27 29 29 29 29 29 29 27 27 20 28 28 28 27 26 21 19 19 21 24 24
17 18 18 19 18 18 19 23 23 24 25 25 25 25 25 26 26 26 25 25 26 27 28 26 26 28 29 30 29 28 30 28 26 27 28 27 27 27 28 25 25 24 24 25 26
17 18 18 19 19 18 20 23 24 24 25 25 26 25 25 25 25 26 26 26 27 27 27 27 27 29 29 30 30 29 28 31 28 29 25 27 27 27 29 28 26 25 26 25 26
17 20 21 19 19 19 23 21 25 25 25 25 24 24 25 25 25 26 26 27 27 28 28 28 27 29 29 29 30 30 31 29 30 26 25 27 28 28 25 26 27 27 27 26 25
18 21 20 20 19 22 24 24 24 24 23 24 24 24 24 23 26 25 24 26 26 25 27 27 27 28 28 27 28 29 29 29 31 31 29 27 28 29 27 28 26 28 28 27 26
20 24 20 20 22 25 26 25 22 25 24 25 24 25 24 18 25 25 23 22 24 25 25 27 27 26 27 29 30 30 29 30 29 28 30 30 23 29 28 27 26 23 21 22 23
20 23 21 21 23 25 24 25 24 24 24 24 24 24 24 23 22 24 20 22 23 25 24 26 26 26 26 29 29 28 29 30 31 31 29 30 27 28 26 24 23 21 20 19 18
20 24 22 22 23 25 24 24 24 23 23 23 23 23 24 23 24 21 24 23 22 23 20 22 26 26 25 26 28 27 28 30 30 30 30 29 26 27 27 25 22 20 17 16 16
20 24 24 24 25 25 24 24 23 23 23 23 23 23 24 22 23 23 23 23 22 21 23 25 24 26 27 26 28 29 28 29 29 30 30 31 29 28 27 25 23 20 18 17 16
21 23 23 24 23 24 19 23 23 23 22 23 22 23 23 22 22 17 23 21 21 22 23 24 22 24 26 25 28 28 29 29 29 29 30 29 28 28 26 24 22 20 19 19 18
19 19 21 22 24 24 24 23 23 22 22 22 22 22 23 22 22 22 22 22 22 20 20 21 19 23 21 27 26 25 27 28 29 30 30 28 26 28 26 25 23 21 20 19 18

GFSSW_850_temp_102.txt.gz
Temp
15 15 15 15 16 16 16 16 16 16 17 17 17 17 18 19 19 19 19 21 22 22 21 21 21 23 24 25 23 24 19 20 19 28 27 29 29 28 28 27 27 26 25 23 23
15 15 15 16 16 16 16 16 16 17 17 17 17 17 17 18 19 20 21 21 21 22 22 22 24 25 25 25 24 23 20 20 22 27 29 29 28 27 26 27 27 26 25 25 24
15 15 15 16 16 16 16 16 16 17 16 17 17 17 18 18 18 22 22 21 22 22 22 24 26 26 26 25 25 24 19 22 22 23 29 28 27 27 27 26 28 26 25 25 25
16 15 15 16 16 16 16 16 16 16 17 17 17 17 18 18 24 22 22 22 22 22 21 24 26 27 27 25 25 25 26 24 27 25 29 28 27 28 28 28 27 26 24 25 25
16 16 16 16 16 16 16 16 17 17 17 17 17 18 18 18 22 22 22 22 22 22 21 24 26 27 26 25 26 25 25 26 25 27 28 27 28 25 26 26 26 26 25 25 26
15 15 16 16 16 16 16 16 17 17 17 17 17 17 17 20 23 22 21 22 22 21 23 25 27 28 27 27 25 26 26 26 27 25 28 29 29 27 25 27 26 26 26 26 26
15 15 16 16 16 16 17 17 17 17 17 17 17 17 16 21 22 23 21 21 22 22 24 25 26 28 28 28 27 28 26 24 24 24 27 28 28 27 28 27 26 26 26 26 26
15 15 16 16 16 16 17 17 17 18 18 18 17 17 19 22 22 22 23 23 23 23 25 26 26 27 28 27 28 27 26 23 22 22 26 25 23 26 28 27 27 27 26 26 26
15 15 16 16 16 17 17 17 17 18 18 18 17 18 22 22 22 23 23 24 24 25 25 26 27 27 28 28 26 24 23 24 23 25 24 25 21 22 27 27 27 27 27 26 26
15 15 16 16 17 17 18 18 18 18 17 18 18 18 21 24 24 23 23 24 25 25 25 25 26 27 28 28 24 25 23 24 23 21 24 20 18 25 26 27 28 27 27 26 26
15 16 16 17 17 18 18 18 17 17 18 21 22 23 24 24 23 23 24 24 25 26 26 26 26 27 28 29 30 22 20 23 18 19 23 20 18 18 20 22 21 26 26 26 26
15 16 16 17 17 18 18 18 21 21 22 22 23 23 24 24 24 24 24 25 25 26 27 28 26 29 30 29 23 21 20 19 16 17 17 20 19 18 18 18 18 20 22 26 26
15 16 16 17 18 18 18 19 21 21 22 24 24 24 24 23 24 25 24 25 26 26 27 27 29 30 30 30 26 25 25 18 17 16 16 20 18 19 18 17 19 20 19 22 25
15 16 16 17 18 18 21 21 21 21 22 25 25 25 24 24 25 25 24 26 27 27 28 28 30 31 30 30 28 22 21 20 18 16 17 20 19 18 17 17 17 18 19 20 23
16 16 16 17 18 19 21 22 21 21 20 26 26 24 25 24 26 26 25 25 27 28 28 28 29 30 30 30 30 24 24 21 19 16 17 20 22 20 18 17 17 18 19 20 22
16 17 17 18 18 20 20 21 22 22 21 26 26 26 25 26 26 26 25 25 27 28 29 29 30 31 31 31 31 26 26 21 18 17 18 23 25 20 19 21 19 19 20 19 22
16 17 18 18 19 21 21 22 22 21 27 26 26 27 27 26 27 26 26 25 25 25 26 28 29 31 31 30 31 28 28 23 20 18 22 20 25 22 22 23 21 19 19 19 21
17 18 19 19 19 20 21 23 21 26 26 27 27 27 26 27 27 27 26 25 27 27 28 27 27 29 30 29 30 29 27 26 22 22 22 20 25 25 25 24 21 20 20 19 20
17 18 19 20 20 19 21 22 22 26 26 26 27 25 26 27 26 26 26 26 27 28 26 28 28 31 30 31 31 30 28 30 28 25 25 21 23 26 25 24 23 23 21 21 22
18 18 21 21 21 21 23 21 26 26 26 26 25 26 24 24 26 26 26 28 28 29 29 28 26 30 30 30 30 30 31 29 25 24 24 24 21 24 24 24 23 23 22 21 22
18 20 23 22 22 22 23 23 26 26 25 25 25 25 26 20 25 24 26 25 26 27 28 28 27 28 30 29 28 29 29 30 31 29 25 26 23 23 27 27 26 27 26 24 23
18 22 23 23 23 24 25 25 24 26 25 26 26 25 25 24 22 21 23 24 25 26 26 27 27 26 28 30 30 30 30 30 29 28 30 29 26 22 21 26 27 28 27 25 26
19 22 23 23 23 25 25 26 25 26 25 25 25 26 26 22 21 19 23 23 23 25 23 25 25 25 26 28 30 29 30 30 31 31 29 29 22 21 18 25 24 24 23 20 23
17 24 24 23 24 25 25 26 25 25 25 24 24 25 24 24 21 16 14 21 24 24 22 23 25 25 26 25 27 28 29 30 30 29 30 30 27 25 25 25 24 23 22 19 19
18 24 24 25 25 26 26 26 25 25 25 25 24 24 24 20 16 21 19 22 24 23 23 25 23 25 27 26 27 27 29 29 29 30 30 30 28 28 26 25 23 20 20 19 18
19 22 23 26 25 25 21 25 25 25 24 24 24 25 24 23 15 15 20 13 22 23 24 25 23 23 23 26 26 27 28 29 30 30 30 28 26 21 18 18 21 20 18 18 18
19 20 21 24 25 25 25 25 24 24 24 23 24 23 24 23 23 21 21 24 21 22 23 23 22 21 22 22 25 26 26 26 30 30 30 24 23 22 17 17 21 20 19 19 16

GFSSW_850_temp_105.txt.gz
Temp
15 15 16 16 16 16 17 17 17 17 17 17 18 18 18 18 19 19 20 22 22 22 22 22 22 23 23 23 24 21 17 19 20 26 26 25 24 26 26 26 24 24 23 23 22
16 16 16 16 16 16 17 17 17 17 17 17 17 18 18 18 19 20 23 21 21 22 22 22 22 23 24 25 24 21 18 18 20 21 25 27 26 26 26 26 24 23 23 23 23
15 16 16 16 16 16 16 17 17 17 17 17 17 18 18 19 19 22 23 23 22 22 22 22 23 25 25 25 24 20 18 18 20 20 20 27 26 26 25 23 24 23 23 23 23
15 15 16 16 16 16 16 16 17 17 17 17 17 18 18 18 21 23 23 22 21 22 22 22 23 25 26 24 24 22 20 19 19 18 21 26 27 26 26 25 24 24 24 24 24
15 15 16 16 16 16 16 17 17 17 17 17 17 17 17 17 21 22 22 22 22 22 22 22 23 25 26 25 24 24 24 19 18 20 20 27 27 26 27 26 25 25 25 24 25
15 16 16 16 16 16 17 17 17 17 17 17 17 17 17 17 22 23 22 23 23 23 22 22 24 26 27 26 24 24 22 21 19 18 19 26 25 26 26 25 24 25 25 25 25
15 16 16 16 16 17 17 17 17 17 18 17 17 17 17 21 22 22 22 23 23 23 22 23 25 26 28 26 25 23 23 24 19 19 22 24 25 25 26 25 25 25 25 26 25
15 15 16 16 17 17 17 17 17 17 17 17 17 17 18 22 22 22 23 22 22 22 23 24 26 26 27 27 26 25 24 22 21 19 20 23 22 24 25 25 25 25 26 26 25
15 15 16 16 17 17 18 18 18 18 17 17 17 16 18 22 22 23 23 23 23 23 24 25 26 26 27 24 24 22 21 22 21 18 19 23 23 24 24 26 25 26 26 26 25
15 15 16 17 17 18 18 18 19 18 18 18 17 15 21 23 24 23 23 24 24 24 25 25 26 23 22 22 20 22 21 23 21 17 17 20 20 20 24 26 26 26 26 25 25
15 16 16 17 17 18 18 18 18 18 18 20 21 21 23 24 24 24 24 24 24 25 22 26 21 20 22 25 25 22 21 19 18 16 16 19 19 18 18 22 21 26 25 25 25
15 16 16 17 18 18 19 19 20 21 21 22 23 23 24 24 24 24 24 24 25 22 24 22 20 24 26 27 25 21 19 18 16 16 17 17 19 18 17 18 19 20 22 24 24
16 16 16 17 18 19 19 20 21 21 21 22 23 24 24 24 24 24 24 24 24 22 23 22 24 27 27 25 25 22 21 19 19 16 16 16 18 18 19 18 19 20 20 21 24
16 16 17 17 18 18 18 21 21 21 18 23 24 25 24 24 24 24 24 24 25 23 24 23 26 27 27 23 24 21 22 20 18 17 17 16 19 18 18 18 19 18 20 21 23
16 16 17 17 18 19 21 21 22 22 18 26 25 25 25 24 25 25 25 25 23 24 25 23 25 26 27 28 24 20 21 20 19 16 18 18 18 18 17 18 20 21 20 21 21
16 17 17 17 19 20 20 21 21 19 20 25 26 25 24 25 25 26 25 25 25 24 25 25 29 27 27 29 24 22 20 19 17 17 17 19 18 18 18 19 21 21 20 20 20
16 17 18 18 19 19 20 21 19 19 26 25 26 25 24 24 25 25 24 23 21 22 22 24 26 27 29 24 23 20 19 18 18 17 18 19 19 19 21 20 20 20 20 20 21
17 18 19 20 19 19 20 19 19 22 24 26 26 26 26 26 25 25 24 22 23 23 22 22 22 26 29 28 22 21 20 18 20 19 19 20 20 19 22 22 21 20 20 20 21
18 18 19 21 20 20 19 18 21 23 25 25 25 25 24 24 24 26 25 23 24 24 21 22 24 28 28 28 27 25 23 24 18 19 19 19 18 18 23 21 22 20 20 21 21
18 18 21 21 20 20 19 18 22 26 25 24 22 24 22 23 22 23 23 25 25 25 25 23 22 26 28 28 28 27 27 22 21 19 19 19 18 19 21 20 20 20 20 23 23
18 18 22 22 21 21 19 21 24 26 25 24 23 23 23 23 23 20 21 24 24 24 25 25 23 23 25 25 25 25 24 24 21 22 22 19 19 19 21 22 21 22 21 22 23
16 18 23 23 21 22 20 23 24 25 26 25 24 23 23 23 23 20 20 21 23 24 22 21 22 20 23 28 27 27 25 24 21 24 22 22 19 21 21 21 23 22 22 22 23
15 19 22 23 20 21 24 24 26 25 24 24 23 23 23 21 19 19 21 22 22 23 20 20 19 19 22 24 27 26 25 25 24 23 23 23 19 21 21 22 23 23 21 21 21
15 18 23 23 23 22 22 23 24 25 25 25 24 23 22 20 18 16 16 19 21 23 23 22 20 19 19 22 23 23 26 26 25 22 23 24 20 19 20 20 21 19 21 20 21
15 19 21 21 22 22 23 24 24 24 25 25 24 23 22 18 14 14 15 16 19 21 23 21 19 21 22 23 25 25 25 26 25 23 25 22 22 18 16 20 18 18 18 17 17
14 18 19 20 22 23 22 24 24 25 24 23 22 23 22 20 18 14 16 13 15 17 20 20 19 21 20 20 22 22 25 26 26 26 24 20 16 16 17 20 20 19 19 17 17
15 17 18 19 21 23 22 24 24 23 23 24 23 22 22 21 20 19 19 19 21 18 19 20 18 16 19 17 19 21 20 22 21 19 25 22 18 15 16 17 20 19 19 18 16

GFSSW_850_temp_108.txt.gz
Temp
16 16 16 16 16 16 16 17 17 17 17 17 17 18 18 19 19 19 21 22 22 21 22 22 23 22 21 22 22 21 18 18 21 25 24 25 25 25 24 22 23 23 21 21 20
16 16 16 16 16 16 16 17 17 17 17 17 17 18 18 19 20 21 23 23 22 21 22 22 22 22 22 23 22 21 18 18 20 21 21 23 23 25 23 23 23 22 22 21 21
15 15 16 16 16 16 16 17 17 17 17 17 17 17 18 19 20 23 23 23 23 22 21 22 22 21 22 23 22 19 18 19 19 20 20 21 22 26 23 23 23 22 21 21 21
15 15 15 16 16 16 16 16 17 17 17 17 17 17 18 18 20 22 22 23 22 22 21 22 21 21 22 23 23 19 19 19 20 20 20 21 25 25 23 23 24 23 22 21 21
15 15 15 16 16 16 16 16 17 17 17 17 17 18 18 18 21 22 22 23 22 21 22 22 21 22 23 24 24 20 19 19 19 18 19 20 21 25 23 23 24 23 23 22 21
15 15 15 16 16 16 16 16 17 17 17 17 17 17 18 16 22 22 22 22 22 22 23 22 23 23 24 25 23 24 22 19 17 18 18 19 22 25 24 24 24 23 23 23 21
15 15 16 16 16 17 17 17 17 17 17 17 17 17 17 22 22 21 21 22 22 23 24 23 24 22 24 24 26 24 21 18 17 18 18 20 22 22 23 24 23 23 24 24 23
15 15 16 16 17 17 17 17 17 17 17 17 17 17 19 22 22 22 22 22 22 23 23 24 23 22 23 26 26 23 20 20 19 18 17 17 21 24 24 24 24 24 24 24 22
15 16 16 16 17 17 17 18 18 18 18 17 17 17 20 22 22 23 22 22 23 23 23 24 23 23 24 23 21 22 20 21 19 17 17 18 19 24 24 24 24 24 24 23 21
15 16 16 17 17 18 18 19 19 19 18 17 17 16 22 23 23 23 22 22 22 23 23 23 23 19 19 19 18 21 22 19 18 16 17 17 18 22 23 24 24 24 24 23 22
16 16 16 17 17 18 19 19 19 19 18 20 21 20 22 23 23 23 23 23 23 23 21 23 19 19 20 20 22 21 19 18 17 17 17 16 17 17 20 23 23 24 23 23 22
16 16 17 17 18 19 19 19 21 20 19 21 22 21 23 23 23 23 23 23 23 21 22 20 19 20 22 23 24 19 18 17 17 17 18 16 16 17 18 18 19 22 23 23 22
16 16 17 17 18 19 19 20 20 19 18 21 23 23 23 23 23 24 24 24 23 22 21 19 21 23 23 23 21 19 20 17 18 17 16 16 16 17 19 17 19 19 22 23 22
16 16 17 18 18 19 20 19 19 20 14 18 23 24 24 24 23 24 24 24 23 21 21 20 23 23 23 23 22 18 21 20 17 17 17 16 18 18 18 18 18 19 20 22 22
15 16 17 17 18 19 19 20 21 20 16 23 24 25 24 23 24 24 24 24 22 22 22 21 23 23 23 24 23 18 20 19 18 16 16 17 18 18 17 18 19 19 20 21 21
15 16 17 18 19 19 20 20 21 16 17 23 24 23 23 23 23 24 24 24 24 23 22 21 24 23 23 24 21 21 19 18 18 16 17 18 18 18 17 18 20 21 20 22 21
16 16 18 18 20 19 19 20 16 16 22 23 23 23 22 21 23 23 22 22 21 21 20 20 23 24 22 19 20 19 17 17 18 18 18 17 17 18 19 19 20 21 19 21 21
17 17 18 20 20 20 19 16 18 20 21 22 22 22 23 22 23 23 21 20 21 20 18 19 19 24 22 20 18 18 19 18 19 17 19 18 19 19 20 21 22 21 21 21 21
17 18 19 20 20 19 19 15 17 21 23 22 21 20 21 22 22 22 21 20 22 20 20 20 21 24 25 22 20 19 20 20 17 18 18 18 19 19 21 21 21 20 20 20 20
18 19 20 20 20 19 15 15 19 22 24 22 21 21 21 20 20 19 19 21 20 22 21 19 19 22 25 25 23 22 22 20 17 18 18 18 17 18 20 20 20 20 19 19 21
17 18 22 21 20 19 14 15 20 23 25 23 22 21 21 21 20 18 18 20 21 22 21 18 19 21 23 23 22 22 21 20 19 18 18 18 18 17 20 20 19 19 19 19 21
17 14 21 21 18 16 14 18 22 22 24 22 22 20 20 19 16 18 19 20 21 21 19 20 17 19 21 22 23 22 22 19 18 22 19 20 19 22 20 21 20 20 19 20 21
15 17 22 21 15 14 17 20 22 21 23 22 22 21 20 18 17 17 18 20 20 19 20 19 16 17 19 19 21 21 22 23 18 18 20 21 20 21 19 19 21 21 22 21 20
14 13 20 21 22 18 18 19 21 24 24 23 22 22 19 17 13 16 16 18 19 20 22 20 15 18 18 19 19 20 21 21 20 19 20 20 22 19 18 17 18 21 22 21 21
14 14 18 15 17 18 18 19 21 22 23 22 21 19 20 16 14 15 14 16 19 20 20 19 18 19 21 19 20 20 19 21 21 20 22 23 20 17 17 16 16 19 21 21 21
14 15 16 16 18 17 16 19 21 22 22 21 20 19 18 16 17 16 14 14 16 18 18 17 18 18 18 19 19 20 18 19 18 17 19 18 17 16 17 17 17 18 21 21 21
13 14 14 16 16 16 17 20 21 21 22 22 21 19 19 20 20 21 20 19 17 18 17 15 15 15 17 15 19 16 17 17 17 16 15 19 18 15 16 18 17 17 17 16 16

GFSSW_850_temp_111.txt.gz
Temp
15 15 15 16 16 16 16 16 16 17 17 17 18 18 18 19 19 20 22 22 23 22 22 22 22 21 21 21 21 20 18 19 20 23 22 24 23 22 22 21 21 21 20 20 19
15 15 16 16 16 16 16 16 16 16 17 17 17 18 18 19 20 21 22 22 22 22 22 22 22 22 21 22 21 19 19 19 20 20 20 22 23 23 22 22 21 20 20 19 19
15 15 16 16 16 16 16 16 16 16 17 17 17 18 18 19 20 22 23 23 22 22 22 21 21 21 21 22 22 19 19 19 21 19 20 20 23 23 22 21 21 20 19 19 18
15 15 15 16 16 16 16 16 17 17 17 17 17 17 18 19 20 22 22 23 22 22 22 21 21 21 21 21 22 20 20 19 20 20 20 21 21 23 22 23 22 22 21 20 18
15 15 15 16 16 16 16 16 17 17 17 17 17 17 18 18 21 22 22 22 22 22 22 22 21 21 21 23 21 20 19 18 19 19 20 19 20 22 23 23 23 22 21 20 20
15 15 16 16 16 16 16 17 17 17 17 17 17 17 17 17 21 22 22 22 22 22 22 22 22 22 22 23 22 22 20 19 19 19 19 19 22 21 23 22 22 21 20 20 20
15 15 16 16 16 17 17 17 17 17 17 17 17 18 18 21 21 21 21 21 21 22 23 22 22 22 22 21 24 21 20 18 17 17 19 19 21 21 23 22 22 21 20 20 20
15 16 16 16 17 17 17 18 18 18 18 17 17 17 19 21 21 22 22 22 21 22 21 22 22 22 22 23 24 22 21 20 18 18 17 19 20 21 23 22 22 22 21 20 20
16 16 16 17 17 18 18 19 19 19 18 18 17 17 21 22 22 23 22 22 22 22 22 22 22 22 23 21 19 20 20 20 18 16 17 18 18 20 21 22 22 22 22 21 20
16 16 17 17 17 18 19 19 19 19 18 18 17 17 22 22 23 23 22 22 22 22 22 22 22 18 17 18 19 20 19 18 18 17 17 17 17 18 22 22 23 23 22 20 20
16 16 17 17 18 19 19 19 19 19 17 19 20 20 21 22 23 23 23 22 22 22 20 21 18 18 19 20 22 20 19 18 17 16 16 17 16 17 18 21 23 22 21 20 21
16 16 17 17 18 19 19 19 18 17 17 21 21 21 22 22 21 23 23 23 22 20 20 19 18 19 21 22 22 20 18 17 17 16 16 16 16 15 16 18 19 22 21 20 20
15 16 17 18 19 19 19 18 18 18 17 20 22 22 23 23 22 23 23 23 22 20 20 18 20 21 22 21 20 17 19 17 18 17 16 17 17 16 17 17 18 20 21 21 21
15 16 17 18 19 19 19 19 19 19 14 18 22 23 24 23 23 24 23 23 22 21 20 19 21 22 21 21 19 18 20 19 17 17 17 16 18 17 16 17 18 19 20 21 20
15 15 17 18 18 19 19 19 20 20 17 22 23 24 24 23 23 24 24 23 21 21 21 19 21 21 21 21 20 19 20 18 18 15 16 17 17 18 17 17 18 19 19 20 20
15 15 17 18 19 19 19 20 20 16 19 22 23 23 22 22 23 23 24 24 23 21 20 20 23 22 21 21 21 19 18 17 17 16 17 19 18 18 17 18 20 19 19 19 20
15 16 17 18 19 19 19 20 15 16 21 22 22 21 20 21 22 21 21 21 19 20 19 20 22 20 20 18 19 17 15 15 18 17 18 17 17 17 19 19 20 19 19 20 20
16 17 18 19 19 19 19 16 18 20 19 21 21 21 22 21 22 22 20 19 21 20 19 19 20 19 20 18 18 16 16 16 19 17 18 17 18 19 19 19 18 17 19 20 20
17 18 19 20 20 19 19 14 17 18 21 21 21 19 20 21 21 20 20 18 20 20 20 19 20 22 21 20 21 19 18 18 16 16 17 18 19 19 19 20 19 19 20 19 19
17 18 20 20 20 19 15 14 16 19 21 21 20 20 20 19 20 19 18 21 20 21 19 19 18 21 23 22 20 19 19 19 16 18 17 17 18 18 19 20 20 20 19 19 20
17 18 20 20 19 19 13 14 18 21 21 22 19 20 20 19 18 17 18 20 20 20 19 18 17 19 22 21 20 20 20 18 17 16 17 17 18 19 21 21 19 20 20 19 19
16 14 19 20 17 12 13 15 20 21 23 22 20 20 20 18 17 18 18 19 20 19 20 18 15 17 20 21 20 21 19 18 18 20 17 17 19 19 19 19 19 19 19 19 19
14 16 18 19 14 12 14 18 20 20 21 21 21 21 19 17 18 17 18 19 19 20 19 20 16 15 18 19 19 19 20 20 15 15 17 19 20 18 19 18 19 18 18 19 19
14 12 18 17 18 16 17 17 19 22 21 22 21 20 18 16 14 17 17 17 18 19 20 19 15 17 15 18 18 18 18 19 17 17 18 18 22 21 18 18 17 18 19 19 19
13 12 14 13 15 15 17 18 19 19 22 21 19 19 17 16 16 17 15 15 18 19 19 17 18 18 17 18 18 18 17 17 17 16 18 21 20 19 17 17 17 19 19 19 18
13 12 14 14 15 16 14 17 19 20 20 20 18 19 16 15 16 17 15 14 17 16 15 15 16 16 17 18 19 17 17 17 16 16 16 16 17 15 16 16 17 18 19 19 20
11 12 12 14 14 15 16 17 19 20 21 21 19 17 18 18 20 19 18 17 16 16 15 14 15 15 16 15 19 17 16 16 17 16 14 15 14 16 16 15 15 16 16 16 17

GFSSW_850_temp_114.txt.gz
Temp
15 15 15 15 15 16 16 16 17 17 17 17 18 18 19 19 19 20 22 22 22 22 22 22 21 21 21 21 21 20 18 19 21 22 21 22 21 21 21 20 21 20 20 20 19
15 15 15 15 15 16 16 16 17 17 17 17 18 18 18 19 20 21 22 22 22 22 22 21 21 21 21 22 20 20 19 20 20 20 20 21 22 22 21 21 19 19 20 19 18
15 15 15 15 16 16 16 16 16 17 17 17 17 18 18 19 20 21 22 21 22 22 22 21 21 21 21 21 21 19 20 19 20 20 19 19 22 22 21 20 20 19 19 19 18
15 15 15 16 16 16 16 16 16 17 17 17 17 18 18 19 20 21 22 22 21 21 22 22 21 21 21 21 21 21 20 19 17 17 21 20 21 21 22 22 22 21 20 19 19
15 15 15 16 16 16 16 16 17 17 17 17 17 18 18 19 21 21 21 22 22 22 21 22 21 21 21 21 21 20 20 19 17 18 20 20 21 21 22 23 22 20 20 19 19
15 15 16 16 16 17 17 17 17 17 17 17 17 18 18 18 21 21 21 21 21 21 21 21 22 22 22 21 21 21 20 19 18 19 19 19 21 21 22 22 21 20 20 19 19
15 16 16 16 16 17 17 18 18 18 18 17 17 18 18 21 21 21 21 21 21 20 21 21 21 22 22 21 22 19 19 19 18 19 19 18 20 20 22 21 20 20 20 19 20
15 16 16 16 17 17 18 18 18 18 18 18 17 18 20 21 22 21 21 21 21 21 20 21 21 21 22 22 22 21 20 19 18 17 17 19 19 20 21 21 20 19 19 19 19
16 16 16 16 17 18 18 19 19 19 18 18 18 18 21 21 21 22 22 21 21 21 21 21 21 21 22 19 18 17 18 19 18 17 18 18 19 18 20 21 20 19 19 19 19
15 16 16 17 18 18 19 19 19 19 18 18 18 19 22 21 21 22 22 21 21 21 21 21 21 17 15 16 18 19 17 18 18 17 17 16 17 17 19 20 21 20 20 19 19
15 16 17 17 18 19 19 19 18 18 17 19 19 19 21 22 22 22 22 22 21 21 18 20 17 17 19 19 19 19 19 17 18 17 17 16 16 16 16 19 20 21 20 20 20
15 16 17 17 18 19 19 18 17 17 16 20 20 20 22 22 22 22 22 22 21 19 19 17 18 19 20 20 21 18 17 17 17 17 17 16 16 16 16 16 18 20 20 20 20
15 16 17 18 19 19 19 18 18 17 16 20 21 21 22 22 22 23 22 22 21 20 19 17 20 20 21 20 20 18 18 16 18 17 16 16 17 16 16 16 18 18 20 21 21
15 16 17 18 19 19 19 19 19 19 14 19 21 22 23 22 22 23 23 23 21 20 18 20 20 21 20 20 19 18 18 18 16 17 17 17 17 16 17 16 16 18 20 20 21
15 16 16 18 18 19 19 19 19 19 17 22 22 23 23 23 23 23 23 23 20 21 19 19 21 21 20 20 19 19 18 17 17 16 16 16 17 18 16 16 17 18 19 20 20
15 15 16 17 18 19 19 19 19 15 19 20 23 22 22 22 22 22 23 23 22 20 20 19 21 21 20 20 20 18 17 15 15 15 16 17 17 16 16 16 18 19 19 20 20
15 16 17 17 19 19 19 20 15 16 20 21 21 20 21 21 21 21 21 20 18 19 19 19 20 19 19 17 18 16 14 14 16 15 17 16 17 18 18 17 17 18 19 19 20
16 17 18 19 19 19 19 15 18 20 19 20 20 20 21 19 20 20 19 18 20 19 16 17 18 18 19 17 16 16 16 14 18 16 17 17 17 18 20 20 19 20 19 19 19
16 18 19 19 19 19 19 14 16 18 20 20 20 18 18 19 20 18 18 17 20 19 18 18 19 21 19 19 19 17 17 16 15 15 16 17 18 19 19 18 18 18 18 19 19
17 18 19 19 19 19 15 14 16 17 20 20 20 20 19 18 19 18 18 20 20 20 19 20 18 20 21 20 20 18 18 18 14 17 18 17 17 18 18 18 18 18 18 18 19
17 18 18 18 19 19 14 13 16 20 20 20 19 19 19 19 18 17 18 19 19 19 18 18 17 19 20 20 18 18 18 17 15 15 16 17 18 18 19 19 18 20 21 21 21
16 13 17 18 16 10 12 14 19 20 21 21 19 20 19 17 17 17 18 18 19 19 19 18 15 17 19 19 18 18 18 17 16 18 15 16 18 17 19 20 20 20 20 19 19
14 15 16 17 13 11 13 17 19 20 20 20 20 19 17 16 18 16 18 19 19 18 19 17 15 16 19 19 19 18 18 17 13 13 15 18 18 19 18 18 20 19 19 19 19
13 13 15 15 15 14 16 17 18 20 20 20 19 18 17 16 14 17 17 17 17 18 19 18 13 17 17 17 17 17 16 16 15 15 16 17 18 17 18 18 16 18 18 18 18
12 11 12 12 13 14 16 17 18 19 21 20 19 18 16 16 16 16 15 15 17 17 18 15 16 15 17 17 17 16 16 16 17 15 18 17 16 16 15 16 17 17 18 18 18
12 11 12 12 13 14 13 16 18 18 19 19 19 18 16 15 15 15 16 15 17 16 16 12 16 16 17 17 18 17 16 16 15 15 15 14 16 16 15 16 16 16 17 17 18
11 11 11 12 12 13 14 17 17 17 20 20 19 17 16 17 18 18 18 16 16 16 15 14 13 15 15 15 17 16 17 16 16 16 15 15 15 16 14 15 15 16 17 17 16

GFSSW_850_temp_117.txt.gz
Temp
15 15 15 16 16 16 16 17 17 17 17 17 18 18 19 19 20 20 21 22 22 21 21 22 22 21 21 21 21 21 22 22 23 23 22 22 22 22 21 21 21 20 20 19 19
15 15 15 15 16 16 16 17 17 17 17 17 18 18 19 20 20 21 21 22 22 21 21 21 21 21 21 21 21 21 22 21 20 20 20 23 23 22 22 21 20 18 19 19 19
15 15 15 15 16 16 16 16 17 17 17 17 18 18 19 19 21 20 21 21 22 21 21 21 21 21 22 21 21 19 21 19 18 18 17 20 23 22 22 23 21 20 18 18 18
15 15 15 16 16 16 16 16 17 17 17 17 18 18 19 19 22 21 21 21 21 21 21 21 21 22 23 23 22 22 21 21 18 19 18 20 22 23 21 23 22 20 19 18 18
15 15 15 16 16 16 16 17 17 17 17 17 18 18 19 20 21 21 21 21 21 21 21 21 21 22 23 23 22 23 21 19 19 19 20 20 22 22 22 22 20 19 18 18 18
15 16 16 16 16 17 17 17 17 17 17 18 18 18 18 20 20 21 21 21 21 20 21 21 21 22 22 23 23 22 21 19 19 18 19 20 22 22 22 21 19 19 19 19 19
15 16 16 16 17 17 17 18 18 18 18 18 17 18 19 20 21 21 21 20 20 20 21 21 21 22 22 24 22 21 20 20 19 19 19 20 22 22 22 20 19 19 19 19 19
15 16 16 17 17 18 18 18 18 19 19 18 18 19 20 21 21 21 20 20 20 20 21 21 21 22 22 21 22 22 23 22 19 19 17 20 19 21 20 21 19 20 19 19 19
15 16 16 17 17 18 19 19 19 19 19 19 19 19 21 21 21 21 21 21 21 20 20 21 21 21 22 24 23 21 22 21 19 18 19 20 19 20 18 21 21 20 20 20 19
15 16 16 17 17 18 19 19 19 19 19 19 19 19 21 21 21 21 21 20 21 20 20 20 21 23 22 24 23 22 22 21 21 19 19 18 18 17 17 21 22 21 20 20 20
15 15 16 17 18 19 19 19 19 19 18 19 19 20 21 21 22 21 21 21 21 20 22 20 23 23 23 23 23 23 22 22 19 19 19 18 18 18 17 19 20 20 19 20 20
15 16 16 17 18 19 19 18 18 17 17 20 20 20 22 21 21 21 21 21 21 22 21 22 23 23 23 22 23 23 22 21 18 18 19 18 19 17 16 18 20 19 19 21 20
15 16 16 18 19 19 19 18 18 17 17 19 21 21 22 22 22 22 22 21 22 21 22 22 23 21 23 22 22 22 23 21 21 18 18 19 19 18 16 16 18 18 20 21 21
15 16 16 18 18 19 19 19 19 19 21 23 22 22 22 22 22 22 22 22 22 22 21 23 22 23 23 23 23 22 23 21 19 19 20 18 21 18 18 17 19 20 20 21 21
15 15 16 17 18 19 19 19 19 19 21 23 23 22 22 22 22 22 22 23 23 22 22 23 23 23 23 24 23 23 22 21 20 19 19 18 19 21 19 17 19 20 21 21 21
15 15 16 17 18 18 19 19 19 21 20 23 23 23 23 22 22 22 22 22 21 22 22 23 21 23 23 21 23 21 20 19 19 19 20 22 20 22 19 19 21 21 21 22 21
15 15 16 17 18 19 19 19 20 20 21 22 22 22 22 22 22 23 23 23 23 22 21 22 23 21 21 21 21 21 22 21 21 20 22 19 19 22 22 21 22 21 20 20 21
15 16 17 17 18 18 19 20 19 21 21 21 21 21 22 22 21 22 22 22 21 22 22 22 22 21 21 22 22 21 23 24 22 22 21 19 20 24 23 23 20 20 20 20 20
16 17 18 18 18 19 19 19 21 21 21 22 22 22 22 22 22 22 21 22 22 22 22 21 22 22 21 21 22 21 21 23 22 20 21 22 22 23 23 22 20 18 19 19 19
16 17 17 18 19 18 19 18 19 19 21 21 22 22 22 22 22 22 21 21 22 21 20 22 22 22 22 22 21 22 22 21 20 21 22 23 22 23 22 21 20 20 19 20 19
16 16 17 18 18 18 20 19 19 19 20 22 21 21 21 21 21 20 21 21 21 21 20 21 21 23 21 22 23 22 22 21 21 21 23 23 25 22 22 22 20 20 20 20 19
16 17 16 17 17 12 19 18 18 21 20 21 21 21 21 19 20 21 21 21 19 20 22 20 21 22 23 23 21 23 23 24 24 22 22 22 24 21 21 22 20 20 19 19 20
13 14 15 15 18 17 16 18 19 21 21 22 22 22 20 20 20 20 20 19 18 20 21 20 21 21 23 22 21 22 21 21 21 22 23 24 25 22 21 21 20 20 20 20 19
12 15 14 15 15 18 18 19 20 20 21 20 21 20 19 19 17 19 19 19 17 19 18 19 20 20 22 21 20 20 20 20 20 23 25 24 24 22 19 19 19 19 20 20 19
12 13 12 16 16 17 18 18 19 20 20 20 20 21 21 20 19 19 18 19 19 18 18 20 20 20 21 20 20 19 19 19 20 19 21 23 21 19 18 18 18 17 17 18 18
10 10 11 12 12 16 14 18 19 20 20 21 21 22 20 20 21 21 20 18 20 19 19 18 20 19 19 20 21 19 19 19 18 18 19 19 20 17 16 17 18 18 17 17 16
10 10 10 13 14 16 17 19 19 18 19 20 21 20 19 20 19 18 18 17 18 19 19 18 19 19 19 20 19 18 18 19 19 19 18 20 19 17 16 16 16 17 17 17 16

GFSSW_850_temp_120.txt.gz
Temp
15 15 15 16 16 16 16 17 17 17 17 17 18 18 19 19 20 21 20 20 21 21 22 21 21 22 22 24 23 22 25 27 27 27 25 25 25 24 24 24 24 23 24 22 19
15 15 15 16 16 16 16 16 17 17 17 17 18 18 19 19 20 21 21 21 21 21 21 22 23 23 25 25 24 24 25 24 24 22 22 25 25 25 25 25 24 23 22 20 19
15 15 15 16 16 16 16 17 17 17 17 17 18 18 19 20 20 21 21 21 21 21 21 23 23 24 25 25 25 20 21 23 20 19 20 23 25 25 25 26 25 24 21 20 20
15 15 15 16 16 16 17 17 17 17 17 17 18 18 19 20 25 20 21 21 21 21 21 22 23 25 26 27 25 24 23 21 22 20 19 21 25 25 25 25 25 24 22 21 21
15 15 15 16 16 17 17 17 17 17 17 18 18 19 19 20 22 21 22 21 21 21 22 23 24 25 27 26 26 26 24 21 22 22 21 22 24 25 24 24 24 23 22 22 22
15 15 16 16 16 17 17 18 18 18 18 18 18 18 18 24 20 21 21 21 20 21 22 23 25 25 26 26 27 25 24 23 22 22 22 23 25 24 25 23 23 23 23 22 22
15 15 16 16 17 17 18 18 18 19 19 18 18 19 18 20 20 21 20 20 20 21 23 22 23 24 25 27 24 24 24 23 22 21 21 21 23 23 25 23 23 23 23 23 23
15 16 16 17 17 18 18 19 19 19 19 19 19 19 22 20 20 21 20 20 21 20 22 22 22 24 26 25 25 26 26 24 22 22 21 21 22 21 24 24 23 24 23 23 22
15 16 16 17 17 18 19 19 19 20 20 20 20 19 23 21 21 21 20 22 21 20 21 21 23 25 25 27 27 26 27 25 22 22 21 21 21 21 21 24 23 22 24 23 23
15 15 16 17 18 18 19 19 19 20 20 20 20 20 22 23 21 21 20 21 22 22 22 23 24 26 27 28 27 27 26 26 25 22 22 23 23 19 20 23 25 24 24 24 23
15 16 16 17 18 18 19 19 20 19 20 21 22 22 23 22 21 21 21 22 22 24 26 25 26 26 28 28 28 26 26 26 24 22 23 24 23 20 19 19 24 25 23 24 24
16 16 16 17 18 19 19 20 18 19 22 20 20 21 21 22 23 22 21 24 24 25 25 25 26 28 27 27 27 27 26 26 23 22 22 23 23 23 21 20 22 25 21 24 25
16 16 16 17 18 18 19 18 19 18 23 23 22 23 23 22 24 23 23 24 25 25 26 27 27 26 26 26 26 27 27 27 25 22 22 23 24 23 21 20 20 22 22 22 24
15 16 16 17 18 18 18 19 20 19 25 25 25 24 23 23 25 23 23 24 25 25 25 26 26 25 26 26 27 26 27 26 24 24 25 23 26 24 23 21 21 21 22 20 24
15 16 16 16 18 18 18 19 20 18 24 26 26 23 24 25 25 24 23 24 25 25 25 26 25 25 26 26 27 27 26 26 25 25 24 24 24 28 25 22 22 22 22 22 24
15 15 16 16 17 18 19 19 19 24 23 25 26 26 26 25 25 24 24 24 24 25 26 26 25 26 27 26 26 26 25 25 25 24 24 27 25 28 25 24 23 21 22 23 24
15 15 16 16 17 19 19 19 24 24 25 25 26 26 26 26 26 26 25 25 26 24 25 26 26 27 26 26 26 26 26 25 25 25 26 26 25 27 28 27 26 24 22 23 24
16 16 17 17 17 18 19 23 23 25 26 26 26 26 26 26 26 26 26 26 26 26 26 25 25 26 26 26 26 26 27 27 25 27 27 24 25 28 28 27 26 24 23 24 24
16 16 17 18 18 18 19 23 25 25 26 26 26 26 25 26 26 26 26 26 26 26 25 25 25 27 26 27 27 26 24 28 27 28 26 28 27 28 29 27 27 26 24 24 24
16 15 16 18 18 18 22 22 25 25 25 26 25 26 25 25 25 25 25 25 25 25 25 26 24 26 26 26 26 26 27 26 26 24 25 27 27 27 27 27 27 26 23 22 23
15 17 16 17 17 19 23 24 24 24 24 25 26 25 25 25 25 25 25 25 25 25 25 26 25 25 26 25 27 25 25 26 27 27 25 25 27 27 26 25 27 25 24 22 21
14 20 16 17 20 22 24 24 22 25 24 25 26 26 25 25 25 25 25 25 23 24 25 25 25 25 26 27 27 27 27 28 26 25 27 27 22 25 25 25 26 25 21 21 20
14 16 15 15 21 22 23 23 23 25 25 25 25 26 25 25 24 24 24 23 22 24 24 25 25 24 25 27 26 26 26 26 27 27 17 25 25 25 24 25 24 24 22 20 21
11 19 16 16 20 22 23 23 23 23 25 25 26 25 25 24 24 24 24 23 22 23 20 21 24 24 24 24 21 24 24 25 26 26 26 26 27 27 23 22 23 22 22 20 19
12 18 15 19 21 22 23 24 23 23 23 24 24 25 25 24 24 23 24 24 23 20 21 23 22 24 24 25 24 23 23 24 25 25 24 27 26 26 22 19 21 21 21 21 21
12 14 14 16 18 21 18 22 23 24 23 24 24 25 25 24 24 24 24 23 23 23 23 24 22 23 23 24 24 23 23 23 24 24 24 25 25 23 20 18 21 22 20 20 20
9 10 11 17 19 20 22 22 23 23 23 24 24 25 24 25 24 23 23 23 23 23 23 22 23 22 22 24 23 23 24 24 24 24 24 24 24 23 22 17 16 21 21 20 19